GFSNW_500_spd_000.txt.gz
Wind_Speed
31 38 43 45 44 41 38 37 34 29 26 23 21 19 17 12 10 8 4 3 4 3 3 3 2 2 3 5 6 8 10 12 15 18 20 22 24 26 27 29 32 32 32 28
29 35 40 43 44 43 40 37 34 31 28 25 21 18 15 13 14 10 6 5 5 4 4 4 4 4 5 7 9 11 14 17 20 22 24 26 28 28 29 31 31 31 35 30
29 32 38 41 43 43 40 36 34 32 29 25 19 17 15 15 15 12 9 7 5 6 6 4 2 2 4 7 9 14 19 22 26 29 31 32 30 30 32 32 32 34 30 30
29 31 35 39 40 40 39 37 33 31 26 22 20 19 18 18 16 15 11 9 8 8 7 4 3 5 8 11 15 18 22 26 29 33 33 31 29 29 33 33 33 34 30 29
29 30 32 36 38 36 36 35 33 30 27 24 22 21 20 19 18 16 13 12 11 11 10 8 8 9 11 13 18 21 26 30 34 34 37 32 29 31 32 32 34 34 33 32
27 29 31 31 32 34 34 32 30 28 26 23 23 24 23 21 19 18 16 15 13 12 12 11 13 14 15 17 22 26 31 34 38 40 36 30 27 28 27 25 28 30 32 33
30 30 31 31 31 32 32 31 29 26 26 25 26 26 25 23 21 19 18 16 14 14 14 15 17 18 18 21 24 29 34 38 44 44 40 31 32 29 26 22 24 28 31 32
30 31 32 32 32 31 31 30 29 27 26 25 26 27 26 24 23 21 19 18 17 17 18 19 20 21 22 25 26 31 36 42 48 47 45 34 29 31 28 28 26 30 34 38
33 33 33 33 32 32 32 31 28 27 26 26 26 26 26 25 24 22 22 21 20 21 22 22 24 24 26 29 31 34 39 46 49 49 45 41 36 32 32 33 36 37 39 43
34 35 34 34 35 33 32 31 30 28 27 27 27 27 27 26 25 24 23 23 23 24 26 27 28 28 31 33 35 37 41 48 49 46 42 38 36 38 38 39 43 45 49 51
34 35 35 36 35 35 34 33 32 32 30 30 30 30 29 28 27 27 26 27 28 31 32 32 33 34 36 36 37 39 45 52 48 44 39 39 38 40 42 43 45 48 50 54
37 35 36 37 38 37 36 34 34 34 35 34 34 33 32 32 32 32 32 33 35 36 36 37 38 39 39 39 41 42 45 47 43 43 37 40 41 42 45 49 50 53 56 60
39 38 36 36 38 38 38 37 37 38 37 37 36 36 36 37 37 37 37 38 39 39 39 40 42 41 41 41 45 48 48 45 40 42 39 43 43 44 47 51 54 57 61 66
40 40 39 38 37 37 38 39 40 39 40 40 40 39 40 40 40 40 41 42 42 42 41 43 42 42 42 44 49 51 47 45 42 42 43 44 45 48 51 56 59 62 65 69
40 41 42 42 40 40 39 40 39 40 42 42 42 42 42 43 43 43 43 43 42 43 43 44 44 42 44 50 53 49 43 44 45 46 48 50 53 55 57 58 61 65 70 76
43 42 41 43 43 43 42 41 41 41 42 43 43 42 43 44 44 43 43 43 43 44 45 45 45 43 48 55 55 41 45 47 49 52 55 57 59 58 59 62 67 72 75 77
42 42 42 43 44 45 45 45 42 43 43 43 45 45 43 43 44 45 45 43 43 44 46 47 47 47 54 57 51 45 50 52 54 56 57 59 60 60 64 68 71 74 74 75
45 42 42 42 42 45 46 46 44 44 44 45 49 47 45 42 43 44 44 44 45 45 46 48 50 55 58 55 48 50 51 53 54 56 57 57 60 64 67 70 72 73 74 74
41 45 41 40 43 44 44 45 44 44 46 49 49 48 47 47 45 42 40 42 44 49 52 53 53 54 53 50 52 53 54 54 54 56 59 61 64 66 68 69 72 72 71 72
43 44 44 40 42 41 43 45 47 46 45 47 46 46 48 47 45 43 41 46 49 52 51 51 53 52 51 50 54 54 55 56 57 58 60 63 65 66 68 70 70 71 72 74
49 51 49 45 41 42 47 49 49 49 47 46 49 51 49 45 46 49 53 55 55 54 52 53 54 52 52 54 55 57 57 56 57 60 62 64 66 67 68 69 71 72 73 73
47 46 47 46 47 49 53 52 50 49 49 48 44 47 50 52 52 51 50 50 53 55 55 56 57 56 57 59 60 58 57 57 59 62 64 65 66 67 69 70 71 72 72 71
51 54 51 52 52 52 52 54 52 52 49 46 44 44 45 44 45 48 50 52 52 54 57 59 59 61 61 60 58 57 57 59 61 63 63 64 66 68 69 69 68 69 68 66
54 46 52 55 56 56 56 54 53 51 49 49 50 50 48 48 52 52 52 56 59 62 62 63 62 60 58 56 54 55 58 60 61 62 64 65 65 67 67 65 66 66 64 61
53 51 52 53 53 55 57 58 55 54 54 55 56 51 52 57 59 56 58 63 64 64 63 61 59 56 54 54 55 58 60 61 61 63 63 63 65 65 62 62 62 62 59 57
52 52 49 51 57 58 61 58 57 58 59 61 61 58 59 62 62 62 64 64 60 55 55 55 52 51 52 54 57 59 59 60 60 62 63 63 61 60 60 59 59 56 56 55
56 57 57 54 55 56 57 57 55 53 52 53 55 56 59 62 62 61 57 53 53 52 52 52 52 51 53 57 58 57 58 59 61 61 58 57 58 59 59 57 53 51 50 48

GFSNW_500_spd_003.txt.gz
Wind_Speed
37 45 46 45 42 40 38 35 33 30 28 24 21 20 17 15 13 9 7 4 4 5 7 8 8 6 5 4 3 3 5 6 8 12 15 19 21 24 25 24 26 25 26 23
32 41 46 48 45 42 40 37 34 32 30 26 23 22 19 17 14 11 8 6 6 7 7 8 8 7 6 5 2 2 6 8 12 17 22 25 25 27 27 27 27 25 28 21
30 36 42 45 47 45 42 40 38 35 30 28 26 24 21 18 16 14 11 8 9 9 9 9 9 8 5 3 3 6 10 14 17 21 26 31 32 31 32 32 30 27 26 25
28 31 38 41 44 44 44 42 39 34 32 30 28 25 22 19 18 17 15 13 12 11 11 10 9 9 8 6 8 12 14 18 20 21 27 31 32 33 33 32 32 29 21 22
30 29 33 37 40 42 42 40 38 36 33 31 29 27 23 21 20 18 18 18 16 15 13 12 11 11 9 9 11 15 18 20 23 23 29 34 34 35 33 32 29 29 27 23
29 29 30 33 37 39 39 39 38 37 33 30 29 26 24 23 22 21 22 21 19 17 15 14 13 13 13 13 16 19 23 25 27 27 31 37 41 35 33 30 31 26 27 28
29 28 28 30 33 36 37 36 36 34 32 30 29 28 28 27 25 24 24 23 21 19 17 17 17 16 15 16 20 24 29 32 34 34 36 41 44 37 31 31 29 28 30 34
30 29 28 29 31 33 35 36 34 33 32 31 31 30 30 29 28 28 27 26 24 22 21 20 19 19 19 21 24 29 33 36 39 40 42 45 38 36 32 30 27 31 34 37
30 29 29 29 31 32 33 35 34 33 33 33 33 32 31 32 31 30 29 27 27 27 25 23 23 23 25 27 30 33 36 38 40 42 47 48 44 36 32 33 33 35 35 40
33 32 31 32 32 33 33 33 34 34 36 35 35 34 32 32 32 31 30 30 30 29 27 26 27 28 30 33 35 36 39 40 39 44 47 46 41 37 34 36 35 41 45 47
34 34 34 33 33 34 34 33 34 34 35 35 36 35 34 33 32 32 31 32 31 30 31 30 32 33 35 37 38 40 41 41 40 44 47 48 45 40 38 39 42 44 47 53
36 35 35 35 35 36 36 35 35 35 35 35 35 35 34 34 33 33 34 34 33 34 34 35 37 38 40 41 42 42 38 40 41 47 46 43 44 45 44 45 46 50 54 59
37 36 35 35 37 38 38 38 38 37 37 37 37 35 35 35 35 36 36 36 37 38 39 41 42 44 43 43 44 43 38 41 46 48 40 43 41 44 45 47 51 56 59 61
36 37 37 36 36 38 40 40 40 40 40 41 40 40 39 39 40 40 41 41 42 43 44 45 47 47 47 45 46 46 39 44 49 52 46 45 43 48 50 52 54 56 58 61
39 38 37 39 37 37 39 40 41 42 43 43 43 43 44 44 44 44 45 45 46 47 47 48 48 49 47 49 50 44 40 46 51 54 49 48 50 50 54 57 55 59 62 64
40 40 40 39 40 39 39 39 42 43 44 46 46 45 46 47 46 47 48 50 49 50 49 49 50 49 47 53 51 43 42 50 57 56 53 53 54 54 53 56 60 62 64 68
37 38 41 41 41 42 43 42 39 40 42 44 45 46 47 45 45 46 47 47 48 47 48 50 49 47 50 54 49 45 52 53 53 52 53 55 56 56 57 60 62 65 68 71
37 38 38 41 43 43 45 46 45 44 44 44 47 49 47 42 43 44 45 46 47 48 48 49 49 50 50 53 48 52 52 53 53 54 55 56 57 60 63 63 65 68 70 73
42 42 39 41 41 43 45 46 46 46 48 47 51 51 48 47 46 47 47 48 48 50 50 49 49 51 50 46 47 51 53 54 54 56 57 60 63 65 65 67 68 69 70 70
47 46 47 48 47 46 47 48 48 48 48 49 50 48 48 48 48 46 47 48 49 50 49 49 50 51 50 51 53 54 54 55 56 59 62 65 67 66 66 66 67 68 70 71
43 42 44 41 41 46 50 49 47 47 45 44 42 43 47 46 45 46 46 48 48 48 49 53 56 59 55 53 53 54 56 58 61 65 67 67 65 64 65 66 67 69 71 72
46 45 45 45 47 47 47 51 49 45 46 42 38 41 46 49 50 52 50 47 47 52 54 56 56 53 51 52 54 58 62 64 67 68 67 64 62 64 65 66 68 70 71 71
45 42 50 48 53 55 56 58 54 48 43 42 45 49 48 46 46 45 43 48 53 54 51 51 53 54 55 57 61 63 66 68 68 66 63 61 62 63 66 67 69 70 69 67
48 48 56 59 60 61 60 55 51 49 49 49 50 49 48 48 47 48 49 53 54 55 54 56 58 59 60 63 65 67 67 66 63 60 59 61 63 64 66 68 68 67 66 64
53 53 55 57 61 63 65 59 57 57 57 55 54 54 53 52 51 52 54 57 60 59 58 59 62 63 65 68 67 64 63 61 59 59 60 62 64 65 65 65 64 64 64 62
55 59 53 49 49 53 58 56 49 50 50 50 53 57 58 57 59 61 61 62 64 62 63 64 65 66 65 63 60 58 57 57 58 60 61 63 64 63 62 61 61 62 61 58
56 54 54 48 47 48 52 55 51 49 48 50 53 55 56 57 58 58 57 57 58 60 60 60 57 53 54 55 54 54 56 57 59 60 62 62 61 60 59 60 59 59 57 54

GFSNW_500_spd_006.txt.gz
Wind_Speed
41 47 47 46 44 42 40 37 36 34 30 25 20 20 12 10 11 12 9 5 4 5 9 10 10 9 8 7 6 5 4 2 3 6 8 13 16 19 22 24 24 25 24 21
41 46 47 46 45 43 41 38 36 32 29 25 22 17 14 14 14 12 10 6 5 7 8 10 10 10 8 7 6 2 2 4 7 10 13 18 23 27 31 26 24 24 26 20
39 45 47 47 47 44 43 40 36 34 30 26 23 21 19 18 16 13 12 10 8 9 11 11 12 10 9 7 4 2 4 7 10 13 16 21 25 30 34 34 32 27 23 22
35 43 47 48 47 46 43 41 38 35 31 28 27 24 22 20 17 14 15 14 12 14 14 13 13 12 11 9 9 8 9 10 13 15 19 23 28 32 37 35 32 30 23 26
31 37 43 47 47 47 46 43 39 37 33 33 29 26 24 23 22 18 18 18 16 17 17 17 14 13 14 12 12 12 14 15 16 20 25 27 28 34 38 37 32 28 31 25
29 31 38 43 45 47 48 44 40 40 37 34 32 27 26 25 19 21 21 22 21 20 16 15 15 16 17 17 16 17 18 19 21 24 28 30 31 35 40 38 34 33 31 29
29 29 31 37 41 44 44 42 42 40 38 34 31 29 27 26 23 25 25 25 22 21 22 19 18 19 19 19 19 21 22 24 27 29 32 33 36 37 41 37 34 31 33 36
30 30 30 32 37 40 41 42 41 39 36 36 35 30 29 28 26 29 27 25 25 27 25 23 22 22 22 22 23 25 27 30 32 35 37 37 36 38 39 41 32 34 32 37
31 31 31 31 32 35 38 40 39 37 37 37 34 34 32 29 31 28 29 29 29 29 28 27 26 26 26 26 28 29 32 34 36 39 42 42 42 44 45 40 37 38 35 38
32 31 31 31 31 32 33 36 37 38 38 36 37 38 32 33 32 34 33 32 32 32 32 32 30 30 30 32 32 34 37 39 39 43 44 43 45 45 44 45 43 41 39 42
34 32 31 31 32 32 33 34 35 37 39 38 39 37 37 36 36 35 35 35 34 34 35 35 34 35 34 35 37 38 41 42 43 45 45 46 48 48 48 48 46 48 46 47
36 34 33 31 31 32 33 34 34 35 37 37 39 38 38 38 39 37 34 38 35 37 36 36 37 37 38 39 41 43 46 44 47 47 46 47 51 51 51 51 51 51 51 53
37 35 33 33 33 32 32 33 35 35 35 37 39 38 37 38 38 37 37 37 38 38 38 38 40 40 41 42 43 45 47 45 48 50 46 47 49 50 56 55 54 54 56 58
37 36 35 34 34 34 34 34 35 37 35 37 37 37 38 38 38 37 38 39 40 40 40 41 43 44 45 46 47 50 46 46 45 49 49 50 50 54 56 55 53 55 58 60
37 36 35 35 35 35 35 35 37 38 38 38 36 38 37 39 39 39 40 41 41 42 44 46 46 48 49 50 50 50 43 45 47 49 52 48 54 55 55 52 53 56 59 62
37 35 35 33 34 36 36 37 39 38 39 40 40 39 38 41 41 41 43 44 45 46 48 50 51 51 52 53 54 47 45 45 45 49 51 53 54 56 56 54 57 59 62 65
39 37 36 35 35 36 38 38 34 35 37 40 41 43 42 43 42 43 42 45 46 46 48 52 51 48 51 55 54 43 45 45 48 48 50 56 55 57 57 56 60 64 68 70
36 39 37 36 38 39 41 40 39 37 38 40 42 44 43 40 42 42 42 43 42 46 46 48 48 50 53 57 47 45 43 47 49 52 55 56 57 56 58 61 65 68 70 70
31 35 37 37 37 39 40 41 41 42 43 43 42 43 43 42 41 40 42 44 45 47 50 48 50 52 55 47 47 45 47 49 54 56 56 56 55 59 62 65 68 70 71 71
35 35 37 35 35 37 38 40 41 41 43 47 47 48 48 47 45 45 44 45 47 51 49 48 50 52 48 46 46 46 50 54 54 55 55 57 60 62 66 69 71 72 71 70
39 38 37 38 37 40 45 44 43 42 41 42 44 45 46 46 46 45 45 46 47 48 49 52 52 50 46 45 45 49 55 54 54 56 58 62 64 68 70 71 70 69 67 66
43 41 40 39 43 46 48 48 46 47 46 44 44 45 44 43 44 45 47 46 46 49 50 53 52 50 47 45 49 53 54 56 59 62 63 65 68 71 70 69 67 66 66 68
44 42 40 40 42 45 50 49 46 44 43 40 37 37 40 43 45 47 47 49 53 53 52 49 45 45 48 52 56 57 58 62 65 66 66 68 69 69 67 64 65 66 68 69
47 49 47 45 48 52 49 50 48 48 47 47 47 49 51 50 48 46 50 54 56 55 53 52 52 54 55 57 61 61 61 65 66 67 69 68 65 62 62 63 65 66 66 66
45 47 50 52 52 53 54 56 56 59 55 52 54 54 54 50 53 54 56 56 55 55 54 55 58 59 61 64 63 63 64 65 68 67 64 61 60 60 61 63 64 65 66 67
45 46 48 54 53 52 53 54 57 54 49 49 52 52 55 59 60 62 61 58 58 60 60 62 63 62 61 59 59 62 65 63 60 58 58 59 60 60 61 63 65 66 67 66
51 49 48 49 55 54 45 40 39 42 44 47 49 48 52 54 57 57 58 59 59 58 56 54 52 53 56 57 56 54 54 54 55 56 57 58 61 62 63 64 65 65 64 63

GFSNW_500_spd_009.txt.gz
Wind_Speed
41 45 50 52 51 47 42 41 40 40 37 32 26 23 17 7 8 6 8 5 5 4 8 9 11 11 9 7 7 7 7 5 4 2 3 7 11 15 18 23 24 24 21 15
43 47 50 52 51 48 44 41 41 40 37 31 27 22 12 10 9 7 8 5 4 5 7 9 11 10 11 11 10 9 5 3 1 2 1 6 13 18 21 23 26 28 25 23
43 48 50 51 50 49 46 43 42 39 34 32 27 20 15 13 10 9 9 8 8 7 10 11 12 12 13 12 11 7 4 5 6 6 8 12 17 21 26 28 30 28 24 27
44 48 51 50 50 49 47 44 40 37 34 31 25 21 18 14 12 11 11 11 12 10 10 11 13 13 13 13 11 8 8 9 10 10 13 17 20 22 25 27 32 35 30 30
43 46 49 50 50 49 47 45 42 38 36 31 28 25 22 18 17 13 14 14 16 14 14 12 12 12 13 13 13 13 12 13 14 14 16 19 22 26 29 29 32 34 33 32
42 45 47 50 51 49 49 46 41 40 36 33 32 26 23 22 20 17 16 18 18 15 12 13 14 17 18 18 16 17 17 17 18 18 21 23 26 29 32 35 35 37 37 37
38 43 46 48 50 51 48 45 43 40 38 36 32 28 28 28 21 23 20 17 17 16 19 22 21 22 21 20 20 21 21 22 22 24 25 28 31 33 35 37 37 37 38 38
34 38 42 44 47 48 47 48 46 42 40 39 36 32 33 31 25 25 21 17 20 25 24 24 25 25 24 24 24 23 24 26 27 28 30 32 35 37 37 40 40 39 40 41
33 33 34 38 42 43 45 47 45 43 43 40 38 37 37 33 28 27 23 22 25 26 26 28 29 29 27 28 27 27 28 30 31 34 36 38 41 43 43 44 40 42 39 41
33 32 32 32 35 39 43 44 44 43 42 40 40 41 37 35 33 31 30 28 29 29 29 31 32 32 33 33 31 31 33 35 36 38 39 41 42 47 45 44 45 46 44 45
34 32 31 31 31 32 36 40 43 44 43 43 43 41 40 38 37 34 32 32 32 32 34 34 35 37 37 37 36 35 37 39 39 41 43 45 46 48 47 44 48 49 48 49
35 33 32 31 30 31 33 35 37 39 41 42 43 43 43 41 39 36 36 38 34 37 37 35 38 39 39 38 40 39 41 41 42 43 45 47 50 51 51 50 50 49 50 52
36 34 32 32 31 31 32 34 35 35 36 39 41 41 40 41 41 39 38 38 38 38 37 39 41 41 39 40 40 42 43 44 45 48 49 50 56 55 52 52 51 51 52 55
38 37 35 33 32 32 32 32 33 34 34 36 37 38 38 40 41 40 38 38 38 38 39 40 41 41 42 42 43 44 40 45 45 50 49 52 54 52 53 51 50 53 55 56
39 38 37 35 34 33 32 33 33 33 34 35 34 35 35 36 38 38 38 37 38 39 39 40 41 42 42 44 45 44 40 46 48 47 48 51 50 51 50 49 53 56 56 55
38 38 38 37 36 35 34 34 34 33 33 34 34 34 34 36 37 36 36 37 38 38 38 40 43 42 44 46 47 44 41 40 42 50 52 48 51 52 48 52 55 56 55 55
37 39 38 37 36 35 34 33 31 32 32 34 36 37 36 37 37 36 35 36 36 38 40 42 42 43 45 48 48 39 40 43 47 49 47 48 50 48 52 55 56 55 56 60
35 36 37 37 36 35 34 32 32 33 34 34 36 37 35 34 35 37 35 30 29 28 37 43 42 43 46 51 42 44 44 45 49 49 48 51 50 53 58 58 55 56 61 64
35 33 33 37 38 37 34 34 33 34 36 36 36 36 36 34 34 34 34 35 37 40 42 42 44 46 48 44 46 46 46 46 46 46 47 49 52 57 60 59 60 64 67 70
34 36 35 34 36 35 35 36 36 35 36 39 39 38 39 38 38 38 40 41 43 45 45 46 49 50 47 42 44 48 48 47 48 50 49 51 55 57 59 62 66 69 71 73
35 35 32 27 28 33 35 35 34 34 34 34 34 33 35 37 39 38 40 43 45 46 47 49 50 47 38 41 43 45 49 51 52 49 50 56 58 60 62 64 68 70 72 72
36 35 33 32 33 32 37 35 35 35 34 36 36 34 35 37 40 42 43 44 46 45 44 47 48 45 43 44 46 47 46 44 44 49 56 59 62 64 64 66 68 70 69 65
39 38 38 38 37 36 39 38 37 38 37 38 38 38 36 36 37 41 40 42 45 47 49 50 48 46 47 50 51 52 52 52 54 56 60 65 66 65 66 67 69 65 62 63
45 45 44 43 44 44 41 42 42 42 40 39 40 41 41 42 43 42 46 50 54 56 55 53 52 52 55 56 56 56 56 58 60 63 67 66 63 64 66 63 61 61 63 65
47 46 46 48 48 46 44 42 42 45 47 48 49 51 49 48 48 50 53 55 55 55 56 56 57 59 63 63 61 61 61 62 61 58 58 61 62 60 57 59 61 64 66 68
43 45 47 46 46 47 49 49 47 47 49 51 51 50 53 54 54 52 51 50 52 56 59 61 62 62 60 58 56 52 50 52 55 58 57 56 56 57 59 61 64 65 65 65
44 42 43 45 47 48 49 52 54 53 50 46 45 49 50 51 50 50 51 52 53 55 51 46 40 38 41 45 48 49 48 49 50 51 55 60 62 61 60 60 62 61 62 63

GFSNW_500_spd_012.txt.gz
Wind_Speed
39 38 38 44 50 50 48 47 46 44 41 37 32 29 25 17 11 6 3 4 1 6 7 9 12 15 15 13 11 12 11 10 10 7 5 3 1 6 10 13 15 16 20 23
39 40 41 47 52 50 47 47 47 45 42 38 32 29 22 15 11 5 3 3 2 4 7 13 16 16 16 15 14 14 12 10 7 6 6 5 4 8 11 14 17 19 20 23
39 42 43 49 54 51 49 49 48 46 43 37 34 29 22 14 11 6 5 5 5 6 9 14 16 16 15 15 14 14 12 10 8 7 8 8 11 14 13 16 18 20 22 23
40 43 46 51 55 53 51 50 48 44 41 38 33 28 20 16 11 8 6 5 7 7 8 11 13 14 15 15 16 14 13 11 10 9 11 13 14 17 20 22 24 25 26 28
40 44 48 53 56 55 51 49 47 44 42 38 34 27 21 17 14 11 8 7 7 10 8 9 13 14 15 15 17 16 16 15 14 14 15 16 17 19 22 25 28 30 31 33
40 44 48 52 55 56 53 49 46 44 41 38 34 29 25 21 18 15 12 9 8 12 13 13 16 18 21 21 22 22 20 20 20 20 21 22 22 24 26 29 30 32 34 35
39 44 48 53 53 54 54 51 47 43 40 37 34 31 28 25 22 19 16 13 11 12 17 20 19 22 23 24 23 23 24 24 25 25 26 27 28 27 30 34 33 36 37 38
39 43 47 51 52 53 51 52 46 44 42 39 37 34 35 31 25 21 18 18 15 17 21 23 22 22 25 26 26 27 28 28 28 29 30 31 32 32 35 35 35 38 39 42
38 42 45 49 50 50 50 50 47 45 44 42 41 38 36 32 29 25 24 23 21 20 22 25 27 27 27 30 30 31 32 32 32 32 34 35 35 36 38 39 39 40 41 43
38 40 43 46 48 49 50 49 46 45 44 42 41 39 37 35 31 30 29 29 28 27 25 28 29 31 31 32 32 32 34 36 37 37 38 39 40 40 42 42 42 45 47 47
36 36 38 40 44 47 47 46 45 44 44 43 42 41 39 38 35 34 34 33 32 31 31 32 33 35 35 34 35 35 38 41 39 41 41 43 42 43 44 45 44 49 50 48
34 33 34 36 40 43 43 43 43 43 43 43 43 43 42 41 40 40 40 40 37 38 36 36 36 37 38 38 40 37 40 41 42 41 41 41 44 44 46 46 45 52 51 51
35 32 32 32 32 34 36 37 39 41 42 43 44 45 45 44 43 43 43 43 42 42 40 39 39 39 39 40 40 42 40 43 43 42 39 41 45 46 48 49 55 58 54 55
36 34 32 30 29 30 31 31 32 34 36 37 39 41 43 43 43 43 43 43 41 42 42 41 39 40 41 40 41 42 38 43 42 45 44 47 46 47 51 55 59 56 54 54
36 35 33 33 32 32 31 30 29 30 31 32 33 36 37 38 38 39 40 40 41 39 38 38 38 39 39 41 43 40 34 39 42 43 44 45 44 48 52 54 54 53 54 54
36 36 35 34 32 31 31 32 32 31 30 30 31 32 33 35 36 35 35 34 34 34 33 34 36 35 38 42 40 34 31 34 39 42 43 43 46 49 52 53 52 52 52 54
37 37 37 35 34 33 33 32 30 31 32 33 35 34 33 34 34 34 34 34 33 33 34 36 36 36 39 39 40 31 35 37 39 41 44 47 48 50 52 50 51 50 52 56
38 36 36 35 35 35 35 33 32 31 32 33 36 36 31 30 32 33 33 32 31 30 31 32 31 35 37 42 33 38 39 40 42 45 46 48 51 51 51 51 52 53 56 59
39 39 37 37 37 37 35 34 34 34 36 36 35 32 29 29 29 31 31 31 32 34 36 36 39 41 44 39 41 43 45 46 43 44 46 48 50 52 52 52 53 56 60 64
37 35 36 36 36 35 35 35 36 37 37 37 34 33 34 32 31 31 33 33 36 40 40 42 45 46 43 41 44 45 45 45 43 44 46 47 46 46 44 49 55 59 64 67
36 37 35 33 33 34 35 37 38 37 37 35 32 31 32 30 30 28 29 33 36 39 39 42 43 42 40 42 39 39 42 43 45 47 48 49 50 46 52 58 61 63 67 68
37 37 36 36 35 36 36 35 34 34 33 34 32 27 28 29 31 35 38 38 38 40 39 41 41 39 38 39 43 46 46 45 47 49 50 52 52 55 57 59 62 63 64 66
37 37 35 35 34 37 38 39 38 35 34 34 33 33 33 35 37 38 39 41 42 42 43 45 45 43 45 47 49 50 50 50 51 54 57 58 59 60 59 57 58 61 66 66
41 42 41 41 41 42 42 40 39 38 37 37 39 40 40 39 38 39 39 43 45 48 49 48 48 50 53 54 52 51 52 55 57 59 59 59 58 55 55 58 61 62 60 66
43 44 45 47 46 45 44 44 45 45 45 44 45 47 47 47 49 48 48 48 49 50 52 53 53 52 51 52 54 56 58 59 59 58 57 55 54 55 58 57 59 64 64 64
45 48 47 48 47 46 46 47 48 49 50 51 51 51 51 51 53 54 54 54 55 54 54 54 53 52 53 56 58 54 49 47 48 48 50 52 52 55 59 59 60 60 61 62
45 43 43 43 42 44 45 47 46 46 47 49 50 52 52 51 48 47 45 42 44 47 47 47 46 46 43 39 37 40 42 46 49 48 53 55 56 55 55 55 57 59 59 59

GFSNW_500_spd_015.txt.gz
Wind_Speed
42 39 39 40 39 45 49 51 47 43 42 41 39 34 28 22 17 12 6 4 4 9 10 13 16 17 17 17 18 16 15 16 16 12 10 9 6 3 3 7 10 11 13 13
40 39 41 41 43 48 52 52 49 45 43 42 38 33 27 22 16 10 5 3 5 9 12 15 17 18 20 19 16 16 17 16 15 13 12 10 9 8 8 9 9 11 16 17
40 40 42 41 46 51 55 54 51 47 44 42 37 34 28 22 15 10 7 4 5 7 12 16 18 20 19 18 17 18 18 16 15 14 12 13 13 13 13 14 14 15 19 21
40 41 43 42 48 54 56 54 51 46 44 42 38 34 29 22 17 11 8 4 6 7 9 13 16 18 17 17 18 19 18 17 16 14 16 16 17 17 18 18 19 20 22 22
40 42 43 42 49 56 56 54 51 47 45 43 40 36 29 22 18 12 9 7 4 9 9 12 16 18 18 19 19 21 20 19 19 19 20 20 20 21 24 23 25 25 27 27
40 42 41 44 52 57 56 54 51 48 46 44 41 35 29 24 20 14 12 10 6 8 12 12 16 18 20 22 22 24 25 24 24 24 24 26 24 26 29 29 28 31 32 32
43 40 40 45 52 56 55 52 50 48 46 44 40 37 31 26 22 19 16 13 10 9 14 18 18 18 20 23 24 25 27 28 29 29 30 32 28 30 33 33 32 34 36 36
39 37 40 44 52 56 54 52 50 47 45 42 42 38 33 31 27 23 18 17 16 14 14 18 21 21 21 23 25 27 29 31 33 35 34 37 33 31 36 38 37 36 39 39
35 36 40 44 51 55 54 52 49 47 44 44 42 39 35 34 30 26 24 23 22 20 19 19 21 24 25 26 26 29 32 34 36 38 40 42 37 36 40 42 40 41 42 42
33 35 38 44 49 52 54 53 51 48 46 45 42 40 38 36 32 30 28 27 26 26 25 24 24 25 27 29 29 28 33 37 39 41 44 45 40 42 43 44 44 42 43 45
30 33 37 42 45 49 50 52 51 49 48 45 43 41 40 37 36 35 33 32 31 32 32 31 30 33 32 32 33 34 36 39 39 42 44 47 43 45 47 45 44 45 46 47
29 31 36 40 42 46 48 49 47 47 46 44 43 42 40 39 39 38 38 37 35 37 36 37 37 39 39 38 39 37 39 40 41 42 41 42 44 46 46 46 47 48 48 46
34 30 30 33 38 41 43 45 45 45 45 45 44 43 42 42 41 42 41 41 41 42 43 42 43 43 42 42 42 42 40 42 42 41 38 40 45 45 45 47 48 48 48 49
31 30 30 33 33 35 37 39 42 43 43 44 44 43 43 43 43 44 45 45 45 45 44 44 43 43 45 43 44 45 42 40 39 43 40 44 43 43 44 46 47 48 50 52
32 30 29 29 30 31 32 34 36 38 39 40 40 41 42 42 42 42 43 43 43 41 41 40 40 42 42 44 46 41 37 37 39 40 41 44 43 43 44 46 48 50 52 53
33 33 31 29 28 28 28 29 30 30 31 32 33 34 34 34 35 35 35 35 34 34 34 35 37 34 37 41 39 33 31 35 39 41 42 42 43 44 45 48 50 51 52 53
33 31 31 30 30 30 29 28 27 28 29 30 30 31 31 31 31 31 31 32 31 32 33 35 35 34 37 40 38 26 31 33 36 40 42 43 43 46 48 48 49 51 52 53
36 35 34 32 32 31 31 29 29 29 30 31 32 32 29 29 30 31 31 31 32 34 35 36 35 37 38 40 28 35 37 41 41 43 46 46 48 48 47 46 47 49 50 52
36 37 37 35 35 35 34 32 31 31 32 33 34 31 28 29 30 31 32 33 34 36 36 34 36 38 39 35 36 39 42 44 45 46 46 46 46 47 48 49 51 50 55 57
37 37 37 35 35 35 34 33 34 34 35 36 34 31 32 30 29 30 33 35 37 38 37 37 39 39 38 38 38 40 43 44 44 45 44 44 45 47 49 51 52 47 56 58
35 34 37 38 37 36 37 39 42 41 40 38 36 32 31 30 31 31 34 37 37 39 38 37 36 35 35 38 38 38 38 38 40 43 47 49 49 49 50 53 56 57 56 57
32 32 32 34 35 35 39 41 41 39 38 36 33 32 32 34 33 35 36 36 38 39 39 41 42 41 40 40 41 43 44 44 46 48 50 51 49 50 54 53 53 59 59 59
34 34 34 34 36 39 42 41 40 37 35 35 32 31 33 36 37 39 39 41 42 43 44 46 47 47 47 48 49 50 51 53 55 57 59 57 54 51 49 50 55 58 63 68
36 36 36 37 40 42 42 39 37 37 36 37 36 35 35 35 36 39 41 43 44 47 48 49 48 50 53 56 58 59 59 59 59 56 54 55 56 54 52 56 62 66 62 67
38 38 39 41 40 41 41 41 41 42 41 41 42 43 43 42 44 46 47 49 51 53 54 55 56 57 57 56 56 56 56 55 54 54 53 50 49 52 56 60 62 63 62 66
42 43 42 43 43 43 44 46 48 48 49 49 49 48 50 51 52 52 54 55 56 54 52 52 52 51 49 50 52 53 52 51 48 47 48 50 52 55 57 58 61 64 64 62
47 45 47 51 49 47 47 49 49 50 51 51 52 52 51 52 53 52 49 49 48 46 45 46 46 46 46 46 45 43 42 43 45 50 56 59 58 57 59 60 58 58 60 62

GFSNW_500_spd_018.txt.gz
Wind_Speed
59 56 51 48 44 43 38 48 47 44 41 39 36 33 31 24 20 17 11 8 8 11 12 14 16 16 16 15 16 16 14 17 17 15 15 13 12 10 8 7 8 9 10 10
57 52 48 47 45 43 42 51 50 46 42 41 38 36 32 25 19 15 8 5 6 9 10 13 16 16 16 16 17 17 16 17 18 17 16 13 13 12 11 11 12 14 15 15
52 47 46 45 46 43 49 54 54 50 44 42 39 37 33 26 19 14 9 7 6 8 11 15 17 17 17 17 18 16 17 17 18 17 16 16 15 15 16 17 18 19 21 21
48 46 45 45 46 44 52 58 54 49 44 43 41 39 33 26 20 14 10 7 6 8 10 14 16 18 19 19 19 18 19 19 19 19 18 19 19 20 21 23 23 24 26 26
47 44 42 44 44 44 54 59 53 49 44 43 41 39 34 27 20 16 11 7 5 7 8 11 14 16 19 19 19 20 20 21 22 22 22 22 23 22 24 26 28 30 33 31
44 40 42 42 41 43 56 60 55 49 46 45 43 39 32 27 21 18 13 9 6 6 10 11 14 16 17 19 20 21 23 25 26 27 27 29 28 23 30 31 32 35 36 36
43 42 41 39 41 46 56 60 56 51 47 46 42 38 33 30 25 21 18 13 9 9 9 13 15 14 16 18 20 22 23 26 30 31 32 37 29 30 34 38 38 38 38 41
43 40 38 37 40 48 57 59 56 52 48 44 43 40 35 31 28 24 21 17 14 14 12 12 15 18 18 18 19 22 25 29 32 35 35 38 37 35 37 42 43 41 43 46
40 40 36 37 42 51 58 58 55 52 48 45 42 40 36 32 29 27 24 22 20 18 18 17 15 15 17 21 23 24 26 30 34 36 41 43 42 39 42 46 48 43 47 47
40 36 34 38 44 53 56 55 54 51 49 46 43 40 35 33 32 31 29 27 26 24 22 22 21 21 22 22 22 25 30 34 36 39 42 45 43 44 44 47 47 50 49 50
37 31 33 39 44 51 50 52 51 49 48 45 43 40 37 35 35 34 32 31 30 30 29 28 28 29 28 28 29 30 32 35 37 40 43 45 42 44 45 47 48 50 49 50
34 29 33 39 42 40 36 45 48 48 47 45 42 39 38 38 38 37 37 35 34 34 34 34 35 35 35 35 37 36 38 38 41 42 41 42 44 46 47 47 48 48 48 50
34 29 33 37 40 46 35 40 44 51 47 44 42 41 40 39 39 39 38 37 37 38 39 39 40 41 41 42 43 43 41 42 42 41 39 41 45 47 46 47 47 48 49 50
29 27 32 35 38 43 48 45 43 46 45 43 43 41 40 40 40 39 40 40 41 42 43 43 44 45 46 45 45 44 41 38 37 40 37 42 43 43 44 45 46 47 48 48
29 26 24 27 33 36 39 40 42 41 42 42 41 41 41 40 40 40 42 43 43 43 44 44 43 44 42 42 42 39 33 33 37 39 39 42 40 41 41 43 44 46 48 49
31 27 27 28 28 29 32 35 37 36 36 36 37 37 37 38 39 40 41 41 41 41 39 38 38 34 36 41 39 33 27 36 39 40 41 41 40 41 44 46 47 49 51 53
31 29 26 26 26 25 27 28 28 29 30 31 33 34 34 34 34 33 32 32 31 33 33 33 32 32 36 40 40 31 36 38 38 38 40 40 44 46 48 49 50 51 52 53
27 27 26 25 24 24 23 24 26 26 28 28 29 28 26 26 27 29 29 29 31 33 34 34 35 37 38 39 32 33 35 36 39 42 45 47 49 50 50 49 47 48 50 52
29 28 27 26 25 25 24 25 26 27 28 29 28 27 26 28 27 28 28 29 31 33 34 34 35 36 38 37 35 35 37 41 44 45 46 48 49 49 49 49 50 53 54 54
30 28 28 27 27 27 27 28 29 30 31 31 30 29 29 28 27 30 32 34 36 37 37 37 38 39 41 40 39 38 39 41 43 46 47 48 49 48 48 50 53 55 57 55
35 33 31 31 31 32 33 35 35 35 35 34 34 31 30 29 30 31 34 37 38 41 41 40 39 38 38 39 38 40 43 44 45 46 48 50 51 53 56 58 59 58 56 58
36 34 34 34 34 35 38 39 38 37 36 35 32 31 32 33 33 36 38 39 41 43 42 42 42 41 40 41 44 46 47 47 48 49 51 53 55 56 57 57 58 58 56 52
39 37 33 32 34 37 40 41 40 38 36 34 30 30 32 35 36 38 38 41 43 42 43 46 46 45 46 47 49 50 51 53 55 58 61 63 64 63 62 61 56 50 49 55
29 28 28 30 32 34 33 32 31 32 33 33 34 35 35 34 35 35 37 39 41 44 45 46 46 48 51 54 56 59 62 64 66 67 66 64 62 59 54 50 50 50 54 59
25 26 29 32 32 33 33 33 33 34 36 38 38 39 38 36 37 40 42 45 47 48 49 51 53 56 58 61 63 62 61 60 58 55 54 55 54 50 48 51 55 59 63 66
30 30 31 33 33 35 36 37 38 38 39 39 41 43 45 45 46 48 49 50 52 52 52 50 44 45 51 53 53 54 55 54 51 50 50 51 51 53 55 57 60 63 66 67
33 35 35 36 38 39 40 41 43 44 45 46 48 48 49 51 51 48 45 46 48 49 50 51 52 57 52 49 50 46 44 41 42 48 51 54 57 59 62 59 55 55 57 59

GFSNW_500_spd_021.txt.gz
Wind_Speed
81 79 74 65 58 51 47 45 41 43 47 45 39 34 30 25 23 22 17 15 14 16 18 19 19 19 18 18 18 18 18 17 17 18 17 15 13 13 12 10 9 10 10 9
81 75 72 66 60 54 52 47 45 48 50 45 39 35 32 28 24 22 16 11 11 12 13 15 16 17 17 16 15 16 15 14 17 17 16 15 14 15 14 14 13 12 14 17
77 72 67 65 60 57 55 49 50 54 52 45 40 38 35 30 25 22 15 9 7 7 9 13 16 17 17 16 15 15 15 14 16 17 18 19 17 18 18 19 19 19 18 21
72 68 66 61 58 58 56 52 54 55 52 46 42 40 37 31 25 19 14 8 4 6 8 11 14 16 17 17 17 16 16 15 17 20 21 21 21 21 21 22 23 25 24 26
68 65 62 58 56 59 57 53 57 58 52 46 44 42 39 34 26 20 13 8 4 4 8 9 11 13 14 16 16 17 17 17 20 22 23 24 24 24 22 24 27 30 32 30
63 58 55 52 53 55 55 55 58 59 53 48 46 42 39 35 28 21 14 10 5 4 6 8 8 9 11 13 16 17 17 18 22 24 25 28 29 22 27 30 32 35 37 37
56 53 53 50 50 49 52 53 58 58 55 50 46 43 40 35 29 22 18 12 7 7 6 6 9 8 10 12 14 16 18 21 24 26 29 32 28 28 32 36 39 41 42 43
53 52 49 47 45 47 49 50 56 58 55 50 47 44 40 36 30 25 20 15 13 10 8 7 6 9 11 12 14 16 19 22 25 27 29 32 33 34 35 40 42 43 46 48
50 47 45 42 42 43 45 50 56 58 54 49 47 43 40 37 31 27 24 19 17 15 13 11 10 9 9 10 12 17 21 24 26 28 31 33 33 34 37 41 43 42 46 48
45 44 40 39 39 42 44 48 54 57 53 50 47 43 40 34 32 28 26 23 21 20 18 17 16 16 15 16 17 18 22 24 27 29 33 36 36 37 39 42 46 47 48 48
40 40 38 37 38 40 43 45 48 54 54 50 45 42 39 35 32 30 27 26 24 24 24 23 22 22 23 23 23 24 26 30 30 33 36 39 40 41 44 45 46 47 47 46
40 41 39 35 36 38 38 43 46 53 52 47 44 41 39 36 35 33 30 30 28 27 27 28 29 30 29 29 31 32 33 35 37 38 37 39 43 44 45 45 45 45 46 46
37 38 33 34 35 35 37 33 37 46 49 47 44 41 39 38 36 34 32 31 29 30 32 33 33 34 34 36 38 38 38 40 39 39 35 39 43 44 43 44 44 44 45 46
36 34 30 31 31 34 35 38 28 43 45 43 43 41 40 38 37 36 34 32 33 34 34 35 36 38 40 41 42 43 40 36 35 36 36 39 39 39 40 42 43 43 44 44
33 29 26 30 34 36 36 41 39 37 41 41 40 41 40 39 38 37 37 36 36 37 37 38 40 41 42 44 44 40 29 34 38 39 36 39 39 39 41 42 42 42 44 47
31 28 28 31 43 47 35 37 41 41 40 37 39 39 37 37 37 38 38 38 38 39 40 41 42 40 41 43 39 30 30 34 37 39 41 41 41 42 42 43 45 48 50 51
27 29 27 27 34 34 36 34 31 27 29 30 32 33 34 35 35 35 36 37 37 39 39 39 38 35 36 37 37 33 34 36 38 40 41 40 42 44 45 47 49 50 50 50
33 29 27 26 26 28 29 30 30 30 30 32 32 32 30 31 30 32 33 34 34 34 34 33 33 36 36 37 35 34 34 35 38 40 42 44 46 47 47 47 48 48 49 51
27 27 25 24 25 26 25 26 27 28 29 29 27 25 25 28 26 26 27 29 30 32 33 32 33 35 38 37 35 36 37 38 39 41 42 42 43 45 47 49 50 52 54 55
25 26 26 25 25 23 23 24 25 25 25 24 23 23 23 24 24 25 27 29 30 32 34 38 39 40 38 36 38 38 38 38 39 40 42 45 48 50 51 52 53 55 56 59
23 22 24 24 23 22 21 23 24 25 26 25 24 23 24 24 25 27 31 33 34 37 40 41 42 41 38 38 38 39 40 40 41 44 46 49 51 52 54 57 60 61 62 60
29 27 25 24 24 25 29 30 30 30 29 27 26 25 29 30 31 32 34 37 41 42 39 40 41 39 38 38 39 41 43 45 47 49 51 53 55 57 58 58 59 59 59 59
28 27 28 29 30 32 34 32 30 29 28 28 30 31 31 32 33 36 35 36 38 39 40 40 38 37 39 42 43 46 49 51 54 57 60 61 61 62 61 60 58 55 52 52
28 29 29 34 36 35 31 30 30 28 29 28 27 28 29 29 31 34 35 38 38 40 39 39 41 44 47 51 54 56 58 61 63 64 62 62 59 58 59 54 49 49 51 55
25 27 28 31 31 29 26 23 22 23 25 26 27 29 30 32 34 35 36 38 40 41 42 45 49 51 54 57 58 58 58 57 56 58 62 61 57 54 52 50 52 54 57 59
24 27 27 25 24 24 24 24 26 27 29 31 32 32 33 34 36 38 39 41 43 46 49 51 51 53 53 54 56 57 57 58 57 56 55 52 49 50 55 60 61 55 51 49
28 30 28 28 28 30 31 31 32 34 35 36 37 38 39 41 42 42 43 45 45 47 49 50 51 50 49 47 46 45 47 50 51 54 56 58 61 61 54 50 48 51 53 54

GFSNW_500_spd_024.txt.gz
Wind_Speed
84 83 80 75 70 66 60 57 47 43 41 39 38 38 38 35 28 23 21 18 15 14 14 14 16 16 17 18 19 19 20 21 20 20 19 18 17 15 15 15 13 12 11 10
84 85 86 82 76 69 64 60 53 47 44 40 43 42 40 36 30 25 21 18 16 16 18 20 21 22 22 22 21 21 21 21 20 20 18 16 15 16 17 17 16 14 14 14
84 85 84 86 80 74 70 62 56 51 47 44 46 45 41 36 31 26 22 18 15 14 17 18 18 19 20 21 20 20 18 16 16 17 17 18 18 18 18 19 20 20 19 22
78 78 77 84 82 78 73 65 59 52 50 50 52 47 41 37 32 27 25 18 12 11 12 13 16 17 18 18 18 18 16 15 15 16 18 20 20 21 21 22 23 25 24 26
89 81 82 78 76 76 73 67 62 56 51 53 54 50 45 39 33 28 24 17 11 8 10 11 11 13 13 15 16 16 15 15 16 16 17 20 23 23 22 24 26 28 30 29
95 78 78 77 74 76 72 66 63 57 53 58 56 50 45 40 35 30 23 17 11 8 8 9 8 9 12 14 16 16 16 15 16 17 20 22 24 22 25 28 29 33 36 37
89 88 79 72 68 69 68 63 63 59 57 60 57 52 45 42 37 31 24 19 13 9 6 5 8 8 9 11 12 13 14 17 19 19 22 26 22 24 28 32 34 38 41 43
85 76 74 65 65 62 61 59 59 59 59 62 57 52 47 45 41 34 27 21 16 10 6 4 3 6 8 9 11 13 15 17 19 21 22 24 25 26 28 33 34 39 42 45
72 71 63 63 63 58 54 54 54 56 58 61 56 53 48 46 41 36 29 23 18 14 10 7 4 4 4 6 7 11 14 17 19 20 22 23 24 26 29 33 37 38 41 44
65 61 59 59 56 51 48 50 51 56 57 58 56 53 49 47 43 36 30 26 20 17 15 12 10 9 8 8 9 11 14 17 19 21 25 28 30 32 34 38 42 44 45 46
55 55 54 52 49 45 46 48 48 54 56 57 56 51 49 45 41 36 31 29 24 21 19 17 16 15 15 15 16 17 20 23 25 27 31 35 35 39 42 44 45 45 46 46
53 51 50 46 43 41 41 44 46 48 54 56 54 50 47 44 41 37 34 31 28 26 23 20 20 20 20 21 23 25 26 29 31 32 33 39 43 45 46 45 44 43 43 44
47 45 42 41 40 39 39 40 40 43 51 54 51 48 46 43 40 38 35 33 29 27 26 26 25 26 26 27 29 30 31 34 35 37 38 43 45 44 43 42 42 41 42 43
43 43 41 39 39 38 40 35 38 33 38 48 47 46 43 42 40 37 34 31 31 30 30 29 30 30 31 32 33 34 35 38 40 41 40 41 39 40 41 41 43 43 44 44
36 41 40 37 35 34 33 36 42 30 33 38 44 45 43 40 38 37 35 33 33 33 32 32 33 35 36 37 38 37 39 41 42 40 39 39 39 40 42 42 43 42 43 44
41 41 37 34 32 31 37 35 42 32 30 37 38 44 42 40 38 37 36 36 35 35 36 37 37 38 39 42 41 40 36 37 38 38 39 41 42 42 42 42 43 44 45 46
38 33 32 34 34 36 42 40 35 32 33 35 38 39 39 39 40 39 38 38 38 38 39 39 39 39 41 42 42 37 33 34 37 39 40 42 43 44 44 44 45 44 43 44
33 31 30 33 35 39 30 44 39 34 30 29 32 35 37 38 36 36 36 37 38 39 39 39 37 39 39 40 36 34 34 35 37 38 40 43 44 44 45 45 44 45 48 50
36 36 35 36 35 32 29 36 37 34 31 31 30 30 28 32 33 35 35 36 36 37 37 36 36 37 38 36 34 36 38 38 39 41 41 42 42 43 44 45 48 51 53 55
31 30 32 34 30 29 27 28 29 29 28 27 26 28 29 30 29 31 32 33 34 35 34 35 36 35 34 36 37 38 39 41 42 42 43 43 44 45 47 50 52 55 57 60
27 27 30 29 30 29 28 28 29 30 29 26 24 25 24 24 25 27 30 32 33 36 35 35 35 35 35 38 38 38 39 41 43 43 43 44 46 49 52 55 58 60 60 60
20 25 24 24 24 25 26 26 25 23 21 18 17 19 22 25 26 29 30 32 34 37 35 35 39 35 34 35 36 37 37 38 40 43 46 50 53 56 58 59 60 61 65 64
20 21 20 23 26 25 23 21 19 18 18 21 23 26 27 27 29 31 31 33 35 35 40 41 34 32 35 37 38 39 41 44 46 49 53 55 57 59 61 61 61 59 54 52
26 26 29 30 31 27 22 21 22 23 25 26 28 29 31 31 33 35 36 37 37 37 35 35 35 37 38 40 42 44 48 52 54 56 58 59 57 53 50 49 52 55 55 56
32 32 32 30 26 25 26 28 29 29 31 33 32 29 27 26 28 29 32 35 37 37 37 38 39 41 44 47 49 51 52 53 55 54 51 47 46 48 50 53 56 58 60 57
25 30 31 28 28 28 27 28 28 29 26 24 25 27 29 31 32 34 34 35 36 37 40 43 45 47 49 50 51 52 50 46 43 42 45 47 49 52 54 57 58 58 57 55
30 29 29 26 25 25 25 25 26 27 28 28 30 31 32 34 36 36 36 37 39 42 44 47 48 49 49 48 46 41 39 41 44 47 49 51 54 56 57 57 56 55 54 54

GFSNW_500_spd_027.txt.gz
Wind_Speed
85 80 77 73 65 66 61 60 60 55 50 46 40 30 29 30 30 28 27 24 22 19 16 16 15 15 16 16 16 17 20 19 22 18 19 20 20 18 18 18 18 15 16 16
88 85 83 78 74 67 65 63 64 57 52 47 41 33 37 37 35 31 29 26 21 18 17 16 16 17 16 18 18 21 19 20 22 21 20 19 19 18 19 20 19 17 18 15
91 88 91 87 80 73 72 71 68 61 54 47 43 36 40 39 38 34 31 27 22 19 17 17 19 21 22 23 23 24 24 23 22 21 17 21 19 20 20 22 21 19 19 21
92 91 96 93 90 82 82 77 69 61 54 53 48 43 42 42 42 36 32 26 21 17 17 19 21 21 22 23 24 25 24 22 21 20 20 19 20 20 21 21 20 24 19 27
97 91 96 92 95 92 87 79 69 65 55 55 48 47 49 46 42 37 32 26 22 17 16 17 18 20 21 20 21 21 21 21 19 19 18 18 20 19 20 21 22 25 26 30
105 98 96 93 90 92 87 80 74 67 62 58 52 48 52 49 45 39 35 29 23 19 16 16 17 15 17 18 19 21 21 19 19 18 16 18 16 17 20 23 25 29 32 32
99 98 95 96 83 89 85 77 74 72 59 58 54 54 54 50 46 40 36 30 24 17 14 12 14 13 14 16 19 19 19 19 19 17 18 20 17 19 22 25 28 33 36 37
94 79 92 95 83 82 78 56 74 69 64 58 60 57 57 52 48 44 39 31 25 19 13 10 9 12 12 13 15 16 17 17 18 19 19 19 19 20 22 26 28 35 35 38
84 77 90 84 88 82 74 77 70 73 64 61 59 60 59 57 51 45 39 35 27 22 16 12 9 8 8 12 11 12 14 15 16 16 18 18 18 20 22 26 31 34 37 40
63 90 88 76 76 75 69 68 64 66 63 57 60 61 62 55 52 47 40 34 29 24 20 16 13 9 8 8 8 10 11 12 13 16 17 19 22 25 28 31 36 38 41 43
75 80 83 71 73 70 67 64 54 56 60 58 57 62 59 57 53 48 42 37 32 28 23 19 17 14 12 11 12 13 14 15 17 20 22 27 28 32 34 37 39 42 43 45
70 74 75 73 70 58 57 53 54 51 57 56 56 59 59 56 54 47 43 39 34 32 30 23 20 18 17 16 17 18 21 22 24 25 28 33 36 37 39 41 42 43 43 43
67 67 63 59 56 53 52 48 49 46 50 53 55 58 58 57 53 47 44 42 36 33 31 29 26 24 21 22 23 23 26 27 29 30 33 37 39 41 44 44 44 43 44 44
52 52 58 54 51 50 41 44 45 46 45 50 52 52 54 53 52 48 45 41 38 37 36 33 30 28 27 27 29 28 30 32 34 35 37 40 42 45 44 43 44 44 46 47
57 54 50 49 49 41 35 37 38 42 42 45 47 49 51 50 48 45 44 41 40 39 37 36 33 32 32 33 34 35 34 37 38 39 41 41 43 43 41 44 45 45 46 46
50 48 47 45 44 38 33 31 33 35 33 36 45 47 48 48 45 44 42 39 38 38 37 37 36 35 37 38 39 39 39 39 41 42 41 42 42 44 45 45 45 46 46 47
44 43 42 40 40 39 35 33 33 30 30 33 38 43 46 45 43 41 40 39 38 39 38 38 39 40 40 42 44 41 41 40 41 38 40 44 41 45 46 46 46 46 46 45
41 40 39 38 37 34 33 35 41 35 34 30 32 40 45 44 41 41 41 40 40 40 40 40 42 43 43 45 43 40 39 40 39 40 41 43 45 45 45 46 46 46 47 48
38 38 35 35 38 36 36 37 44 42 34 31 34 34 38 43 42 40 41 42 42 42 42 42 42 43 45 42 40 37 37 38 39 42 43 43 45 47 47 47 48 48 49 51
36 36 36 36 34 35 39 33 33 49 41 30 33 37 37 39 39 39 39 38 39 42 41 42 44 44 41 37 35 35 38 41 43 45 46 46 46 47 47 47 48 50 53 56
37 34 33 32 38 38 34 37 42 41 36 34 32 32 33 34 34 34 37 38 40 42 42 43 43 42 35 34 36 38 41 44 45 44 44 45 45 45 47 50 53 56 57 58
32 35 32 30 33 36 34 35 38 36 37 31 27 26 27 29 31 33 35 37 39 43 41 40 42 36 35 36 38 41 44 45 44 44 44 45 47 49 52 54 55 57 59 55
30 32 32 33 30 27 26 29 26 22 17 19 22 24 25 26 29 31 33 36 39 39 40 41 38 36 37 41 42 42 43 43 44 44 47 49 52 53 54 57 56 49 47 49
21 28 29 31 27 26 23 19 19 19 20 21 23 26 27 28 29 33 36 38 40 41 41 39 38 40 40 40 41 42 44 45 47 49 51 52 54 56 53 46 45 48 52 54
22 24 26 25 22 24 27 24 22 22 22 24 26 28 31 31 34 35 38 40 43 42 39 36 38 41 42 43 44 45 47 50 51 53 55 55 51 45 45 48 51 53 56 58
31 29 27 27 29 26 24 24 24 25 26 28 30 31 33 37 38 38 37 36 36 36 38 39 41 43 45 47 48 50 52 53 54 54 50 45 46 48 51 53 55 56 58 60
28 26 30 35 31 30 29 29 29 30 30 31 33 34 32 31 33 34 35 36 37 40 42 44 46 47 49 50 52 53 53 52 47 45 46 49 51 53 55 57 59 60 61 61

GFSNW_500_spd_030.txt.gz
Wind_Speed
92 84 78 73 67 61 58 52 49 54 55 53 50 49 35 30 32 27 25 26 19 21 20 17 17 14 14 18 18 19 20 21 24 12 19 13 17 15 15 18 16 19 14 19
93 89 84 78 71 64 58 55 57 55 58 52 49 47 35 36 34 31 29 26 25 24 22 21 21 21 23 15 19 21 22 17 17 15 14 13 16 17 18 20 18 15 16 14
94 89 88 84 76 70 64 61 64 61 53 52 53 45 39 40 34 33 31 29 28 25 23 21 20 22 19 16 20 19 20 18 19 18 11 17 18 20 19 20 18 15 18 17
90 91 88 86 83 76 74 70 62 62 55 54 55 48 43 42 39 39 36 33 30 26 24 22 20 22 20 22 22 24 25 23 22 22 18 24 24 19 19 20 17 21 17 20
96 87 90 88 86 84 81 68 62 61 58 56 49 48 44 43 40 40 37 35 30 27 25 23 21 23 20 22 23 23 23 24 25 21 21 23 21 18 19 19 20 21 20 24
103 103 92 91 93 94 84 69 70 68 63 61 54 51 48 43 42 39 38 32 30 28 28 24 19 18 18 22 20 22 23 22 22 21 22 20 17 15 19 19 21 23 26 27
92 108 105 97 97 94 79 76 74 70 66 63 54 51 50 47 42 37 44 37 34 35 25 20 18 18 19 19 20 22 22 23 22 21 20 20 16 16 18 20 21 26 30 33
84 105 111 103 98 93 87 85 70 55 66 60 56 54 50 47 47 37 44 42 42 32 25 20 17 17 18 17 17 20 21 21 21 22 22 19 17 19 17 21 24 28 29 31
67 100 110 105 99 92 89 84 68 55 55 54 54 55 55 50 54 46 50 45 39 33 27 20 16 14 16 17 15 16 18 19 21 19 20 19 20 18 19 21 25 26 27 32
58 95 105 97 97 92 87 76 63 58 45 45 59 54 57 52 58 56 49 45 41 35 27 23 17 15 13 11 12 15 16 17 18 17 17 15 18 15 20 23 27 30 33 36
62 96 100 88 96 87 86 66 56 27 44 50 54 51 58 56 60 58 50 48 45 38 31 26 21 18 14 13 12 13 14 13 13 15 16 19 20 24 25 28 31 34 37 40
72 95 78 88 82 82 73 70 48 35 36 45 63 57 60 59 50 57 50 45 42 36 32 29 25 22 20 18 16 16 17 16 17 19 21 24 27 27 31 32 34 38 41 43
90 76 81 78 78 71 65 54 54 43 60 45 60 56 57 60 60 55 54 51 47 40 38 32 30 27 23 22 21 22 21 21 22 23 25 30 32 33 36 36 40 43 44 45
56 67 70 72 73 68 79 56 63 36 34 40 58 53 54 55 56 55 50 50 45 39 38 37 36 32 28 26 27 27 27 26 28 29 31 34 38 40 40 42 44 46 45 47
69 66 66 67 65 65 47 61 38 45 48 46 52 50 47 52 57 53 52 50 49 46 43 41 38 34 32 31 33 33 33 33 35 36 37 37 42 43 45 47 47 46 46 46
66 66 63 69 68 70 56 38 34 44 42 42 49 49 46 47 50 53 51 48 47 48 48 45 42 37 37 37 37 38 38 38 40 42 42 45 46 45 45 45 47 47 47 48
60 55 53 61 59 48 41 36 35 39 41 38 38 40 43 44 47 49 49 47 48 50 47 45 43 41 41 41 41 41 41 42 43 43 45 49 48 47 46 46 46 48 49 49
54 56 56 52 47 39 43 39 33 33 36 38 36 35 39 44 45 48 48 44 44 46 43 44 43 43 43 44 44 44 44 46 45 45 45 48 49 49 47 47 49 50 51 50
52 52 52 44 39 32 28 24 27 29 32 31 31 31 35 40 41 43 44 43 41 42 44 45 44 44 46 45 45 46 47 48 46 45 47 47 46 47 48 50 51 50 49 49
47 48 49 42 40 37 34 30 35 27 27 32 27 28 31 36 39 40 41 41 42 44 45 45 45 45 46 47 46 46 45 46 45 47 47 47 48 48 50 50 49 49 50 51
44 46 49 43 40 34 32 32 42 37 29 32 29 26 30 31 37 37 41 42 44 44 44 45 45 46 44 43 43 42 42 44 46 48 49 50 51 52 51 50 50 52 54 56
38 37 39 40 34 25 31 31 36 47 40 37 30 24 27 33 36 38 40 41 43 45 45 46 47 44 41 39 39 41 43 45 48 49 50 51 51 50 50 51 53 55 58 61
33 33 33 33 33 36 34 35 26 27 25 32 36 34 28 31 33 36 37 40 42 43 46 47 45 40 38 38 41 43 45 46 48 49 49 49 49 50 52 53 56 59 61 60
29 30 31 32 31 31 25 22 24 22 25 28 32 33 31 29 31 34 36 38 40 42 42 40 37 39 41 42 44 45 47 47 47 47 49 49 50 52 55 57 60 59 54 50
26 24 27 27 31 26 24 25 26 25 22 23 24 26 28 30 32 32 33 36 37 38 38 38 40 42 44 44 44 44 45 46 45 47 50 51 54 56 58 57 52 50 52 55
24 21 21 24 27 27 24 23 25 24 24 24 24 26 28 29 31 33 36 37 39 39 41 43 41 40 41 42 43 45 47 48 50 52 54 56 57 55 51 49 51 54 58 60
25 27 21 22 23 24 24 25 25 27 30 28 28 29 31 33 35 35 37 39 40 39 37 38 40 40 43 46 48 50 51 52 54 56 56 52 49 49 52 54 58 60 62 64

GFSNW_500_spd_033.txt.gz
Wind_Speed
94 89 82 75 71 68 66 61 58 54 54 53 50 42 41 32 34 34 29 25 23 21 16 12 14 13 13 17 20 20 19 23 18 9 11 11 15 15 17 18 15 18 12 13
98 94 88 80 74 70 67 62 58 58 56 52 48 46 43 36 38 37 33 25 25 26 23 24 19 19 18 22 21 16 20 21 16 14 15 15 17 18 19 19 17 14 14 12
99 97 92 85 78 74 70 67 64 60 57 49 51 51 42 39 40 40 34 27 27 31 30 28 25 25 24 19 20 20 20 20 18 19 19 21 19 18 19 22 22 13 13 13
91 99 96 89 84 78 76 72 62 58 55 54 56 57 46 43 44 43 36 32 35 33 30 32 29 27 24 19 17 19 22 23 22 22 21 26 21 22 19 18 20 18 12 16
92 97 99 92 87 85 83 74 59 55 52 54 56 58 49 46 46 43 37 35 37 36 32 29 26 25 24 21 23 25 27 27 28 26 25 26 25 21 20 17 15 17 15 17
84 95 94 95 93 92 86 73 64 55 55 57 57 55 45 43 46 41 37 34 36 38 34 31 29 27 25 23 23 24 25 26 27 25 25 24 23 15 21 17 18 19 20 24
63 93 99 94 97 94 84 74 69 61 59 59 55 49 44 46 48 45 41 37 38 41 35 32 29 25 23 20 20 23 23 26 26 23 24 24 19 19 17 18 20 22 25 26
54 76 97 103 100 94 85 77 72 68 67 60 58 50 44 49 49 46 41 42 43 41 35 33 30 26 23 21 23 22 23 23 24 24 24 21 20 19 16 20 23 24 24 25
48 64 90 102 100 91 85 83 79 74 66 59 56 56 48 52 51 50 47 47 40 43 40 36 31 24 20 22 21 22 22 21 24 22 22 22 22 21 19 23 26 22 22 24
36 42 79 95 102 91 88 86 81 73 56 59 45 56 51 50 51 49 46 42 46 46 40 34 30 24 22 21 18 20 20 18 19 20 21 20 20 19 22 22 22 20 24 27
53 45 57 93 101 93 89 85 78 74 55 43 47 47 52 51 51 51 49 48 52 48 40 38 33 26 21 18 16 16 16 17 17 17 17 18 17 17 19 21 22 25 28 32
37 43 64 93 99 93 84 81 76 73 43 33 38 43 51 46 49 54 47 43 37 39 42 39 33 28 24 21 18 17 16 15 15 17 17 18 20 21 21 23 25 29 33 35
39 44 61 91 93 85 82 73 67 52 40 41 35 42 53 47 52 50 49 50 43 44 44 40 36 33 28 25 21 22 19 18 19 20 22 22 24 24 26 28 31 35 38 41
41 51 72 91 87 78 72 69 58 40 43 50 44 50 54 60 56 53 50 54 50 45 45 45 40 36 33 28 27 26 24 23 23 24 26 27 30 32 34 37 39 40 44 45
51 63 82 83 78 81 73 64 61 52 28 34 57 51 56 55 51 44 37 49 51 43 43 47 46 42 37 33 32 31 30 29 29 31 31 32 35 37 40 42 45 48 48 48
68 79 93 74 76 70 63 58 29 32 35 32 52 49 48 55 56 51 47 38 41 47 51 50 48 44 39 38 37 35 35 35 36 37 38 39 39 41 43 47 50 49 49 48
85 80 75 71 72 71 56 32 32 31 36 43 48 47 51 50 44 46 50 53 50 49 50 53 50 47 45 44 42 40 40 40 40 42 43 43 43 45 49 50 50 50 49 48
69 66 67 67 62 72 45 31 28 25 28 32 35 33 37 40 37 38 40 44 47 48 50 49 49 48 49 49 48 46 45 44 43 44 46 48 49 51 51 51 50 48 48 49
68 70 69 65 38 48 30 30 23 20 20 20 24 27 33 38 41 37 35 37 40 45 47 49 47 47 49 49 47 46 47 47 47 47 48 50 52 53 54 52 51 50 51 53
66 62 53 39 42 26 46 25 23 23 23 26 28 28 28 30 34 36 36 37 40 43 45 45 46 46 46 46 46 47 48 48 48 49 50 50 52 53 51 51 52 53 54 55
59 57 53 55 43 26 25 36 28 27 26 26 25 28 28 29 30 30 33 36 38 40 42 45 47 45 44 44 45 46 47 48 49 50 51 51 51 51 51 53 54 54 55 55
45 44 43 45 30 25 28 29 25 23 25 27 30 27 25 24 25 28 31 35 38 41 42 45 46 43 42 43 44 44 44 46 48 50 50 50 51 52 53 53 54 54 53 54
39 42 44 26 28 29 29 28 26 29 28 25 22 26 23 22 22 24 27 30 35 39 43 44 42 42 42 42 41 42 43 45 46 48 50 51 52 52 52 52 53 54 55 57
45 46 39 37 29 38 30 27 25 28 35 31 29 27 26 25 25 25 27 30 35 40 40 39 38 39 40 40 40 41 43 45 47 49 50 50 50 49 50 50 53 56 59 61
38 42 48 43 34 34 26 18 24 18 18 26 27 27 29 30 31 32 33 35 37 38 36 36 36 37 38 40 42 45 46 47 47 45 45 45 47 51 53 55 58 59 58 56
24 27 23 25 29 28 26 21 23 19 18 23 26 27 29 29 30 30 30 31 33 33 34 36 39 41 41 43 46 46 43 42 42 44 47 49 52 55 57 58 57 55 54 55
20 22 18 17 19 22 25 20 20 21 23 25 25 24 25 25 28 30 31 33 35 38 39 40 41 43 43 40 40 41 41 43 47 50 54 57 57 56 54 53 53 54 58 60

GFSNW_500_spd_036.txt.gz
Wind_Speed
95 91 87 82 78 74 73 69 65 62 62 59 53 48 46 41 35 38 36 34 29 25 20 21 20 22 20 21 23 26 18 18 19 8 7 14 19 16 18 20 19 21 20 16
86 95 93 89 84 79 76 72 68 70 66 61 51 48 45 40 40 41 39 35 30 26 22 23 24 22 19 21 19 19 16 19 18 20 21 17 18 18 21 23 23 21 21 14
70 91 98 94 88 83 79 78 76 73 69 59 53 50 46 41 41 43 40 36 31 29 24 27 26 20 21 22 19 19 17 18 17 16 17 23 23 21 21 24 23 21 17 18
47 86 101 99 94 89 86 85 79 70 66 64 58 54 50 46 47 46 45 40 35 30 28 30 31 27 27 25 23 23 24 23 21 19 22 23 25 22 25 26 22 24 18 24
41 60 103 105 98 94 92 85 76 67 62 58 58 55 51 51 49 50 49 38 35 32 34 32 30 30 26 25 26 23 20 22 24 24 24 26 30 29 23 24 22 20 19 22
41 50 96 107 105 101 94 86 76 68 62 60 61 55 50 51 49 51 49 39 39 35 34 34 32 28 28 27 28 26 26 28 29 31 30 32 35 27 26 25 27 24 23 23
38 43 81 108 107 102 96 86 78 69 63 62 56 57 55 49 49 51 48 41 39 34 41 36 33 34 34 31 29 27 27 28 28 30 30 35 27 27 27 25 24 24 23 23
36 37 66 98 106 104 97 88 80 71 63 56 58 60 61 49 49 53 47 43 37 38 42 41 41 39 37 34 30 27 27 27 26 27 28 29 26 25 24 23 23 23 22 21
33 36 51 80 98 102 96 88 78 71 65 55 61 61 55 52 53 53 53 49 45 42 42 43 42 40 37 33 28 26 25 27 28 25 25 26 22 23 24 23 26 21 21 23
35 36 42 64 90 97 92 87 81 73 67 64 61 60 56 49 57 56 53 53 48 47 43 43 43 42 37 34 28 25 25 25 25 24 25 24 19 22 25 26 21 21 23 25
35 33 37 57 81 94 93 88 83 75 69 67 63 65 50 54 53 56 52 52 50 49 49 46 45 41 36 31 26 23 25 24 22 21 20 18 19 21 22 21 20 19 23 26
33 34 36 56 78 92 92 89 82 74 68 67 48 46 56 53 53 55 55 48 47 45 44 45 44 42 36 32 27 27 23 20 20 19 16 17 17 16 17 18 20 23 26 29
42 39 36 57 76 89 90 87 79 70 58 43 44 44 37 56 50 52 52 47 49 46 46 47 44 38 34 35 29 27 24 21 20 20 17 18 18 18 20 22 25 28 31 34
37 48 46 46 74 87 88 84 81 78 63 33 24 33 40 41 52 52 50 47 46 46 39 47 41 41 38 36 35 32 29 27 24 23 20 22 23 24 27 29 31 34 37 40
32 33 38 57 76 88 88 80 65 75 65 43 33 30 35 41 45 50 50 50 50 44 48 39 41 45 41 41 40 38 33 31 28 28 28 28 30 32 33 36 39 42 44 46
31 35 45 67 80 87 84 56 49 61 57 38 36 30 30 37 44 47 48 52 47 45 50 47 47 41 43 44 45 41 38 35 33 32 33 35 36 37 39 41 44 46 48 49
35 51 58 71 80 76 67 62 50 46 37 24 35 34 29 38 42 40 31 44 44 43 47 48 41 42 46 47 46 45 44 41 39 37 37 39 41 43 44 46 48 50 50 51
60 63 66 74 78 70 54 52 53 44 36 24 34 32 41 54 55 55 59 53 47 36 46 52 53 49 49 47 46 46 47 46 46 45 45 46 46 47 48 50 51 51 53 54
73 74 74 71 68 62 44 42 43 42 34 25 27 43 50 42 41 45 46 41 47 43 36 39 40 40 45 49 48 46 48 49 50 50 50 49 49 50 51 51 52 53 53 54
76 76 64 63 56 55 57 40 32 29 29 30 34 47 48 39 26 30 39 38 38 41 43 46 47 45 45 48 47 46 45 47 47 47 50 51 51 50 51 52 53 54 54 54
62 58 51 59 40 27 23 24 28 22 17 15 15 22 24 29 31 32 38 41 39 38 37 38 38 37 39 42 43 43 44 45 47 48 48 48 49 50 52 53 53 54 54 55
62 53 41 40 33 24 29 24 17 12 15 18 18 23 28 30 32 33 37 41 41 41 39 38 38 39 41 41 42 44 44 45 45 46 47 49 50 51 52 52 52 53 55 55
41 39 31 32 46 25 19 20 21 22 20 22 23 25 25 27 28 31 31 32 35 35 36 37 36 36 37 38 41 44 45 46 48 49 49 49 49 50 51 52 54 55 54 52
30 23 23 30 25 15 14 14 14 14 14 16 15 24 27 25 20 23 25 27 28 32 33 32 31 33 36 37 40 42 43 43 43 44 45 47 50 52 53 53 52 50 52 56
26 24 27 30 14 12 25 16 12 14 14 18 23 20 24 26 28 25 25 27 28 26 28 30 33 34 34 35 35 37 38 40 43 45 47 50 52 51 49 48 51 55 57 58
29 29 30 36 25 23 13 15 15 12 17 16 18 21 26 27 27 29 31 31 31 30 32 33 33 33 34 35 38 41 44 46 47 49 50 48 46 46 49 53 55 56 57 63
22 25 31 33 30 31 28 29 25 23 20 21 18 19 22 26 29 31 32 33 31 30 29 30 31 35 39 42 44 45 46 48 47 47 48 48 50 52 54 57 62 61 58 57

GFSNW_500_spd_039.txt.gz
Wind_Speed
82 90 90 90 86 83 81 75 71 64 62 63 54 48 49 49 38 43 45 43 36 26 24 25 22 20 22 20 23 27 27 28 26 19 23 19 24 28 28 25 23 25 22 18
52 87 93 92 91 87 83 79 76 72 69 66 52 49 51 47 45 46 46 42 41 34 30 28 22 24 24 24 23 24 22 25 27 23 22 18 14 14 18 24 24 21 23 16
49 58 91 96 94 90 88 85 84 79 77 62 56 54 51 51 43 46 49 45 44 35 30 28 25 26 25 26 23 21 23 21 25 23 20 21 23 19 24 26 29 23 23 20
52 45 67 96 96 95 92 92 87 79 76 67 58 57 52 51 56 51 50 47 45 36 33 30 27 25 23 24 23 23 24 23 20 17 18 22 24 26 29 28 25 26 23 24
53 50 44 81 100 98 97 94 88 81 73 69 66 61 56 54 51 56 53 47 44 39 36 31 28 27 26 27 23 23 22 24 23 22 21 23 27 28 29 25 26 29 28 28
52 52 47 46 84 101 101 96 88 84 77 72 73 59 55 51 48 48 47 45 44 41 33 32 33 30 28 27 27 26 25 25 24 25 26 28 31 29 30 31 31 32 34 30
51 51 48 47 53 87 103 95 89 85 79 75 65 62 60 55 50 48 47 48 49 41 39 37 38 34 32 34 33 28 28 28 28 30 31 35 28 30 32 34 33 32 35 28
51 53 48 44 42 60 91 98 92 87 82 73 68 66 63 60 52 54 50 52 48 43 43 43 41 42 38 36 34 31 30 31 32 33 32 31 29 28 29 29 31 28 27 26
51 51 48 44 44 49 73 99 94 89 83 73 69 68 66 61 56 56 54 61 57 50 50 50 47 43 41 40 37 34 30 32 33 33 33 32 24 28 25 28 30 25 23 22
49 46 46 46 46 47 67 86 95 89 85 77 71 68 66 62 60 58 56 63 61 55 56 50 48 46 41 46 37 32 32 32 34 33 33 30 24 25 28 29 20 21 23 25
44 42 44 42 42 48 71 83 94 91 85 78 71 69 67 64 61 59 58 64 62 59 58 50 49 47 42 43 38 35 33 32 32 31 30 28 22 25 24 20 20 20 23 25
40 39 36 33 35 50 74 84 93 91 83 74 69 67 67 62 55 58 58 61 61 59 55 52 47 45 41 37 39 36 33 32 32 29 26 24 20 20 19 18 19 20 22 24
36 36 33 30 34 60 77 80 87 83 77 74 69 64 69 60 54 56 61 62 58 53 51 48 50 46 41 36 35 33 34 33 31 28 23 20 18 17 18 19 21 23 24 26
34 33 32 34 43 69 68 80 84 81 74 57 71 56 42 56 56 54 61 61 59 56 52 50 49 43 41 40 36 36 34 35 31 29 25 22 22 22 22 22 24 26 29 31
28 36 38 44 57 75 73 80 81 73 65 69 55 57 29 35 55 58 55 59 57 55 58 55 51 49 45 43 43 41 38 35 34 30 30 30 28 28 27 28 31 33 35 37
23 30 45 51 68 76 78 80 74 65 60 46 46 46 37 31 48 53 56 52 52 53 53 53 50 45 43 46 39 41 42 38 37 35 35 34 34 34 35 36 37 39 41 43
24 31 55 55 52 71 80 82 80 76 56 42 43 39 41 41 42 47 50 49 49 52 52 49 46 44 45 42 41 41 43 42 43 41 40 40 40 40 41 42 44 47 48 50
38 39 53 49 48 70 77 73 70 64 65 51 45 40 37 38 38 40 44 49 47 47 49 53 53 51 45 46 44 47 42 42 43 43 44 44 44 45 46 48 50 51 52 53
40 51 51 62 66 64 56 52 54 60 59 35 21 25 28 30 26 31 38 43 47 48 54 49 45 45 47 49 46 48 39 37 41 43 45 47 47 49 50 50 51 52 52 53
47 56 61 67 66 63 52 45 39 44 61 34 22 22 28 31 23 32 43 41 46 52 41 46 45 37 43 45 50 44 34 39 41 44 45 46 47 48 48 51 51 50 51 52
64 61 60 56 60 41 36 28 28 37 50 42 28 26 29 33 28 41 43 40 34 39 37 40 46 49 35 35 41 44 46 48 46 46 46 47 47 47 49 50 50 52 53 54
68 62 61 54 46 39 36 39 21 23 36 41 33 29 27 33 40 44 28 24 29 34 41 43 40 38 38 36 38 39 39 38 39 41 43 42 44 48 50 52 53 54 54 55
57 56 42 35 25 23 24 35 22 18 14 13 15 16 20 21 27 31 34 40 37 34 39 43 41 37 38 39 40 39 41 43 43 42 44 46 48 50 52 52 51 52 53 55
27 21 19 20 29 29 20 19 13 12 14 11 12 18 24 27 29 32 33 34 33 32 35 36 36 36 36 36 35 36 38 40 41 42 43 45 47 49 48 48 51 53 56 57
23 22 23 26 19 15 15 11 8 6 6 6 6 11 16 23 26 26 26 26 29 30 29 29 28 29 29 32 35 38 38 39 41 43 44 44 45 47 50 52 54 55 55 54
10 5 8 20 12 9 4 8 9 11 8 9 11 14 17 19 24 26 23 25 26 25 25 26 28 30 34 37 39 40 38 36 37 40 44 49 51 51 52 53 53 53 54 56
13 10 9 8 14 21 9 9 13 11 13 13 13 14 14 19 27 33 35 33 28 27 28 30 33 35 38 37 35 36 38 42 46 49 52 52 53 51 52 53 54 55 59 61

GFSNW_500_spd_042.txt.gz
Wind_Speed
62 59 52 90 92 90 88 83 78 71 68 71 63 53 48 48 42 43 41 41 43 37 34 33 29 23 19 19 17 18 18 27 28 25 24 25 26 27 27 27 27 28 29 20
62 62 56 61 94 92 89 86 82 79 75 75 61 54 51 50 43 47 42 41 43 41 39 36 30 23 19 22 22 19 17 23 27 26 28 28 28 29 29 32 31 27 23 10
63 63 57 50 79 94 90 90 91 86 81 69 64 58 52 50 47 48 47 44 44 42 37 36 31 24 24 25 26 25 23 22 24 24 24 24 29 24 20 23 26 19 17 18
62 63 58 51 58 93 92 95 94 86 84 74 63 63 57 52 48 52 49 48 47 44 40 39 30 27 23 26 28 27 26 23 21 20 25 28 31 32 30 28 25 25 19 22
63 62 61 52 48 74 91 95 92 88 77 72 71 67 58 54 50 52 54 50 43 43 39 37 31 29 25 26 28 30 29 22 21 22 23 24 26 25 27 29 29 25 27 25
65 59 59 55 52 58 87 94 90 88 81 79 76 63 61 57 51 53 53 42 38 45 37 36 36 35 32 29 30 27 26 24 25 25 25 26 26 22 26 29 28 30 30 26
64 59 57 56 51 43 64 88 91 89 87 83 70 69 65 61 52 49 50 46 45 44 39 42 40 37 35 32 32 33 30 28 29 28 27 29 21 22 27 31 31 34 34 32
61 56 53 55 51 44 41 64 91 90 87 78 77 74 69 65 57 53 49 47 43 46 45 45 44 44 40 39 34 34 31 29 31 31 27 29 25 24 26 30 31 32 33 33
56 55 52 52 50 44 39 50 79 91 88 83 78 76 72 67 58 56 50 47 44 47 49 52 49 49 45 45 36 34 35 33 34 30 29 29 27 27 29 33 30 26 28 27
52 50 49 50 46 43 36 43 66 84 87 85 81 77 71 68 59 55 53 49 48 49 52 57 52 51 48 46 40 35 34 33 34 29 30 30 29 30 31 33 22 26 25 25
47 47 47 48 47 43 34 33 56 77 86 85 82 79 75 70 64 58 55 54 56 57 57 56 57 53 49 47 42 38 34 34 32 30 32 29 28 30 29 27 26 26 25 26
44 42 43 49 47 43 38 34 40 67 81 85 83 79 74 69 66 60 57 55 56 57 59 60 58 55 50 48 45 39 36 34 36 32 29 29 28 26 26 25 23 22 23 24
41 39 43 47 45 40 35 31 36 57 75 83 81 78 77 72 65 63 60 59 61 61 58 57 55 51 52 47 45 40 32 36 37 32 29 27 26 24 23 22 20 20 19 20
38 40 42 42 39 36 34 34 37 50 71 81 80 78 74 69 63 60 59 58 60 60 59 56 56 51 51 50 48 40 31 33 34 36 31 27 25 25 26 23 22 22 22 23
31 35 36 35 35 33 30 43 49 47 65 77 77 73 71 63 58 56 57 58 61 60 57 54 52 50 53 52 51 47 34 31 33 33 27 33 29 28 28 28 27 28 29 30
32 33 33 35 34 32 35 59 52 49 43 61 71 68 64 47 43 51 52 54 56 61 58 51 52 52 54 52 49 42 38 36 34 38 36 37 35 33 32 33 33 33 35 37
29 33 34 35 35 34 42 68 55 40 37 44 59 53 54 40 31 34 52 55 52 52 58 53 48 50 47 50 49 46 41 38 38 37 42 42 40 37 39 40 40 41 42 45
27 34 38 37 35 54 60 63 58 47 45 42 41 39 39 28 18 32 40 49 53 50 48 54 49 50 53 56 51 48 45 42 45 40 41 42 43 45 44 46 48 48 49 50
31 32 30 31 50 59 57 60 55 38 43 55 48 34 36 48 17 31 37 43 42 46 50 46 48 47 49 48 48 44 44 42 44 43 38 38 42 45 44 44 47 50 50 54
45 38 47 54 54 59 58 29 46 41 40 44 40 46 42 53 48 30 30 32 42 41 45 46 44 46 47 47 46 47 41 51 50 47 48 42 41 42 43 45 47 47 49 38
43 40 36 49 54 55 42 25 29 48 45 47 42 40 32 37 37 35 31 34 35 38 41 47 49 49 48 48 47 52 49 48 44 49 47 46 42 42 45 47 48 48 43 56
40 44 44 59 49 32 32 38 40 41 43 42 24 19 20 20 28 24 13 29 39 39 46 46 47 52 48 33 41 44 42 38 39 45 48 50 45 42 43 43 49 44 45 52
49 55 47 46 38 31 30 27 20 14 21 33 37 28 16 14 21 26 20 24 39 42 50 37 38 44 44 41 35 28 30 33 33 35 38 41 42 43 42 41 46 54 54 55
49 44 42 35 24 25 30 19 13 11 17 22 28 27 23 18 26 32 30 34 32 25 27 30 30 28 26 27 30 31 34 37 38 38 39 35 38 38 43 46 51 53 51 50
37 33 23 24 23 16 13 14 17 13 14 12 11 16 17 16 18 21 20 18 25 30 27 25 25 26 26 28 31 33 34 35 37 36 36 37 41 45 48 48 46 47 52 56
21 21 23 23 21 19 20 17 9 10 11 9 9 10 12 14 17 21 23 27 28 25 24 23 24 24 26 27 29 31 34 36 38 39 40 41 41 41 42 44 49 56 58 59
15 17 15 13 13 14 10 8 7 6 4 4 6 7 10 13 17 17 18 22 25 24 23 25 27 29 30 30 33 36 38 40 41 41 41 42 43 46 51 56 59 61 60 60

GFSNW_500_spd_045.txt.gz
Wind_Speed
73 69 62 60 63 56 66 86 84 80 79 77 73 67 57 54 50 45 43 41 46 45 37 32 32 28 21 22 20 18 19 19 24 26 27 25 27 28 27 27 25 25 26 22
72 70 67 63 64 62 58 79 84 83 83 82 74 64 62 58 53 49 47 43 43 46 42 40 36 29 25 26 23 20 20 18 20 28 27 28 28 27 27 24 24 27 31 21
74 71 66 65 64 67 59 60 86 88 88 79 70 70 66 61 55 53 52 46 45 45 45 36 34 27 26 28 25 23 24 21 20 20 21 24 27 27 28 30 30 29 26 15
62 68 69 66 65 69 67 60 76 91 90 86 74 70 66 64 57 53 53 49 48 45 40 39 35 30 27 29 26 26 26 21 21 19 20 27 29 33 33 31 30 31 25 25
57 65 69 67 67 68 67 62 58 86 87 77 80 77 67 65 58 54 52 50 47 44 42 39 36 32 31 30 29 30 28 24 24 21 24 25 28 31 30 30 29 29 29 23
54 65 67 67 67 68 67 56 47 74 87 85 84 74 68 66 60 54 49 50 46 43 40 40 38 39 36 33 33 32 31 28 25 23 23 25 25 19 18 22 22 23 24 23
56 63 60 65 62 62 60 51 44 68 87 87 80 74 71 68 58 50 48 46 47 38 35 43 42 41 39 38 34 32 30 27 25 26 26 29 14 17 19 18 21 26 25 26
62 60 57 62 59 60 57 44 34 59 83 82 79 79 73 71 63 55 50 45 42 40 36 43 44 45 42 39 37 34 29 27 31 31 30 28 22 16 19 21 18 24 26 29
57 50 54 58 58 58 50 38 33 50 75 81 81 79 77 74 64 60 54 49 46 47 47 45 49 49 44 43 42 38 31 29 33 36 35 31 16 19 20 21 17 20 28 30
49 46 52 58 53 52 46 39 34 44 67 77 81 81 79 75 68 61 57 51 48 47 49 48 49 55 52 44 44 39 33 32 33 32 35 30 21 21 21 22 23 24 27 29
42 47 49 54 49 46 45 41 34 38 65 74 81 81 82 79 72 63 58 55 52 48 55 57 55 57 53 48 43 37 36 34 33 32 33 32 21 23 24 24 23 24 25 25
42 43 44 46 44 44 44 40 33 32 56 56 77 81 80 78 74 67 60 52 48 49 50 58 57 56 54 50 44 41 41 35 33 33 29 27 25 23 23 22 24 23 22 22
39 40 44 42 41 41 37 34 29 29 55 56 53 73 78 75 72 66 62 56 50 53 51 51 50 51 46 49 48 38 40 39 37 34 33 29 28 27 25 25 23 22 21 20
38 41 40 38 36 34 33 30 24 29 50 63 52 51 61 69 70 64 61 57 54 54 55 54 53 51 43 42 42 43 44 42 38 36 29 27 30 30 33 27 25 23 23 23
39 37 35 33 31 32 30 29 24 26 41 60 44 52 45 52 53 57 59 55 56 54 55 56 56 54 48 42 43 43 44 43 41 36 25 28 27 32 34 30 27 26 27 27
34 33 32 31 32 31 29 24 24 21 30 46 64 59 53 39 55 49 47 51 54 55 54 54 54 51 48 47 45 43 45 45 44 42 36 32 33 36 38 35 33 32 32 33
31 31 31 30 28 26 25 21 24 23 28 34 44 66 60 43 33 45 45 43 49 53 54 56 55 52 46 36 37 42 43 46 42 43 42 37 34 36 41 40 39 36 37 39
29 28 28 28 28 29 24 23 20 19 20 33 29 49 58 50 32 23 38 41 42 47 51 54 54 50 49 48 38 34 39 43 45 45 43 46 36 37 36 41 44 45 42 43
26 28 29 29 29 27 25 30 32 26 25 23 21 34 44 37 41 30 27 31 33 43 51 50 49 47 46 44 48 43 37 41 45 42 44 42 36 39 39 44 47 46 45 44
26 30 29 29 27 28 27 27 44 40 43 37 38 37 33 29 30 25 17 31 34 35 42 42 43 44 40 39 44 45 43 45 51 51 51 49 47 40 44 44 47 52 44 44
35 37 38 31 32 41 40 46 38 30 33 33 41 33 32 36 41 32 14 23 31 30 34 32 35 33 37 44 43 44 46 45 46 48 51 52 47 48 45 47 50 46 42 43
21 31 35 38 53 54 49 31 17 13 12 20 33 34 31 36 44 37 30 18 18 24 26 24 32 34 36 39 43 43 43 44 44 49 51 44 39 42 41 47 47 42 40 42
52 56 55 42 34 30 26 18 21 24 25 27 31 30 21 22 27 32 36 36 28 21 30 32 33 33 32 37 38 44 47 44 41 38 44 49 42 40 34 36 38 39 43 47
39 39 36 34 36 33 27 25 25 18 11 27 26 29 22 18 19 22 32 25 17 14 16 24 34 33 25 27 28 28 33 38 38 33 34 34 30 31 34 36 36 43 46 46
36 29 19 23 22 22 26 22 19 19 14 11 13 10 14 12 12 15 16 23 30 27 25 28 28 27 25 23 18 20 21 24 27 28 30 30 32 34 35 38 43 46 51 56
29 25 23 22 20 18 14 13 10 23 23 19 16 17 14 15 15 17 16 17 17 19 20 17 18 18 17 18 20 22 24 28 30 31 33 35 37 39 42 46 49 52 53 53
21 19 18 21 23 23 21 19 18 18 16 13 9 8 8 9 12 13 12 13 17 20 20 20 23 23 23 24 26 27 28 30 36 36 37 39 41 43 45 47 49 50 52 54

GFSNW_500_spd_048.txt.gz
Wind_Speed
72 69 69 66 64 63 60 64 61 50 76 83 84 80 62 62 62 58 53 50 50 46 39 43 47 42 28 28 29 28 23 25 24 21 24 25 27 29 30 28 26 25 25 22
80 82 78 74 69 70 66 63 64 62 70 86 85 71 71 69 66 62 54 50 49 46 47 43 44 36 33 33 32 29 26 27 25 25 25 26 26 27 28 30 30 25 25 23
66 69 69 70 75 74 70 67 70 73 64 73 81 76 77 74 68 64 56 50 48 49 50 46 41 38 36 34 33 31 30 29 25 23 19 21 25 26 28 29 34 28 27 26
58 57 58 55 62 72 74 72 71 70 58 62 79 83 76 74 72 66 60 54 52 49 47 49 50 42 36 34 33 34 35 33 27 22 21 25 27 29 29 32 33 33 28 26
55 59 55 60 56 66 72 75 66 62 61 53 72 82 82 78 73 67 60 52 50 46 45 42 45 44 42 41 36 36 37 33 29 26 23 25 28 30 32 32 31 28 28 25
57 56 59 59 54 65 67 70 62 59 62 50 69 82 79 77 73 68 59 50 48 48 44 36 40 45 43 41 39 38 38 35 30 26 24 26 30 28 28 24 23 22 20 16
59 56 59 62 55 67 61 61 60 58 62 55 50 70 76 78 73 69 64 60 53 50 43 45 38 39 43 43 40 39 38 35 31 29 27 31 21 20 21 22 21 22 21 19
58 56 62 63 60 62 59 61 61 59 62 52 45 70 78 79 78 76 67 59 52 47 47 49 49 40 47 44 42 40 38 37 34 33 28 27 24 22 21 21 17 21 21 22
55 55 60 62 57 58 56 58 59 55 53 51 42 64 80 80 79 77 65 61 54 47 50 54 52 52 42 47 44 41 38 35 36 34 33 30 19 21 22 23 13 20 21 20
47 58 57 62 51 52 60 58 54 46 49 46 45 59 80 81 80 73 65 59 50 44 47 50 45 48 51 48 45 45 41 37 36 32 33 26 17 22 22 28 16 24 22 22
57 55 64 48 50 50 56 52 45 46 49 42 44 51 78 84 76 67 65 62 52 48 47 54 48 45 50 49 46 44 44 40 36 34 34 28 13 20 27 22 26 25 24 22
45 47 46 47 47 51 50 46 45 44 37 31 37 51 60 76 76 64 67 58 53 50 49 52 55 48 46 50 50 46 50 42 39 36 34 27 21 20 23 27 26 28 25 23
44 45 44 42 45 46 44 43 38 33 25 26 35 48 62 54 59 74 64 60 54 51 48 47 48 54 52 51 52 50 46 40 39 39 34 27 24 23 25 28 30 31 27 25
37 40 41 39 39 43 40 39 33 30 25 25 26 34 59 63 63 67 64 61 55 52 53 51 48 49 52 52 49 48 48 47 41 40 35 28 26 23 26 30 35 32 29 27
38 37 38 40 42 39 36 33 30 26 22 32 34 27 38 54 60 59 58 57 56 52 54 54 50 46 43 42 45 45 42 46 47 41 31 31 27 27 32 33 35 35 34 32
34 40 42 39 36 34 33 31 27 19 30 46 38 37 40 33 22 38 58 54 56 55 54 52 50 46 45 41 39 34 33 37 43 45 41 38 38 33 30 34 36 34 35 35
40 40 38 35 33 31 28 23 18 18 38 37 37 47 37 32 30 23 39 53 52 51 52 53 49 45 46 44 36 32 32 33 35 39 42 42 40 39 39 39 38 35 36 41
35 33 32 30 29 28 26 22 19 19 25 55 42 37 36 44 32 27 35 37 41 44 49 49 49 48 47 47 39 34 31 30 31 35 42 44 46 42 40 40 35 37 35 34
31 30 28 29 29 25 21 17 17 21 29 51 43 50 49 38 25 23 22 31 38 32 39 42 42 44 49 45 36 33 36 39 38 34 33 41 42 42 43 43 40 40 34 34
29 32 33 33 29 24 20 16 16 19 26 28 48 43 40 36 29 26 22 20 24 35 30 29 39 41 40 38 35 31 31 33 38 40 43 39 40 45 45 52 52 44 41 47
33 33 32 28 24 20 16 14 25 27 19 19 33 37 49 37 34 26 26 16 15 23 28 28 29 30 34 32 31 31 32 35 38 37 41 44 43 44 49 51 52 50 50 48
31 30 27 25 20 17 11 27 31 28 23 26 42 42 35 31 26 27 29 20 14 15 24 32 32 27 28 29 31 33 32 35 40 42 41 40 45 47 47 48 49 49 49 48
32 30 26 21 17 12 24 29 21 14 21 30 41 36 31 27 30 36 31 21 15 6 15 16 18 22 26 28 29 32 31 33 33 34 39 41 39 39 39 38 38 39 50 37
35 32 26 21 33 23 16 13 23 24 21 33 33 27 22 17 22 22 22 26 23 18 19 14 16 25 30 32 30 27 26 32 35 41 39 36 40 44 49 54 46 41 33 35
52 54 46 39 34 29 28 26 24 23 21 14 18 18 18 15 18 23 20 19 19 22 24 19 16 17 20 27 31 26 26 31 38 41 39 39 37 36 33 33 32 35 38 41
29 30 30 23 28 35 38 28 24 30 27 19 20 19 12 10 19 20 13 13 16 19 26 31 27 21 22 27 25 24 26 26 24 24 27 27 25 27 30 37 38 40 43 46
21 17 16 15 21 17 15 14 19 22 21 24 19 17 13 13 14 14 15 14 13 15 18 20 20 19 19 19 20 22 22 23 25 27 23 32 37 38 41 45 47 48 49 51

GFSNW_500_spd_051.txt.gz
Wind_Speed
56 58 60 60 60 61 64 65 62 56 58 64 63 61 70 67 66 67 66 63 58 53 53 49 41 39 41 36 38 40 38 32 32 26 23 21 22 23 26 26 21 30 27 24
65 67 68 69 67 68 68 68 65 64 64 66 63 48 44 68 73 69 69 65 59 50 48 50 47 44 44 44 41 40 38 42 35 26 27 25 27 26 21 23 26 31 28 24
74 72 72 68 67 67 66 70 69 69 69 63 59 54 36 63 74 74 69 61 54 46 53 46 44 45 45 41 38 38 38 42 37 34 22 20 21 24 25 28 33 31 33 23
77 72 69 66 68 70 71 76 75 67 69 67 59 58 50 61 74 75 74 70 44 50 47 52 46 40 50 46 45 46 43 42 39 34 29 23 21 21 25 28 29 31 28 24
56 53 56 58 71 71 76 78 77 71 65 60 62 58 61 56 70 74 75 73 61 38 40 38 45 50 44 44 45 43 45 43 39 37 35 32 30 28 27 25 28 30 28 26
54 54 52 45 54 64 67 65 64 62 69 63 69 60 53 51 67 74 73 69 60 43 43 33 50 38 51 47 49 49 45 44 41 41 34 32 37 29 29 25 28 27 30 24
65 62 60 59 60 66 63 66 55 62 62 68 65 55 54 53 60 70 74 71 69 55 51 43 51 55 53 52 45 49 49 47 43 40 37 43 28 27 23 25 23 26 25 21
62 62 63 61 58 62 61 62 60 56 51 58 61 59 56 55 53 71 63 62 65 61 59 51 40 40 33 53 49 48 46 44 45 44 41 36 30 31 23 23 21 24 22 22
49 49 59 63 69 59 58 62 60 56 46 53 58 55 55 56 51 69 53 52 56 62 61 51 47 51 43 48 46 51 53 50 47 42 42 42 27 26 22 24 25 23 25 28
43 54 61 60 60 62 55 52 59 54 41 45 47 45 49 48 47 60 68 48 52 65 56 53 52 47 46 45 52 44 49 49 47 45 45 37 28 23 25 32 8 22 26 27
46 51 55 53 55 59 57 48 57 50 36 39 37 36 42 50 44 59 61 67 63 52 58 57 57 53 54 47 50 36 47 45 43 41 41 40 30 22 26 17 27 34 31 32
48 55 51 51 47 50 48 56 53 42 38 34 38 34 36 48 37 49 64 59 48 54 50 58 52 58 49 52 49 46 42 41 42 42 40 33 26 26 23 23 24 30 33 35
45 45 48 49 51 53 53 53 43 40 38 36 35 37 39 38 38 50 56 62 50 51 52 53 53 52 52 51 46 48 48 44 45 48 45 38 32 30 29 25 27 31 32 37
43 48 53 57 55 52 46 40 36 38 35 32 38 38 37 39 39 46 61 54 50 51 53 54 53 47 48 49 47 47 50 48 47 47 46 41 39 31 33 34 36 35 35 38
46 57 52 50 50 43 40 38 41 42 33 31 27 25 30 39 41 38 50 61 46 54 52 52 51 49 44 50 49 47 46 49 43 42 38 41 37 37 38 31 33 38 35 34
42 44 42 42 37 37 36 40 36 34 31 25 20 20 28 34 37 40 33 58 59 43 49 52 51 45 45 43 43 44 45 43 44 44 39 44 44 41 41 40 32 36 35 34
42 41 40 41 40 38 38 36 30 24 19 23 25 24 20 34 48 34 33 41 51 51 45 49 48 49 43 41 38 30 33 37 38 40 40 41 41 46 49 45 38 39 36 35
37 38 38 38 38 36 33 27 25 22 23 29 36 32 30 32 31 27 28 37 37 42 45 44 47 44 41 41 37 34 35 34 32 33 35 38 34 34 37 41 41 40 39 42
40 38 36 34 32 29 28 28 24 19 28 39 36 36 21 30 28 31 33 28 39 40 43 43 42 43 44 42 37 31 30 30 30 31 34 38 37 37 39 38 38 42 42 45
34 33 33 33 32 28 23 17 18 22 23 36 32 33 26 25 28 44 38 33 28 41 38 35 38 38 44 44 39 35 35 33 31 33 34 34 34 37 38 39 38 42 46 47
30 30 32 32 29 26 22 17 15 20 24 38 42 30 36 33 29 32 29 25 22 24 29 28 29 30 32 30 28 28 29 28 29 31 35 37 39 39 40 43 47 47 46 47
33 32 28 24 21 16 11 10 16 29 26 43 44 38 29 23 28 31 25 24 19 13 16 25 29 28 25 21 23 26 30 33 33 35 38 41 41 40 39 40 39 44 48 48
32 28 23 17 13 8 16 20 26 27 24 36 32 31 33 39 18 33 31 23 19 12 15 23 17 19 25 29 27 25 27 32 35 35 34 35 35 36 36 38 39 42 41 41
28 25 19 14 17 20 21 23 20 11 21 37 48 44 39 31 31 24 29 31 27 21 16 6 9 10 14 18 23 25 23 25 25 27 30 32 34 35 37 39 40 41 42 43
29 24 20 24 20 25 19 15 13 14 18 32 50 40 28 22 15 24 33 32 29 24 14 9 14 16 14 14 15 20 23 25 28 31 31 37 43 45 44 44 38 38 38 39
22 29 33 24 28 27 27 26 26 31 24 20 21 24 21 24 21 24 25 22 22 21 20 20 21 23 26 25 26 27 28 29 28 29 32 36 38 38 38 37 37 38 39 39
29 25 21 22 21 22 22 23 29 28 25 25 22 17 14 20 24 22 20 20 19 18 21 24 27 28 28 28 28 28 27 27 27 28 29 30 31 33 33 36 40 42 48 50

GFSNW_500_spd_054.txt.gz
Wind_Speed
42 44 45 46 48 51 53 50 43 44 50 53 52 43 29 27 38 59 57 59 60 45 36 32 41 45 44 39 36 43 42 35 34 35 31 29 28 28 30 29 26 26 23 28
49 49 50 51 51 54 55 58 56 54 58 61 52 43 40 38 35 46 58 63 65 58 46 43 35 38 43 42 41 43 41 47 34 40 34 38 29 28 28 29 28 32 25 24
53 53 53 53 54 55 58 63 65 62 64 60 55 50 44 45 42 47 54 59 61 56 55 47 46 32 36 43 47 40 35 48 51 46 33 23 29 31 30 23 27 27 33 34
55 56 57 57 58 60 63 62 69 68 69 65 59 57 52 54 53 50 48 58 64 60 52 47 49 46 38 50 50 42 44 46 46 43 39 26 28 24 30 32 35 35 28 31
60 64 66 66 64 63 62 69 69 70 67 65 64 60 57 54 53 54 53 54 59 62 53 52 56 41 30 40 51 48 50 48 48 49 44 40 35 33 28 27 23 31 26 22
63 66 68 69 69 71 69 70 67 65 63 66 66 62 56 50 51 56 54 45 59 66 62 57 50 32 33 39 39 46 50 48 47 51 45 40 46 39 29 31 27 29 25 25
78 80 79 79 74 72 73 76 69 69 66 62 62 56 54 50 54 51 47 48 52 59 60 51 48 43 42 36 49 47 50 50 50 49 42 51 45 44 41 45 36 32 32 30
59 57 55 57 59 59 61 69 71 64 63 56 48 57 58 55 55 54 48 48 43 55 50 64 43 41 33 45 53 52 51 55 37 54 52 49 46 39 39 39 31 28 28 27
57 56 56 55 56 56 55 49 52 62 56 59 46 47 58 60 58 51 48 47 44 48 56 56 67 56 49 41 42 47 47 47 55 50 52 54 45 38 36 33 35 24 25 24
50 55 60 64 64 61 55 52 46 51 57 54 47 49 50 58 55 49 47 45 43 46 65 66 72 49 52 31 39 44 54 47 49 51 49 46 43 34 35 37 23 16 26 26
33 40 48 54 62 63 56 50 50 48 50 49 52 43 46 49 46 50 43 47 49 47 48 56 66 71 63 52 40 34 49 54 46 44 49 46 37 40 41 29 17 20 30 30
29 32 39 47 55 54 58 60 55 51 51 45 43 40 30 36 42 43 45 43 41 47 48 50 49 62 57 58 59 35 36 52 41 48 46 47 43 40 32 23 27 27 24 27
26 32 41 40 53 61 59 58 46 47 49 38 46 39 31 28 35 40 44 37 36 37 50 48 42 56 54 57 59 50 31 28 41 42 47 41 39 34 34 40 37 27 33 38
32 39 45 52 47 55 55 49 44 47 51 31 42 31 34 27 29 40 42 30 40 40 37 45 33 43 54 49 48 50 45 24 31 39 43 46 45 36 23 39 42 39 35 38
38 41 44 44 51 59 55 45 43 42 44 40 29 32 34 32 33 38 39 35 31 64 49 52 42 41 41 47 46 48 46 42 42 41 33 38 36 35 41 35 38 38 39 41
36 39 41 42 43 47 51 45 40 35 33 32 28 29 30 28 24 25 27 31 39 57 39 30 41 50 47 41 41 41 42 42 39 40 37 40 42 38 42 44 45 42 45 39
42 40 43 45 43 43 43 39 35 36 36 30 27 22 20 23 26 28 29 32 39 49 52 44 36 36 44 42 35 32 33 41 42 41 43 44 41 43 41 44 44 46 46 44
45 45 46 44 41 39 36 34 32 32 32 25 22 18 17 17 22 28 28 36 37 37 37 42 42 38 38 36 36 37 34 36 38 46 46 40 35 38 37 36 38 42 44 51
45 42 40 37 34 33 32 32 31 29 29 28 23 16 19 22 25 32 34 38 45 39 40 36 32 35 39 35 33 29 30 32 34 31 30 32 31 34 34 38 43 43 41 41
39 40 38 36 34 33 31 29 28 27 25 21 24 31 23 17 37 38 36 39 50 41 49 45 38 34 33 36 34 29 26 23 27 28 28 29 32 29 32 36 35 33 34 36
33 31 30 29 26 23 24 23 21 17 18 21 29 26 18 19 36 38 32 36 33 37 39 32 32 32 31 32 31 31 30 29 30 30 28 30 33 34 36 41 43 43 46 47
27 27 27 26 26 23 20 19 18 20 18 28 31 22 11 8 23 27 36 31 25 30 32 29 26 28 27 26 24 22 24 26 27 28 29 31 35 40 42 45 45 44 44 42
28 27 25 22 19 17 17 17 21 21 21 25 31 25 16 23 22 21 30 34 36 31 34 38 27 25 27 27 26 25 25 27 29 34 38 41 44 46 47 47 46 45 45 43
23 20 16 14 10 12 7 15 21 19 11 26 30 30 29 28 34 17 26 28 28 33 31 28 23 16 19 25 30 34 36 34 35 33 31 35 38 40 41 42 41 42 43 44
18 18 18 17 18 17 19 19 16 12 15 31 34 23 27 23 20 11 20 26 31 30 21 20 15 13 15 16 18 22 24 25 26 29 29 32 33 35 36 39 41 43 48 49
17 18 15 17 15 11 10 7 8 16 24 45 31 20 27 22 24 18 16 27 28 23 19 16 14 14 18 19 19 21 23 25 26 28 30 31 33 35 37 38 40 40 40 41
15 15 16 12 15 19 19 20 16 15 38 44 35 25 28 21 21 14 14 15 20 25 21 17 16 17 20 22 25 29 31 33 33 32 32 32 33 35 37 39 40 40 41 42

GFSNW_500_spd_057.txt.gz
Wind_Speed
42 42 41 40 38 37 39 40 39 37 40 44 37 25 18 20 24 30 40 43 51 59 52 38 37 31 39 33 34 35 32 37 41 38 36 34 32 29 33 37 28 30 30 26
43 43 43 42 42 42 43 45 44 45 47 44 37 29 25 24 27 31 34 36 46 46 55 59 48 38 34 38 28 38 33 41 44 40 43 39 39 35 30 34 37 35 35 21
44 43 43 44 45 47 48 51 51 51 48 42 38 34 31 31 33 33 33 32 36 55 52 52 58 47 39 40 43 41 34 39 44 42 42 38 44 37 32 36 41 35 38 26
44 44 45 47 47 48 50 56 55 53 50 41 43 45 39 36 34 34 37 38 33 33 59 51 47 49 42 44 44 46 37 45 44 40 46 46 39 34 35 39 34 35 26 27
47 46 46 48 49 49 52 57 54 55 53 51 50 50 44 43 38 40 40 39 37 37 42 56 53 50 38 35 45 46 40 47 48 43 41 47 49 39 40 28 28 37 35 32
47 48 49 50 52 55 54 57 55 56 54 55 55 48 41 44 47 49 47 42 42 44 38 55 66 62 56 39 29 45 48 46 51 49 40 51 54 46 38 35 32 31 35 31
52 53 54 54 55 55 54 57 56 59 63 64 59 55 52 49 50 50 52 51 49 35 40 44 55 61 62 57 43 34 48 51 52 50 42 51 47 53 43 38 36 37 36 34
58 59 60 60 61 59 58 57 56 59 60 61 59 56 56 53 55 55 53 53 44 44 40 46 51 57 69 62 48 34 40 43 47 52 53 54 51 46 48 49 44 41 42 37
67 68 69 69 70 70 68 65 62 63 62 60 51 49 43 51 53 57 57 51 45 45 41 48 55 56 61 60 60 34 27 45 51 47 51 51 47 45 44 52 53 48 42 40
50 52 56 58 58 58 60 63 63 71 67 65 61 59 49 46 46 53 53 51 45 41 44 48 44 47 55 55 54 52 37 30 51 47 39 40 50 40 40 50 46 40 36 30
53 54 54 54 54 51 51 47 51 60 72 62 60 49 45 43 46 41 46 44 45 37 43 44 49 48 55 55 52 39 34 20 37 45 46 45 40 33 41 44 36 36 28 32
36 39 40 41 47 52 50 47 44 46 54 50 54 46 45 28 40 38 39 41 40 39 41 40 40 40 58 60 59 52 49 25 26 33 45 49 46 43 44 40 43 38 35 43
34 32 42 37 38 48 47 46 45 44 44 47 47 44 53 40 33 43 42 42 42 40 37 35 36 38 51 59 59 43 46 48 31 30 35 46 40 44 34 39 37 40 45 43
22 27 34 37 40 53 48 51 46 43 36 35 37 47 31 44 39 37 41 38 43 42 37 39 33 34 40 64 53 48 52 49 43 42 25 43 34 41 47 37 42 45 50 52
21 29 31 37 45 52 47 52 40 42 35 39 29 30 30 39 39 39 40 39 39 40 35 34 31 37 33 32 35 43 47 47 46 42 37 18 29 38 45 47 44 40 48 49
25 29 37 41 46 53 50 41 36 32 36 38 34 35 38 38 25 36 38 38 36 36 36 37 39 41 31 35 33 34 40 40 40 42 39 47 33 38 45 50 47 41 35 40
39 43 40 39 46 46 41 39 35 32 38 48 24 22 25 28 28 32 31 39 35 32 23 26 27 34 40 35 29 34 40 41 42 42 43 46 49 44 39 38 39 37 41 42
35 41 44 38 42 42 39 34 29 28 31 31 27 27 31 28 25 24 32 41 44 37 29 32 43 22 33 41 40 39 31 26 27 33 39 37 37 39 40 36 35 37 38 42
38 40 44 41 39 38 30 33 34 33 32 29 30 26 25 24 25 28 30 30 30 34 35 36 37 34 39 29 27 32 35 28 26 27 28 28 30 34 36 36 32 34 36 38
42 43 44 43 41 39 34 30 30 29 30 30 26 22 19 18 19 25 30 32 33 36 31 34 44 36 37 35 28 25 24 22 23 27 30 29 30 30 29 29 30 32 39 38
34 33 34 36 33 32 31 31 30 29 27 24 21 24 20 11 10 18 27 31 35 38 36 39 34 26 27 33 35 31 25 22 22 20 21 24 26 25 25 31 35 37 35 38
27 25 26 26 25 26 23 22 20 18 17 18 14 21 16 11 9 19 25 24 28 39 42 28 23 24 32 31 31 28 23 20 21 23 28 33 35 36 37 37 40 43 46 47
24 24 22 20 19 17 18 19 17 12 14 21 26 22 10 8 11 22 22 18 20 30 32 28 25 23 29 29 27 24 23 24 27 29 32 35 38 41 43 44 46 48 47 46
17 16 14 12 8 6 8 10 12 16 17 20 20 20 12 12 14 20 23 31 32 30 30 28 32 33 26 27 24 25 26 27 31 33 35 36 37 37 40 42 43 44 42 41
12 11 9 7 11 12 13 20 18 14 17 18 19 15 15 19 9 8 20 25 26 24 27 23 27 35 33 34 27 25 25 26 30 35 37 38 39 38 38 38 37 37 38 40
17 18 15 11 12 19 17 13 10 11 13 19 20 22 21 16 6 10 12 18 19 20 29 32 20 21 32 39 36 38 29 23 24 25 27 28 30 32 34 35 37 38 39 40
20 18 19 21 19 19 17 12 9 16 23 24 16 16 12 10 14 8 2 2 4 11 13 15 15 16 15 16 19 21 23 25 26 28 31 32 34 35 36 37 39 40 41 43

GFSNW_500_spd_060.txt.gz
Wind_Speed
50 48 46 44 42 37 37 40 42 39 44 44 44 39 30 32 36 38 39 44 44 54 45 39 41 38 43 47 47 44 41 34 39 35 36 40 40 39 38 39 35 32 32 27
46 45 43 40 35 34 38 43 39 40 41 42 33 27 30 31 33 34 36 32 31 41 55 49 45 46 41 43 52 52 42 43 40 39 41 44 48 43 43 40 36 38 38 28
43 42 39 33 36 38 40 44 45 42 39 33 34 35 34 30 28 29 27 26 27 27 35 59 51 43 46 41 47 47 43 47 48 45 37 41 45 42 40 42 44 37 40 31
35 36 37 41 43 42 41 44 46 44 37 33 36 37 33 31 30 30 29 26 23 23 21 30 49 59 49 44 44 39 37 41 45 44 39 42 45 46 44 46 44 42 37 31
34 37 41 44 46 46 48 47 47 47 43 41 39 38 33 31 34 34 31 28 27 27 23 29 43 50 51 62 51 48 45 42 45 48 42 40 46 48 49 46 45 45 44 40
39 42 44 47 48 47 49 47 47 49 47 46 42 33 33 37 41 39 37 34 33 30 31 32 34 47 49 51 62 55 45 47 53 49 46 40 46 47 52 49 49 44 44 41
40 42 45 47 49 51 50 49 50 52 50 48 37 39 42 41 41 42 40 41 41 35 35 35 36 38 45 43 50 57 56 31 52 51 50 50 46 47 45 52 50 47 40 36
41 44 47 49 51 53 55 56 56 59 57 46 45 40 39 44 43 44 43 44 44 42 40 41 42 40 40 40 39 55 64 41 32 45 52 51 53 46 41 48 46 47 41 41
44 45 47 49 50 51 54 56 57 60 61 53 46 48 46 45 45 45 44 41 41 44 44 44 47 46 44 44 40 52 66 68 49 25 35 47 46 49 43 37 48 46 45 42
49 50 51 51 52 53 54 53 50 53 55 53 52 51 49 46 44 45 44 42 44 44 49 50 51 53 50 50 45 46 58 60 58 41 22 41 47 49 52 49 43 45 48 51
57 60 62 64 63 61 62 59 57 54 55 53 52 53 53 48 46 47 42 41 48 47 51 53 52 55 55 51 45 46 47 52 60 60 37 32 53 50 45 47 52 45 46 51
45 47 49 48 48 48 47 47 49 55 57 60 69 58 49 49 44 41 43 42 41 44 50 50 49 53 52 46 45 45 47 47 49 63 22 19 37 48 41 39 41 47 44 46
42 41 42 51 52 51 49 47 43 44 51 55 59 46 54 48 52 50 45 44 43 40 42 41 44 45 43 42 45 42 40 42 46 52 41 17 12 37 33 25 30 34 37 38
36 37 34 35 35 37 39 39 41 39 38 46 57 57 47 40 41 44 43 45 43 38 39 37 42 40 36 36 38 41 35 43 40 53 42 30 20 18 30 47 44 38 36 38
29 32 34 33 33 32 36 36 40 36 32 34 37 36 37 43 43 46 31 28 36 33 39 38 34 32 33 34 26 33 27 37 44 43 38 35 28 23 21 35 41 37 41 36
18 29 31 33 36 33 40 42 37 33 31 26 46 24 27 35 35 44 46 31 32 40 32 33 30 30 34 32 31 23 19 30 44 45 38 34 33 30 32 27 32 37 44 46
26 35 35 38 35 41 35 33 32 34 27 28 22 20 23 35 35 37 46 35 39 39 27 34 31 40 30 29 29 25 28 28 31 40 46 41 39 37 33 30 35 36 37 44
35 37 40 48 43 39 35 35 39 36 32 34 25 22 27 25 24 30 28 29 40 39 40 43 42 28 30 36 37 32 30 26 26 32 41 40 36 32 30 31 34 37 41 44
49 52 52 43 38 36 25 32 35 33 27 29 29 21 20 24 26 26 24 33 35 37 40 42 37 40 17 30 31 29 31 30 27 27 27 26 26 27 29 31 35 36 39 43
42 41 42 37 33 32 27 28 26 25 26 27 29 16 20 19 23 23 26 29 34 37 39 39 33 31 27 29 39 22 28 36 33 32 33 29 27 26 27 28 31 33 37 40
37 37 38 36 35 32 30 26 24 28 24 24 22 21 17 20 17 16 23 27 32 39 40 38 33 32 34 33 33 36 31 29 28 30 35 34 30 27 29 31 32 35 38 40
25 24 27 24 24 25 24 22 21 19 19 20 20 20 14 12 12 8 10 22 32 37 32 36 39 38 37 39 28 39 38 34 29 28 33 36 32 34 31 31 31 34 34 37
25 23 22 20 19 17 16 17 17 17 17 16 17 17 18 13 7 4 8 15 18 23 29 31 30 29 18 34 31 22 27 31 29 34 37 38 39 36 35 39 43 45 45 44
17 16 14 13 12 12 12 14 14 12 15 20 30 18 13 9 10 11 9 15 16 17 24 29 26 20 15 20 22 22 26 28 29 31 35 39 38 33 37 41 40 37 35 36
13 10 9 9 6 11 17 16 17 20 27 26 19 16 13 15 9 10 15 16 22 18 18 26 25 19 20 20 22 24 23 27 31 33 32 33 33 32 32 33 35 38 39 41
13 10 10 11 11 16 21 21 20 24 20 15 12 8 10 13 9 10 4 13 13 14 14 21 26 22 14 17 25 31 33 34 33 29 34 44 43 36 33 34 36 36 36 35
20 17 12 11 15 17 16 18 20 20 18 13 8 9 11 14 8 10 11 9 4 11 6 11 21 28 26 24 24 25 28 32 38 33 29 27 24 24 26 29 32 33 35 38

GFSNW_500_spd_063.txt.gz
Wind_Speed
56 57 54 52 50 49 49 49 52 50 47 51 51 48 50 50 50 49 45 40 43 47 48 49 48 45 46 48 50 49 49 49 48 40 38 39 42 44 42 45 44 42 38 32
48 49 49 48 47 47 46 48 47 47 41 49 49 49 47 45 45 44 41 39 43 46 51 51 51 47 45 49 51 52 51 52 51 45 42 47 50 48 49 47 44 43 41 34
44 44 45 45 44 44 45 44 44 43 39 42 40 43 42 42 38 38 39 38 35 43 47 54 50 43 44 49 48 49 51 50 49 51 47 47 50 47 47 46 45 44 41 37
42 42 42 42 42 42 42 43 41 39 34 29 30 35 35 35 36 33 29 27 29 32 32 39 53 54 49 46 47 49 47 49 51 50 49 48 46 47 45 47 44 48 42 41
38 40 42 42 42 42 46 48 43 42 35 33 35 34 31 34 34 35 29 27 29 35 33 34 35 41 59 51 54 42 43 46 46 49 50 50 45 47 48 47 47 45 45 41
33 34 35 37 41 49 53 54 49 46 41 38 35 32 32 31 32 33 31 32 31 31 30 31 31 31 35 52 57 50 54 52 48 48 44 46 48 46 49 52 50 47 47 45
26 28 30 33 40 51 49 45 46 48 45 38 34 36 35 32 32 32 34 34 34 30 34 32 29 27 27 26 33 51 57 62 50 51 35 37 46 47 43 48 47 50 50 48
31 33 36 38 42 46 49 48 49 50 49 44 41 39 38 36 35 36 35 35 37 35 34 36 34 31 30 28 29 30 32 61 50 59 62 40 46 49 44 43 43 40 48 48
35 36 38 40 44 47 50 52 51 50 50 46 45 42 40 37 35 38 39 35 39 42 41 40 39 36 33 35 34 32 33 38 41 49 58 57 38 29 42 48 51 42 43 44
40 41 42 43 46 49 52 54 52 51 51 52 49 47 43 42 39 39 40 37 40 44 46 44 43 42 40 38 37 36 36 37 41 46 52 64 43 30 30 45 43 44 46 48
46 45 47 49 50 50 53 55 54 54 55 55 53 51 48 45 44 42 41 42 44 45 47 46 43 44 43 43 42 41 41 43 42 46 44 63 59 47 28 37 46 41 41 41
49 50 51 49 49 51 51 51 50 50 54 57 56 56 53 50 49 47 48 46 42 43 46 48 47 46 46 45 47 47 49 45 46 46 42 41 51 47 34 38 48 41 38 42
44 50 54 56 55 56 55 52 50 49 49 50 52 52 52 52 48 46 47 45 43 42 43 43 44 46 47 50 49 48 49 49 48 46 39 39 41 57 46 21 40 44 35 41
40 41 42 42 43 45 46 48 49 51 51 54 52 53 53 48 48 45 46 45 40 41 39 37 38 43 46 48 49 49 46 44 44 46 35 31 33 43 51 38 20 24 42 36
36 41 44 43 41 41 41 42 36 38 37 37 40 52 52 53 54 51 45 42 46 46 42 42 42 38 40 39 43 42 41 38 39 41 38 32 31 34 41 40 16 14 26 27
34 30 35 37 37 31 33 41 44 38 32 30 32 39 54 45 51 51 55 50 50 47 43 45 37 40 40 37 37 35 36 36 33 33 34 30 33 32 35 40 23 15 21 24
28 34 31 34 30 29 30 30 28 33 32 22 22 27 40 53 46 40 42 42 45 45 46 41 37 38 37 31 33 35 34 32 27 23 21 23 28 33 30 35 28 25 21 24
34 35 36 34 29 27 34 31 26 33 31 23 16 27 30 35 37 36 34 30 36 33 28 31 30 32 38 30 27 30 30 30 26 19 22 27 31 32 33 33 32 32 31 28
37 39 42 35 33 31 35 32 32 33 28 13 28 23 21 22 20 19 22 27 32 38 36 32 33 29 31 22 29 29 29 32 31 29 24 20 26 29 33 37 33 34 30 29
45 48 44 43 33 25 30 35 34 25 25 27 24 20 21 22 20 17 17 20 23 35 34 34 43 36 34 31 37 24 27 28 33 29 29 25 25 28 32 34 36 34 34 33
36 37 37 39 32 37 37 31 26 26 23 26 26 17 16 18 12 15 18 22 26 22 29 30 39 40 34 33 42 39 30 32 29 31 32 35 34 32 36 38 37 35 35 36
32 31 34 31 31 30 29 28 27 22 20 28 24 16 12 15 14 12 12 15 18 24 27 32 38 40 38 37 32 31 28 34 36 25 29 30 30 29 37 40 41 40 39 40
24 21 21 20 21 20 19 20 19 19 20 19 14 14 14 15 15 12 11 13 17 21 26 34 35 34 33 33 31 27 29 26 26 34 37 35 34 35 36 41 47 43 40 38
18 17 18 19 19 17 14 14 14 14 14 15 17 18 14 17 14 10 10 5 11 17 23 26 30 34 35 35 34 24 28 31 30 25 31 37 39 39 36 41 42 42 36 37
13 13 12 13 14 16 18 18 16 15 16 15 16 19 14 10 8 9 10 10 9 11 12 14 19 23 22 17 11 12 19 26 29 27 26 26 26 32 34 35 34 37 41 41
11 9 9 12 14 18 17 18 18 27 30 26 21 16 13 10 8 3 9 11 8 6 10 15 17 21 26 16 14 13 20 25 26 28 30 31 32 35 37 39 40 40 37 39
8 9 12 9 21 24 24 30 32 27 21 16 11 11 10 11 4 7 9 7 3 11 11 15 20 22 19 19 21 23 25 26 23 21 23 24 24 27 29 27 28 28 31 31

GFSNW_500_spd_066.txt.gz
Wind_Speed
50 52 55 55 56 57 58 57 59 55 51 53 54 54 53 51 46 44 42 40 43 42 42 40 43 48 46 43 46 44 44 43 41 38 40 40 42 41 41 44 45 45 44 39
45 40 41 45 48 51 52 55 54 53 51 53 53 53 53 50 48 44 44 40 42 43 45 44 44 44 48 49 48 48 47 48 47 44 41 43 44 44 44 45 48 46 46 43
44 43 42 42 44 46 48 50 51 52 52 49 47 48 49 49 46 42 38 37 38 43 46 50 49 46 48 49 48 48 49 48 49 50 46 45 45 46 47 48 46 49 46 43
41 41 41 41 41 44 47 49 48 48 50 46 41 44 46 42 41 38 35 34 35 39 43 49 53 51 46 48 50 50 47 50 50 49 50 49 48 48 50 51 50 50 45 44
37 37 39 40 41 42 46 47 45 47 45 41 37 38 38 34 31 32 30 30 28 34 40 41 44 47 50 45 48 44 52 52 52 52 49 49 47 49 52 52 51 52 50 47
36 36 36 37 39 43 46 44 42 44 41 36 36 35 29 27 29 29 27 29 29 30 33 37 37 39 40 45 48 47 45 46 48 51 44 48 49 47 49 53 53 53 53 49
22 28 35 35 39 40 43 42 43 41 35 35 32 31 29 29 28 27 29 29 27 29 32 35 35 36 33 32 32 38 48 52 52 50 46 50 45 35 43 52 52 52 54 53
22 20 22 28 36 40 42 40 42 39 37 34 34 32 27 30 29 29 30 26 26 30 30 32 31 31 29 27 26 22 23 31 51 55 57 54 45 45 37 38 48 49 54 50
26 25 24 22 27 29 34 39 43 46 44 37 38 37 34 29 26 30 26 24 27 29 32 34 35 33 30 28 26 25 24 24 27 28 35 52 52 55 54 51 42 31 49 50
31 30 30 31 31 28 28 34 44 42 44 38 37 36 34 33 29 28 29 25 27 31 34 37 36 34 34 33 30 29 30 31 29 29 29 26 24 28 37 47 45 41 38 48
38 36 35 36 37 39 39 38 45 46 40 39 37 38 38 36 32 29 29 28 29 33 34 36 38 37 35 35 35 35 35 34 33 33 32 26 31 33 35 35 42 46 33 42
47 44 43 41 42 43 46 47 46 46 46 45 40 41 40 40 36 35 35 30 28 36 38 39 38 38 39 38 38 39 40 39 40 40 36 34 35 38 38 35 33 49 39 33
40 45 48 45 45 47 48 49 49 49 49 47 47 44 44 43 40 40 38 35 31 37 41 42 42 41 41 40 39 39 40 44 45 45 38 41 41 39 41 39 37 34 49 37
36 39 39 42 44 42 44 48 48 48 49 51 51 47 46 44 46 45 42 38 36 37 44 47 45 44 44 43 42 43 42 44 45 46 45 48 44 40 43 36 32 36 49 41
29 35 40 42 44 46 43 42 43 43 41 41 40 35 33 32 34 35 35 33 32 35 41 45 47 46 43 41 43 45 43 46 47 49 49 50 47 43 42 35 32 29 36 47
28 29 33 37 34 34 40 46 47 47 46 46 45 42 40 35 35 33 31 32 26 30 33 43 42 39 36 39 39 41 39 34 40 35 37 37 37 35 37 35 31 28 31 34
27 26 26 29 33 34 33 31 30 32 35 37 36 36 38 38 42 43 42 38 39 39 39 40 38 33 40 39 34 31 34 37 34 34 31 34 33 31 36 33 30 29 32 30
29 28 24 25 29 29 27 23 29 32 28 27 27 27 31 33 36 41 43 40 40 44 44 42 39 37 42 42 36 32 37 21 30 31 32 32 35 30 33 33 35 34 35 30
36 32 31 31 30 29 30 29 28 28 30 27 22 16 23 21 24 37 32 32 30 31 33 34 34 35 38 32 33 34 31 26 23 29 31 34 32 26 23 28 31 33 35 34
37 35 32 31 31 33 35 29 31 34 35 15 12 18 19 14 16 28 32 32 28 28 28 33 38 33 30 32 31 31 27 22 20 29 31 37 30 30 30 18 20 25 33 37
37 34 36 37 36 34 24 25 33 33 12 15 27 24 21 21 19 15 17 18 16 19 22 26 33 33 32 31 32 28 34 32 30 24 28 32 32 30 31 27 27 29 35 37
30 27 29 31 31 32 24 28 23 23 22 24 22 19 17 19 18 14 15 16 18 21 23 26 28 27 28 35 37 36 33 33 30 32 29 32 34 35 36 37 36 36 38 40
31 27 28 28 33 29 26 22 20 19 23 22 19 15 17 19 16 12 14 14 16 20 20 24 25 28 25 28 33 36 34 30 28 31 27 25 36 33 33 31 32 30 35 41
24 22 24 22 19 17 15 15 14 16 16 20 14 17 15 16 18 18 18 17 20 24 22 17 16 17 20 23 27 29 31 29 28 29 29 30 31 27 27 33 37 41 40 37
18 19 19 18 18 18 18 19 18 18 18 17 16 13 11 12 15 18 14 17 15 7 6 6 8 12 16 22 26 32 34 33 30 30 30 31 31 31 32 30 30 32 32 33
9 9 10 13 16 16 17 17 17 17 16 15 14 12 13 12 13 15 11 10 11 10 11 12 14 13 18 20 23 21 20 21 21 20 21 25 30 34 35 36 36 38 37 38
9 9 12 13 16 18 17 15 15 15 17 16 15 11 8 6 8 7 10 16 18 12 12 12 12 16 19 20 24 24 28 22 21 21 24 28 28 28 28 29 30 29 28 28

GFSNW_500_spd_069.txt.gz
Wind_Speed
57 57 56 55 56 59 62 63 67 63 61 62 62 61 52 50 46 49 47 41 38 38 36 35 34 34 36 36 36 32 33 31 32 36 36 35 38 40 41 43 43 44 45 45
55 54 52 53 52 49 48 51 52 51 52 62 62 60 53 47 45 46 47 45 41 41 39 36 38 39 39 39 41 39 39 38 35 32 32 35 40 41 39 36 39 41 44 45
52 51 51 50 49 51 50 43 43 43 47 53 53 54 52 44 43 45 46 43 40 40 41 43 42 43 44 43 43 43 43 44 45 40 36 37 38 39 40 41 42 40 39 41
51 49 45 46 44 47 49 46 40 41 46 45 46 48 50 44 41 42 42 39 38 38 41 44 46 45 46 45 45 46 46 47 48 46 44 41 41 43 42 44 44 45 45 46
49 47 44 44 39 44 49 43 37 38 40 41 42 44 44 40 35 35 32 30 29 33 37 39 41 43 45 46 45 46 47 47 45 42 41 45 44 44 44 46 47 49 52 49
30 33 42 41 41 43 44 39 37 38 38 40 40 40 39 33 30 30 27 26 30 30 30 35 37 40 41 43 47 45 45 45 47 47 41 39 45 41 43 44 47 49 52 53
20 20 23 33 39 40 37 36 37 38 35 36 38 37 34 29 27 25 25 23 23 27 30 30 32 34 36 38 37 40 41 43 43 42 43 47 46 42 37 41 44 47 52 53
25 24 21 21 28 37 34 34 37 36 35 38 38 34 31 30 30 24 24 23 24 28 29 30 31 31 31 31 31 33 35 36 36 41 47 43 42 38 38 39 40 40 43 46
27 25 25 23 20 25 35 33 35 35 34 34 37 33 29 29 22 21 22 22 20 26 27 28 29 30 29 29 29 28 26 25 24 22 20 19 23 35 43 46 41 44 49 46
31 29 26 24 20 20 22 27 34 33 34 31 34 34 29 22 21 20 23 22 23 25 28 27 29 27 28 28 27 26 26 25 22 20 16 11 14 20 22 24 29 42 44 49
38 34 30 28 26 23 18 15 20 29 29 28 33 27 20 19 21 20 21 21 23 27 27 27 28 28 29 29 28 28 27 27 25 23 20 16 21 25 27 24 21 27 30 29
37 41 36 33 30 29 27 18 17 21 29 32 30 26 23 22 23 25 24 20 22 28 27 26 28 29 29 31 31 30 30 29 29 27 24 24 25 30 34 31 26 30 31 30
22 44 43 39 37 33 34 29 24 30 30 31 27 21 20 22 25 27 26 24 22 28 28 26 28 31 32 34 34 33 33 33 33 31 30 31 32 37 38 36 35 34 34 33
19 31 37 41 42 40 39 37 34 34 31 31 27 26 24 26 29 29 29 27 25 27 30 29 28 30 31 33 33 33 34 36 36 36 36 36 37 42 42 42 41 40 40 41
23 28 28 34 38 41 40 42 43 41 41 40 36 35 33 32 32 32 30 30 30 29 27 31 32 29 31 32 33 33 34 35 37 40 41 42 42 45 46 47 47 47 45 41
21 26 26 27 30 35 39 41 45 45 43 42 42 38 36 36 34 34 30 26 24 23 26 30 33 31 32 34 35 35 36 36 39 42 43 43 44 47 47 48 47 45 40 38
24 24 27 26 26 29 31 33 34 36 36 36 33 31 29 27 30 28 23 18 16 14 14 17 22 27 30 38 37 32 31 35 37 41 40 42 43 41 39 39 38 37 37 39
22 23 26 29 25 24 23 26 28 29 32 32 31 29 28 26 26 27 24 22 26 26 27 27 21 26 25 31 36 35 35 35 35 34 36 35 32 34 33 33 35 35 36 34
25 26 27 31 30 21 24 23 23 23 25 25 24 18 15 18 18 19 21 23 25 28 31 35 37 38 41 38 37 37 38 39 38 38 38 35 30 33 33 34 34 35 33 32
26 31 28 35 38 35 26 21 23 21 20 19 18 17 10 10 11 11 17 22 20 18 22 23 26 29 30 30 31 27 28 33 33 32 28 32 34 33 31 33 32 26 31 16
26 26 26 30 32 33 29 26 25 24 24 22 18 17 16 16 12 11 16 25 25 22 23 27 29 28 27 30 34 31 27 29 27 28 31 30 22 25 26 28 34 32 29 24
30 30 33 33 29 24 19 23 27 30 21 27 22 20 22 16 18 10 14 23 23 24 21 20 19 16 16 20 25 28 30 29 30 25 25 28 25 26 27 29 31 32 32 33
35 39 31 24 16 21 26 30 24 16 24 26 22 18 19 18 19 14 14 16 21 20 20 21 22 21 21 21 25 28 30 32 32 29 28 29 29 25 25 23 29 28 28 31
25 25 26 25 27 26 22 20 18 23 22 20 17 16 17 18 17 17 17 18 16 20 22 23 22 22 21 21 22 23 20 21 24 28 32 33 30 27 28 26 27 31 28 31
18 21 20 17 18 19 17 18 18 19 18 18 12 13 15 15 18 18 18 20 22 19 18 17 15 16 17 19 21 21 20 23 27 31 32 35 35 35 34 31 33 35 36 35
14 12 13 16 17 16 16 19 19 18 17 14 13 13 11 10 10 11 13 20 20 20 16 13 13 14 15 16 17 18 21 25 26 27 27 28 29 33 36 35 35 36 38 39
11 12 13 14 13 14 15 14 14 14 13 12 10 7 6 6 8 13 14 17 18 19 17 16 17 16 18 20 19 19 21 23 23 23 26 30 32 29 31 30 30 30 31 31

GFSNW_500_spd_072.txt.gz
Wind_Speed
53 52 52 52 53 54 54 54 54 51 54 57 59 59 58 59 49 50 46 42 41 39 37 35 32 31 33 32 27 27 22 21 27 24 21 38 38 37 36 41 41 43 43 40
48 49 50 51 51 53 53 53 52 51 52 57 56 56 58 60 54 48 47 45 41 40 38 36 36 35 35 34 32 32 28 24 22 25 30 30 29 42 42 41 39 39 40 40
46 47 48 49 51 52 53 53 48 46 49 47 46 47 51 54 49 46 46 44 41 41 40 40 39 38 38 37 37 27 30 30 27 25 28 30 31 30 31 32 34 35 37 38
47 47 47 48 50 53 52 47 41 41 44 41 37 36 37 39 41 45 44 43 41 39 39 41 41 42 41 41 40 38 39 37 34 32 30 29 30 32 33 36 36 38 36 38
40 42 44 45 49 53 47 44 38 38 37 36 34 32 33 28 30 37 39 39 37 38 40 39 42 44 44 43 42 42 42 39 35 34 35 36 36 36 37 37 38 38 39 40
38 39 42 44 47 48 46 42 39 37 34 34 34 31 31 32 27 30 31 32 33 32 34 40 41 43 44 43 44 43 44 44 41 37 32 30 37 34 33 34 36 36 39 43
30 26 25 25 27 29 34 37 36 35 29 34 30 33 30 31 28 23 29 26 26 28 31 33 36 38 41 42 42 44 43 43 43 42 39 42 42 38 32 30 29 34 41 44
25 25 25 22 20 20 22 26 33 31 28 31 31 31 33 32 31 30 29 26 26 25 27 30 33 33 37 36 36 39 38 39 39 39 39 38 39 37 36 39 41 41 45 47
27 28 28 28 25 23 22 18 26 29 28 26 27 32 30 30 29 30 32 29 26 25 27 28 29 29 30 27 28 30 31 33 32 31 29 22 24 27 31 36 41 42 43 44
30 30 30 28 26 25 23 15 18 27 27 26 30 30 33 26 21 32 30 21 21 22 25 27 26 24 25 25 24 25 25 26 22 19 17 17 16 15 13 19 25 26 30 36
18 29 33 32 28 26 22 11 16 23 24 26 27 30 31 32 35 32 25 19 15 20 24 24 25 24 26 24 24 22 22 23 24 22 20 20 18 18 17 18 17 18 18 19
18 19 29 35 31 28 25 16 13 16 24 24 27 29 35 36 32 20 19 17 15 19 23 24 25 26 26 26 26 25 23 23 21 22 22 23 22 21 20 20 21 23 23 24
25 22 21 35 35 31 26 18 17 14 17 24 30 34 40 32 21 14 14 14 14 20 26 28 28 29 26 26 25 26 26 25 24 24 24 25 27 27 26 27 26 27 28 31
30 27 23 31 39 35 29 21 17 13 20 28 35 37 27 21 18 15 13 13 14 18 25 27 26 25 24 25 26 26 28 27 26 27 28 29 30 31 31 32 33 34 35 36
26 26 23 25 39 39 34 27 24 20 23 28 30 25 21 18 15 15 15 17 16 19 24 27 26 24 21 22 25 26 26 27 28 29 30 31 32 33 34 36 39 40 39 41
19 23 22 26 33 39 39 35 32 30 28 26 27 24 22 18 17 18 17 17 20 20 21 23 25 24 25 23 21 26 26 28 29 30 31 33 35 37 38 40 41 43 47 49
24 21 24 20 26 33 39 39 31 31 32 30 27 25 24 23 22 22 24 24 23 22 24 26 28 28 26 26 26 25 26 27 29 31 33 36 37 38 38 41 42 44 45 45
27 26 27 23 21 26 31 32 33 32 33 33 31 29 24 22 21 22 24 23 20 19 19 21 22 21 23 28 27 26 26 28 31 32 36 38 38 37 37 40 40 39 37 35
27 29 31 25 23 23 23 22 25 26 28 30 30 24 22 22 20 19 21 21 19 19 20 19 19 22 26 25 23 26 28 27 29 33 36 37 36 38 38 37 36 36 38 36
27 29 30 29 27 23 24 23 24 24 22 21 21 21 17 17 18 18 18 21 21 22 26 26 30 29 31 34 35 37 39 40 37 36 38 38 41 42 37 38 38 37 37 29
33 35 32 30 25 27 23 25 26 25 23 21 20 21 18 16 15 15 16 21 22 26 27 30 27 23 20 23 26 30 33 35 36 35 34 36 36 28 31 26 27 27 32 30
32 38 35 28 25 25 21 19 22 23 24 22 23 22 20 17 17 17 14 23 21 22 19 19 19 18 22 21 23 27 30 35 39 38 32 31 31 29 25 29 27 28 29 31
25 28 27 21 22 21 19 19 23 24 23 22 22 23 22 21 13 10 10 15 20 18 21 22 19 18 20 22 22 26 26 27 26 29 32 30 30 30 26 27 28 27 28 28
32 35 20 14 15 16 19 21 24 20 23 21 19 21 19 20 18 18 13 13 17 20 19 17 20 20 20 22 24 25 26 24 23 25 28 32 34 31 32 32 30 31 29 32
19 17 19 20 20 23 22 21 23 26 25 18 15 16 17 16 17 16 14 15 16 18 19 20 20 20 22 24 26 26 25 27 28 29 30 30 32 32 31 32 35 37 38 37
21 20 20 21 22 21 24 25 22 21 19 16 12 13 14 12 14 14 15 16 16 19 22 22 23 22 20 19 19 21 24 24 24 24 26 28 29 31 34 33 32 34 35 39
13 15 17 18 18 17 18 18 17 16 13 11 12 12 11 9 9 8 12 17 20 21 22 25 26 22 21 19 20 21 21 22 22 24 26 28 29 31 32 33 33 33 33 33

GFSNW_500_spd_078.txt.gz
Wind_Speed
37 33 36 41 42 42 40 43 41 39 39 40 40 38 34 33 33 35 35 33 31 33 33 37 31 27 33 27 24 26 26 19 18 19 11 10 27 35 37 44 45 33 35 34
29 25 31 34 36 38 38 39 36 36 39 40 38 36 33 34 33 33 35 35 34 35 35 36 38 30 38 29 28 30 28 23 18 19 14 9 18 37 38 39 30 27 33 28
19 18 25 29 32 35 35 36 35 34 35 34 34 35 34 34 33 34 35 37 38 38 38 39 39 39 39 33 30 28 28 23 19 20 16 13 11 28 31 39 37 37 24 31
13 13 22 26 29 30 32 32 31 33 36 34 34 34 33 33 33 34 36 38 38 39 39 40 42 42 40 38 32 30 26 30 23 23 22 18 11 19 14 23 24 35 31 29
12 11 18 25 28 30 29 30 29 33 34 34 34 34 33 32 32 32 30 35 33 36 39 40 38 41 43 38 39 34 35 34 27 24 24 27 23 23 14 32 18 18 26 22
8 14 16 22 28 31 28 28 30 32 32 32 35 35 34 31 31 28 25 23 26 29 32 40 41 47 45 43 39 37 38 36 33 27 33 33 30 24 21 22 24 23 25 20
10 18 19 20 23 25 24 26 30 31 32 36 35 34 34 30 29 28 29 25 21 19 24 29 36 39 42 43 44 39 39 35 38 37 35 34 28 26 27 28 23 23 23 19
19 18 20 22 23 24 24 26 27 30 32 35 37 36 33 30 23 22 25 25 18 17 26 31 32 29 34 40 40 38 38 36 39 42 44 41 31 31 34 29 24 24 24 25
17 20 22 24 25 24 23 21 21 22 19 18 26 32 34 30 27 22 22 28 27 23 27 28 24 25 20 23 29 34 36 35 37 37 38 42 41 37 38 30 27 37 35 33
18 17 16 18 18 17 19 18 18 14 4 14 20 26 30 31 30 24 22 25 30 24 22 21 21 22 16 18 18 17 26 32 31 32 34 35 31 34 29 27 32 37 40 42
13 16 20 20 20 20 18 18 19 12 10 18 20 28 30 30 28 26 20 30 27 25 18 17 19 19 22 18 15 13 16 18 23 27 28 30 25 18 20 18 21 29 33 30
9 9 11 19 23 22 21 20 18 15 16 19 22 25 26 32 32 34 30 22 28 25 25 21 20 19 20 23 23 21 13 17 18 20 18 18 24 31 34 28 30 30 23 21
15 13 10 9 12 25 23 23 22 18 15 18 18 21 23 28 34 33 30 24 18 32 28 23 24 21 19 19 21 21 19 13 17 17 17 21 16 27 33 31 30 29 25 25
20 18 17 14 12 10 20 25 22 19 16 15 17 22 25 27 31 38 21 24 23 29 20 23 25 24 16 19 18 23 21 24 20 20 18 27 31 29 30 28 30 29 28 27
25 24 22 20 18 15 11 23 21 18 16 9 19 24 28 32 32 42 22 22 26 26 23 22 24 22 20 20 20 19 24 28 16 29 24 23 30 29 28 30 31 33 31 30
29 28 25 23 23 22 18 19 22 20 18 11 8 16 24 31 33 33 26 22 19 19 26 28 27 20 18 19 18 21 21 25 32 32 34 38 36 36 38 36 34 35 34 33
32 30 28 23 22 24 22 16 18 20 24 18 15 15 20 28 36 37 26 22 22 29 28 23 18 18 17 17 19 17 16 21 25 32 40 37 38 38 38 39 38 37 37 37
31 30 28 24 25 24 23 22 24 24 26 20 21 13 20 30 32 31 23 23 23 23 22 20 18 20 20 24 21 23 23 22 22 27 33 36 39 40 39 39 39 38 39 39
28 29 26 24 25 24 23 25 26 26 26 22 23 15 17 34 34 24 20 22 21 20 19 17 19 21 26 25 26 25 26 30 31 33 32 34 36 36 38 39 40 40 41 41
28 26 24 24 23 22 26 28 28 29 29 28 25 17 22 23 21 18 18 18 20 21 19 19 23 25 26 26 22 21 24 26 29 32 32 34 35 36 39 41 42 43 43 44
30 26 22 20 22 25 27 29 30 31 32 31 25 21 18 19 18 20 18 16 17 17 17 21 23 20 19 20 21 23 24 26 29 33 37 39 40 41 42 44 46 49 50 51
27 21 22 25 22 22 26 30 32 30 28 27 23 21 19 18 18 18 17 17 17 18 19 20 21 24 23 24 29 32 33 34 37 38 36 38 41 42 44 44 42 41 42 43
26 26 31 27 22 24 23 28 29 30 26 24 22 20 19 19 17 16 17 19 20 19 22 25 25 25 27 29 29 27 27 30 31 30 32 35 36 37 39 38 36 37 34 35
29 28 23 19 20 22 17 19 20 21 21 22 22 21 21 18 17 17 18 18 19 20 18 11 10 16 16 18 22 25 27 28 31 32 34 36 38 40 40 40 41 42 42 42
21 20 21 20 18 18 20 22 22 23 23 23 22 22 20 18 17 17 15 14 13 11 11 14 16 19 22 24 26 28 30 30 29 31 32 33 33 33 33 34 35 39 40 39
11 14 18 15 14 14 14 18 22 24 23 23 22 22 19 17 17 14 12 14 13 16 17 19 23 26 29 30 31 32 33 34 37 38 37 36 35 34 33 34 35 35 35 35
13 14 18 19 18 16 16 18 19 19 18 15 16 16 17 16 17 15 16 16 16 17 22 22 17 17 18 22 27 32 35 35 35 36 35 35 35 36 36 37 37 37 37 38

GFSNW_500_spd_081.txt.gz
Wind_Speed
39 39 33 34 33 24 31 39 35 36 37 38 38 37 33 30 30 29 27 26 23 24 24 25 26 26 25 26 23 21 20 18 16 15 22 16 7 23 33 32 33 37 30 40
38 32 28 27 20 19 28 32 30 32 33 35 35 32 30 30 29 27 27 30 29 26 26 27 28 27 29 29 23 22 21 24 20 13 17 18 18 7 32 41 30 34 29 34
34 24 21 16 14 19 27 29 28 31 32 33 37 33 31 30 29 30 32 27 27 28 29 30 28 28 29 32 27 25 24 24 21 15 16 21 15 9 21 35 38 39 37 33
28 18 13 6 12 18 24 25 26 32 37 35 31 31 33 31 28 26 28 28 29 28 29 29 29 31 33 36 34 30 28 25 24 19 18 22 11 18 14 28 24 33 30 37
23 14 7 4 10 17 22 23 24 31 31 31 30 30 27 27 27 28 29 30 30 30 30 30 30 32 35 37 38 35 31 28 29 24 24 23 24 15 21 21 18 35 30 19
19 16 4 9 11 18 20 22 24 26 27 29 28 28 28 28 28 27 27 27 28 29 30 31 32 34 36 36 38 38 35 33 32 29 29 26 26 21 17 22 17 16 28 24
18 15 8 12 12 14 16 19 24 24 23 26 25 26 28 30 29 28 29 29 31 28 26 25 23 29 33 36 37 40 36 34 35 32 36 32 26 28 23 18 18 17 14 23
16 16 14 13 12 13 14 18 19 22 22 24 25 27 30 30 29 29 29 30 30 20 19 15 15 14 20 23 23 35 37 37 35 36 37 38 28 30 29 29 23 23 22 24
17 15 16 18 16 16 17 18 19 20 20 21 27 31 33 33 32 31 28 28 23 24 20 17 19 20 21 22 23 23 31 33 34 32 38 41 35 30 30 32 27 29 29 28
18 17 16 15 18 18 18 20 20 17 14 20 22 25 30 36 37 31 26 25 22 28 28 14 18 18 17 18 13 12 17 26 32 31 36 38 37 41 41 40 41 36 33 34
11 13 14 14 13 14 15 19 16 14 15 18 14 17 21 29 31 31 25 19 22 23 30 18 11 13 18 22 15 13 12 16 23 28 32 34 30 30 33 38 37 27 29 34
7 7 9 11 14 16 17 19 18 20 17 17 14 13 17 22 27 26 25 15 21 21 29 20 12 20 22 21 15 7 18 10 9 13 15 19 22 23 26 23 24 23 24 27
13 9 8 8 7 15 19 19 21 20 17 18 11 12 19 23 24 28 30 13 18 18 22 18 20 19 14 15 14 20 10 14 12 13 15 17 18 17 18 23 24 30 19 24
15 14 13 11 8 6 12 23 20 19 17 16 15 16 18 24 25 32 38 22 14 18 24 25 25 20 17 12 15 18 21 9 18 20 15 16 20 25 32 34 37 35 36 38
17 17 17 15 13 11 8 11 20 20 22 18 17 13 19 23 24 32 33 30 17 18 23 30 27 14 20 21 6 21 23 24 8 15 17 25 25 21 41 22 22 30 37 39
19 20 20 19 17 16 13 9 15 23 25 17 16 12 17 21 24 32 29 25 21 21 22 29 22 18 15 18 14 18 20 23 23 22 16 21 27 25 35 42 33 33 34 35
30 26 24 23 22 20 16 9 15 22 26 20 13 11 10 18 22 27 36 22 20 20 26 26 21 19 21 18 17 17 20 22 25 28 35 31 29 27 33 34 40 36 35 34
32 30 28 27 25 22 17 13 19 24 24 19 10 12 4 15 21 26 29 21 22 24 27 24 22 22 25 26 22 20 23 23 23 25 27 32 33 35 39 41 41 42 40 39
32 29 27 29 26 20 16 16 21 22 22 17 14 12 9 13 25 29 30 24 22 22 23 22 26 25 28 27 28 24 24 27 28 29 27 29 30 33 36 40 44 45 45 45
29 28 30 29 24 18 17 22 23 23 23 18 20 17 9 13 20 27 30 21 19 22 22 23 26 25 23 24 26 25 25 27 28 30 32 35 37 38 39 39 39 40 43 45
28 29 30 28 24 23 25 25 28 28 23 23 21 17 11 13 23 25 22 22 22 22 20 21 23 22 21 20 21 21 22 24 27 29 31 32 34 35 37 40 41 41 43 45
33 26 27 26 25 25 26 29 31 28 28 26 23 18 15 19 22 22 24 19 18 16 16 18 22 18 17 18 18 21 24 27 30 32 34 37 38 38 37 36 35 36 38 39
28 24 24 25 30 30 27 29 32 29 29 25 22 17 16 19 17 16 18 19 16 17 18 22 17 19 22 24 26 28 29 31 33 32 31 31 33 34 34 36 36 38 40 41
31 30 30 25 24 22 20 23 24 22 24 26 24 24 22 19 19 20 17 16 17 22 20 9 12 16 19 21 23 24 26 28 31 33 33 33 35 38 38 38 39 40 41 43
28 25 18 15 17 19 16 21 25 25 24 24 23 21 19 20 19 19 17 14 11 9 11 14 16 17 20 23 26 29 32 33 35 36 37 38 39 39 39 41 41 42 39 37
18 14 13 15 17 16 20 22 24 24 22 21 21 21 22 22 21 15 10 7 8 12 14 18 19 21 23 21 22 24 28 33 36 39 40 41 42 44 46 46 43 40 40 40
16 15 13 12 13 12 17 22 22 22 21 19 20 20 18 14 10 10 11 13 14 15 16 20 21 17 21 25 25 23 22 22 22 23 24 27 30 32 34 36 38 39 40 40

GFSNW_500_spd_087.txt.gz
Wind_Speed
49 51 53 54 48 45 43 34 22 6 5 11 29 33 35 37 38 37 36 25 40 37 33 33 36 26 30 33 31 29 27 25 24 22 25 21 19 12 13 18 24 23 17 28
48 50 51 49 44 38 31 17 7 14 0 7 21 30 31 37 40 44 40 32 30 32 31 34 35 36 36 35 28 29 28 26 21 22 23 20 18 13 11 14 15 24 25 25
47 47 50 44 38 33 18 7 8 10 6 8 16 25 29 36 38 37 36 29 32 34 35 31 30 32 30 29 28 29 24 23 22 21 24 21 19 17 13 15 14 16 29 25
45 44 46 39 31 26 10 3 9 12 8 14 17 24 19 34 34 32 29 34 30 31 33 30 33 34 30 27 26 26 24 24 24 22 23 23 22 22 22 19 18 17 24 35
43 41 41 33 27 22 6 0 8 15 13 13 16 22 25 31 38 35 33 33 36 35 33 36 39 37 33 33 29 27 26 26 25 23 25 24 25 20 23 22 18 18 20 24
40 38 36 28 23 16 11 6 8 17 19 19 21 23 24 23 27 35 34 30 30 33 31 32 34 36 35 33 31 28 27 26 26 25 26 26 25 23 26 25 20 19 13 13
37 36 31 24 20 10 9 10 10 16 23 22 21 24 26 27 25 28 28 33 29 31 34 34 35 33 30 32 30 30 29 28 28 27 27 30 28 26 28 24 22 22 14 10
35 34 28 22 18 12 11 11 12 15 20 25 26 25 28 27 25 29 31 31 34 34 35 33 29 26 27 29 30 30 30 30 29 29 30 32 27 30 31 28 21 22 19 12
34 33 25 20 17 14 13 12 13 16 17 20 25 28 30 29 33 33 30 27 28 27 26 26 26 25 26 27 27 29 30 31 32 33 34 35 31 32 33 34 29 25 22 18
31 31 22 19 17 14 16 15 16 17 18 18 19 20 22 22 22 25 24 22 23 25 26 25 24 23 25 24 24 25 27 29 30 31 36 39 37 34 37 33 30 29 26 21
30 25 19 17 15 14 13 16 15 16 19 18 17 18 19 20 22 23 24 24 24 22 21 22 22 22 24 22 19 19 21 24 17 16 20 25 21 32 42 38 30 26 23 22
29 19 17 14 14 11 11 14 15 19 18 17 19 19 20 22 24 27 29 27 25 23 22 20 22 23 24 22 19 19 18 18 15 21 19 15 15 31 38 38 40 35 30 29
23 17 16 11 10 9 8 14 15 15 17 16 17 18 15 16 21 26 29 30 28 23 22 23 18 21 21 17 17 18 20 21 18 16 14 8 13 21 27 28 31 37 38 37
19 16 16 11 9 8 8 11 14 15 17 17 16 13 7 12 10 15 23 27 25 21 21 20 19 27 21 17 14 16 21 15 6 11 12 13 9 15 17 19 25 30 28 32
19 17 17 16 12 9 8 10 17 17 20 18 20 10 8 9 8 14 24 33 30 27 20 21 18 22 28 21 15 13 15 15 10 16 18 15 19 12 12 17 18 23 23 26
21 18 18 19 17 12 9 6 8 17 20 20 18 15 11 8 12 16 32 29 25 28 18 16 15 22 21 17 13 11 8 12 7 8 9 9 6 14 19 23 19 15 19 28
22 20 19 18 17 16 15 13 10 9 20 20 19 16 10 12 14 21 35 28 24 26 21 13 14 18 27 20 21 6 17 13 12 11 13 14 16 19 17 22 17 26 29 18
23 22 21 20 20 19 16 15 12 10 11 15 15 11 9 5 10 18 26 36 30 21 15 9 14 13 21 25 22 21 15 17 16 15 15 17 19 20 19 20 20 22 25 24
25 25 25 24 20 17 17 16 15 13 10 14 14 9 8 3 6 14 18 29 37 30 21 15 15 13 16 19 18 18 20 21 21 22 22 23 23 25 27 26 27 26 25 26
29 30 31 28 21 21 20 20 18 16 13 15 14 12 8 8 1 10 17 22 26 25 19 17 13 11 14 18 17 19 20 22 25 25 25 26 28 31 34 34 34 34 35 35
33 34 32 26 23 22 25 24 20 16 13 18 19 17 11 7 2 11 14 18 21 17 16 15 13 12 16 18 21 20 22 25 27 29 31 33 34 35 37 39 39 40 41 42
36 35 32 29 27 29 30 27 24 17 18 22 21 15 15 10 2 8 16 17 17 16 14 15 13 14 16 18 19 22 27 29 31 32 32 32 34 35 36 38 41 42 44 44
34 36 34 31 33 32 30 26 22 14 20 24 23 19 19 17 10 7 10 16 17 15 18 17 13 15 17 19 22 24 24 25 26 27 28 30 31 33 34 36 37 39 40 41
33 36 35 36 33 31 29 20 15 19 24 30 28 22 23 23 19 17 12 11 13 15 16 17 19 19 19 20 20 20 21 24 26 27 30 33 35 37 39 41 42 44 44 44
31 31 32 36 32 26 18 14 19 24 27 31 29 21 19 19 16 13 12 12 12 13 14 10 11 13 16 19 21 24 26 29 31 33 31 34 36 37 37 37 38 39 42 45
27 26 28 26 22 20 17 17 19 24 27 30 26 21 18 16 12 10 12 13 13 11 11 13 15 18 21 23 25 27 29 29 30 33 36 37 37 36 36 37 39 40 41 42
23 22 23 21 21 19 21 20 23 23 26 24 20 17 16 14 14 14 13 11 13 14 17 17 20 20 23 25 25 27 31 34 34 35 37 40 42 44 46 47 48 49 50 51

GFSNW_500_spd_093.txt.gz
Wind_Speed
41 42 42 43 45 49 54 58 57 57 50 39 33 28 5 14 18 23 20 13 8 18 23 31 28 27 25 22 25 25 22 22 21 23 23 23 23 23 23 24 24 21 22 13
41 41 41 42 43 46 52 53 53 49 39 29 19 15 1 12 18 23 19 12 8 22 29 26 24 24 27 25 19 21 21 22 22 22 22 21 22 23 23 25 23 22 20 15
39 38 39 40 40 44 49 49 47 39 30 18 15 13 2 5 20 29 20 16 10 3 23 26 21 21 27 25 19 22 21 22 21 18 21 22 22 23 24 25 22 22 16 8
36 36 37 37 38 41 46 45 40 33 21 7 12 13 7 3 15 25 28 5 11 8 9 32 30 20 22 31 25 21 19 20 21 22 21 21 23 24 25 25 24 21 21 14
35 35 35 35 35 39 41 40 34 25 14 4 8 11 7 6 9 11 24 18 5 3 8 11 26 28 19 18 25 15 19 24 20 26 25 24 22 23 25 23 21 18 18 17
34 34 33 34 33 37 38 38 31 24 12 3 6 3 0 6 9 9 14 17 16 14 10 3 4 22 22 21 23 17 16 15 19 20 20 22 21 22 23 19 19 18 15 15
33 33 32 32 32 35 35 34 28 22 14 8 12 12 8 8 6 8 11 14 18 18 15 9 5 12 15 16 15 15 18 17 20 22 20 17 18 20 21 18 19 19 18 16
32 31 30 30 31 34 32 31 25 20 15 11 13 14 14 12 11 6 9 11 12 15 17 14 12 7 10 12 14 17 20 19 20 21 23 20 20 21 21 19 19 18 18 17
30 29 28 28 30 32 29 29 23 19 15 13 14 17 17 14 11 12 8 9 10 11 14 15 13 15 16 16 20 22 24 21 17 18 20 22 19 20 23 23 17 20 18 18
28 27 25 26 29 30 28 25 22 18 16 13 15 16 20 18 14 11 10 10 11 12 14 15 16 18 18 20 22 22 22 21 19 18 17 16 17 18 20 22 25 22 21 20
26 25 24 26 28 27 26 21 20 17 17 15 14 15 16 17 17 18 16 14 16 18 17 16 17 18 20 21 24 23 20 19 18 17 16 15 16 17 20 23 27 28 26 26
26 25 24 25 26 25 21 19 19 14 14 16 12 15 14 14 15 16 17 17 16 17 17 16 16 17 19 20 19 18 18 17 16 15 15 11 13 16 20 21 26 28 30 29
27 25 25 25 23 21 17 18 17 10 13 13 11 14 13 14 13 13 14 15 16 17 18 16 17 16 16 18 18 17 17 15 14 14 11 10 12 13 17 19 21 21 21 23
27 26 25 23 20 16 15 14 10 8 11 10 11 11 9 9 9 11 15 18 19 20 21 20 19 18 17 17 17 17 16 14 11 9 11 9 11 12 11 7 7 10 15 19
30 27 25 21 16 13 14 10 7 4 5 6 10 9 9 8 8 8 9 10 13 19 24 25 23 21 18 17 14 15 11 8 6 7 8 11 9 12 12 12 11 11 10 14
31 26 22 18 15 14 13 8 5 6 6 5 6 9 8 9 10 9 10 10 12 14 20 23 23 20 18 18 19 15 9 9 9 10 6 6 6 8 7 5 5 10 16 18
28 23 20 17 15 15 14 10 9 4 5 9 11 9 9 9 10 11 13 13 14 12 17 17 15 17 16 16 21 20 15 10 12 14 18 15 12 10 10 10 12 14 14 10
25 21 19 17 16 17 17 13 11 7 5 4 7 11 14 12 12 11 13 13 10 13 14 13 12 9 7 9 16 20 21 20 10 11 13 12 12 12 14 15 16 16 17 16
22 20 22 20 18 17 17 14 13 9 7 6 6 10 12 10 8 10 10 11 13 16 15 12 8 5 4 9 13 19 21 24 23 21 14 15 16 19 20 22 21 21 20 21
25 26 24 21 19 20 19 17 14 11 7 5 3 6 9 6 5 6 7 9 18 19 15 10 10 1 4 7 11 16 21 20 20 19 19 20 22 22 21 22 21 21 22 23
31 26 22 19 18 19 20 17 13 11 6 5 6 8 7 2 3 6 3 6 13 21 17 15 15 2 9 8 11 13 15 17 19 21 22 23 25 24 22 22 23 26 28 29
32 29 22 18 16 19 19 16 12 6 5 7 8 11 6 5 3 4 3 6 8 10 16 16 10 11 12 12 11 11 14 17 19 22 23 24 24 23 24 26 27 29 31 33
34 30 27 26 27 23 19 13 6 5 8 7 11 12 9 9 10 8 4 4 5 11 10 8 10 15 17 14 11 11 12 14 17 20 22 24 25 27 28 30 31 31 33 34
34 31 28 27 25 21 13 10 11 11 11 9 15 13 14 10 7 1 1 2 3 6 8 11 12 12 13 12 12 13 16 18 20 22 24 26 28 30 32 34 34 35 36 38
31 28 24 22 17 16 14 11 13 15 13 12 17 16 16 15 12 11 4 2 2 4 8 10 12 12 11 11 13 15 18 20 22 25 27 29 31 33 35 37 39 40 41 42
34 35 31 20 19 16 19 16 16 16 14 14 18 19 17 18 15 9 6 6 7 9 13 12 11 13 15 17 20 22 24 26 26 29 32 35 37 39 40 42 44 46 47 49
23 27 29 27 23 22 17 21 21 17 17 15 18 19 17 14 13 10 10 11 13 14 11 11 13 15 18 21 24 26 28 30 33 35 37 39 40 42 44 47 50 52 53 54

GFSNW_500_spd_099.txt.gz
Wind_Speed
28 28 28 29 28 29 30 30 33 34 36 41 43 40 29 3 14 10 16 15 17 19 11 14 4 11 12 18 24 29 24 18 15 19 21 17 17 17 20 20 18 22 22 13
26 28 28 27 27 27 28 28 30 31 33 37 38 36 22 10 10 8 11 14 18 14 9 12 13 19 18 15 16 18 16 19 20 17 29 20 25 19 20 23 16 20 18 15
27 29 27 25 26 25 25 27 28 27 29 34 33 31 22 14 7 2 9 11 14 19 7 6 17 28 22 18 14 18 17 15 14 12 16 22 21 22 21 18 18 16 18 17
28 27 25 25 25 23 22 25 26 25 26 30 29 27 21 10 20 7 10 6 12 19 11 10 27 24 9 15 16 20 19 15 17 16 15 19 20 19 18 17 18 15 17 16
29 27 24 24 24 22 21 24 24 22 24 27 26 22 18 11 19 21 14 6 3 13 16 10 25 16 18 20 24 22 18 17 18 18 20 16 17 15 15 15 13 12 11 17
27 26 24 22 22 20 20 22 22 21 22 26 23 20 14 12 14 25 19 13 7 10 14 8 14 24 20 12 23 26 26 20 19 18 18 15 14 15 16 15 13 13 17 18
26 25 23 22 20 20 22 22 20 20 21 23 22 18 14 13 12 15 25 20 15 11 7 9 9 23 25 21 19 13 25 22 22 21 20 19 18 16 14 17 16 14 15 15
26 24 22 20 20 21 22 20 20 20 21 22 20 17 15 15 15 12 16 24 18 14 8 3 8 11 9 16 8 3 9 15 17 18 24 15 16 17 15 16 13 14 14 14
25 23 21 20 21 22 21 20 20 20 21 21 19 17 16 16 17 15 13 21 16 11 8 7 4 2 9 11 9 8 6 5 6 7 9 14 15 16 16 14 13 14 15 16
24 22 20 21 21 23 21 20 20 20 21 21 18 17 16 17 17 17 15 15 15 12 7 4 4 2 6 7 8 7 5 3 3 6 12 16 16 20 22 22 19 18 17 17
23 23 22 22 23 22 22 21 20 20 21 21 18 16 16 18 18 17 15 15 15 14 14 11 8 8 6 7 8 7 6 6 8 9 13 16 17 16 16 18 23 22 21 20
25 24 23 24 23 22 22 21 20 20 21 21 15 13 15 15 16 15 14 17 16 16 16 15 11 10 9 7 5 10 11 10 8 12 13 15 16 17 17 18 19 20 20 21
27 26 26 25 23 23 22 21 19 19 19 18 12 10 12 12 14 12 13 15 16 15 15 14 13 12 9 10 13 13 14 13 12 13 15 16 16 16 17 19 20 21 20 20
30 28 27 25 25 23 22 21 18 18 17 12 8 11 12 12 12 11 12 13 13 13 14 14 14 14 14 14 14 15 15 13 13 14 15 15 17 17 17 18 18 19 20 20
31 29 29 27 26 24 22 20 17 16 13 8 9 11 11 11 11 9 9 11 13 14 14 15 15 16 16 15 14 14 14 16 13 13 15 15 18 17 14 16 17 17 16 16
31 31 31 29 27 25 22 18 17 13 7 6 6 10 10 10 9 8 6 4 5 7 8 10 14 17 16 16 16 16 16 15 14 13 15 17 15 19 17 18 19 21 21 22
31 32 32 30 28 23 19 18 14 10 8 7 6 7 9 10 10 9 10 8 7 8 9 11 13 17 20 22 22 21 19 17 16 15 15 14 14 16 18 19 20 22 23 22
32 32 31 29 26 24 21 18 15 13 11 9 8 8 11 13 14 13 10 10 11 11 12 14 14 13 10 13 21 21 21 20 20 23 21 19 20 20 20 18 19 20 21 22
33 32 31 28 25 21 20 19 17 15 12 10 7 5 6 11 13 10 9 11 13 12 9 10 10 10 11 12 11 15 19 23 23 23 22 22 20 18 22 28 27 27 27 27
34 31 29 24 22 22 21 22 20 16 12 9 7 5 4 4 5 6 9 8 5 7 10 15 15 10 11 9 9 10 12 17 22 26 28 26 26 25 23 23 27 30 31 33
33 29 27 25 24 24 25 22 20 15 12 11 6 5 6 6 1 4 3 2 6 12 14 10 13 10 9 6 6 7 9 13 16 19 23 27 31 30 29 27 30 33 34 35
31 31 28 27 26 25 23 22 20 15 14 10 7 8 9 6 4 2 2 6 9 15 14 11 8 10 7 4 7 11 12 13 16 20 21 23 26 28 31 33 35 37 39 40
33 31 30 28 29 28 21 15 13 13 15 11 7 9 8 7 5 6 7 8 8 11 12 11 14 12 11 14 13 16 16 15 16 18 20 23 26 28 32 35 37 39 41 42
37 33 33 33 28 21 13 18 19 17 13 10 8 11 10 10 10 9 8 9 10 9 7 9 12 13 14 14 14 13 11 12 14 17 19 22 25 28 31 34 37 40 42 44
36 30 35 30 24 20 17 17 16 14 11 10 12 15 15 12 9 9 8 6 4 3 5 8 10 13 16 16 15 14 15 17 19 21 23 26 28 30 33 36 38 41 44 47
40 40 31 31 24 20 14 14 15 13 12 11 13 17 16 14 11 9 8 5 3 6 7 9 13 11 10 11 13 14 17 18 19 21 24 27 32 36 39 42 44 47 50 52
47 37 29 25 21 19 18 17 15 13 14 12 14 17 17 16 14 11 9 8 9 8 11 12 10 11 12 14 15 16 18 21 24 28 32 35 38 41 45 49 52 54 54 54

GFSNW_500_spd_102.txt.gz
Wind_Speed
28 25 23 23 23 21 22 23 22 23 25 29 30 33 33 32 22 14 14 12 17 16 3 9 13 15 13 18 10 9 6 13 7 6 12 20 20 30 18 17 23 20 25 15
27 24 23 23 22 21 21 22 21 21 24 26 27 29 30 27 19 13 10 11 12 11 11 6 10 8 7 17 19 26 20 14 7 11 21 15 25 18 29 16 31 30 18 5
27 26 24 23 22 20 21 21 20 18 22 24 24 26 27 25 23 17 11 8 11 12 8 10 4 15 7 9 13 17 20 17 7 10 19 14 27 9 20 23 10 22 16 11
28 26 23 23 22 20 21 18 18 19 22 22 22 24 25 22 21 19 11 6 6 9 8 11 10 14 8 9 8 10 10 8 15 12 15 18 14 15 15 15 12 11 18 15
28 27 25 23 23 21 18 18 17 18 20 19 21 21 21 20 18 17 20 11 6 7 8 7 13 16 12 3 10 13 13 14 11 19 20 14 19 22 18 15 20 23 14 12
27 24 24 23 22 20 19 18 17 18 18 19 20 21 19 18 17 18 26 22 11 7 9 3 8 7 3 6 12 8 15 9 13 21 22 16 15 8 10 11 11 13 17 17
26 27 25 24 23 20 18 17 17 18 17 19 19 21 18 18 17 17 19 28 24 15 11 7 2 12 8 7 12 12 10 21 14 14 14 15 16 17 16 13 14 16 15 14
29 27 25 23 22 20 17 17 17 19 19 19 20 21 19 20 19 19 18 19 26 23 16 10 4 10 6 9 18 15 20 20 15 16 13 9 9 13 16 12 12 14 13 14
29 28 25 23 22 19 18 18 19 20 20 19 22 22 21 21 19 20 18 18 14 23 14 10 3 3 8 12 12 8 11 13 14 15 9 12 7 10 10 10 11 13 14 14
29 26 23 22 21 18 19 19 22 21 21 20 23 23 21 22 19 20 17 17 17 19 16 12 6 3 6 6 8 8 7 7 5 2 1 7 10 12 15 16 17 15 14 14
27 23 22 22 20 19 20 21 23 22 22 22 23 23 22 22 19 17 14 19 18 18 20 15 12 9 7 8 9 9 8 8 6 7 5 6 9 13 14 16 17 19 21 20
22 21 20 20 20 21 22 22 22 22 22 23 23 22 23 20 16 14 15 17 19 19 21 19 14 13 11 9 3 9 11 9 7 7 8 9 11 13 15 17 17 18 19 19
22 22 21 22 22 22 22 22 23 22 22 22 22 20 21 16 13 11 13 14 17 20 18 20 19 18 15 15 16 13 12 11 12 13 15 15 13 15 14 16 18 19 20 20
24 22 22 23 23 23 23 24 23 21 21 21 20 19 16 12 10 9 12 12 13 18 18 18 18 18 18 18 14 15 14 11 13 15 16 16 16 16 17 17 18 19 20 20
26 24 24 24 24 25 25 24 22 21 17 19 16 14 11 9 8 8 9 9 10 14 17 18 18 19 20 17 15 14 14 14 15 15 16 17 18 17 18 18 17 19 19 19
29 28 27 27 27 26 25 23 22 19 18 16 12 13 8 8 8 7 7 7 7 10 14 17 17 18 18 16 12 17 16 16 17 16 18 18 17 17 19 20 19 19 21 21
30 30 28 27 27 26 26 24 20 16 17 13 8 6 7 7 7 7 6 7 7 7 7 10 14 18 18 15 12 19 18 16 16 15 17 17 17 17 17 18 21 22 23 24
30 29 28 28 27 26 24 23 18 16 16 13 9 8 5 6 8 9 9 10 11 12 10 9 10 13 7 9 16 19 19 18 16 17 19 18 17 18 18 18 18 20 23 24
32 30 29 27 26 22 23 20 17 16 15 12 11 8 6 11 13 14 13 13 13 13 12 11 9 7 11 14 14 14 17 18 18 20 21 24 24 22 22 21 22 25 28 30
32 30 27 27 19 22 20 20 19 17 15 11 11 9 5 5 5 5 7 8 8 3 5 6 7 9 9 8 6 7 9 11 14 18 23 25 26 28 28 28 29 29 27 29
36 32 29 23 24 21 21 21 19 15 14 13 11 8 6 4 1 2 5 3 2 4 4 11 7 9 7 4 2 2 4 6 9 13 17 20 24 30 33 35 36 37 36 36
36 29 25 25 25 25 24 21 19 17 16 12 11 9 9 9 6 5 5 6 6 9 10 12 10 8 6 4 4 7 9 12 13 15 17 18 20 22 24 27 30 33 37 40
31 29 28 28 27 28 25 20 15 14 15 14 11 10 12 9 8 6 5 5 8 10 11 11 8 7 7 8 11 11 13 12 11 12 15 18 20 23 26 28 31 34 37 40
33 32 29 29 29 25 18 15 18 19 18 16 12 12 11 9 9 8 6 5 7 8 10 10 8 10 12 14 15 15 15 14 13 14 16 18 21 24 27 29 31 34 36 39
36 33 32 31 26 22 18 15 16 17 16 14 11 14 13 13 10 10 8 7 6 4 5 7 9 12 14 16 15 13 13 14 16 18 20 21 22 24 27 31 34 38 42 45
40 24 29 29 27 21 16 15 16 16 15 13 11 17 15 13 9 8 9 6 5 4 5 7 10 14 12 11 11 13 15 16 17 19 21 24 27 30 33 37 40 43 46 50
38 38 31 27 24 19 19 17 18 15 13 11 10 16 17 14 13 10 8 8 7 6 8 10 8 7 9 12 13 14 15 18 22 25 27 30 32 34 38 42 45 47 50 53

GFSNW_500_spd_105.txt.gz
Wind_Speed
39 39 35 28 23 20 18 18 16 14 17 17 20 20 23 27 27 30 27 19 20 26 22 25 24 12 11 11 20 13 8 8 3 1 5 8 18 22 22 21 4 7 28 23
40 37 30 26 22 20 19 17 16 15 16 17 18 19 22 24 24 25 26 20 19 23 27 21 19 11 13 10 15 12 5 2 2 4 12 3 4 21 19 5 10 19 18 24
40 32 28 25 22 21 18 17 16 16 16 17 17 18 20 21 23 23 23 19 18 15 25 27 19 13 10 12 14 17 15 9 7 6 8 10 14 15 16 8 16 10 8 6
36 32 28 25 23 20 19 18 17 15 15 16 16 16 18 19 21 22 20 17 14 13 17 24 24 20 16 10 13 7 3 9 8 1 7 9 23 21 19 21 14 10 15 6
36 30 29 25 23 22 20 18 17 15 17 17 16 16 18 19 21 20 20 16 15 11 13 17 18 15 9 11 7 12 11 2 6 13 11 11 10 27 23 19 16 13 15 9
35 32 29 26 24 22 19 18 16 17 18 17 17 16 18 19 20 21 19 17 15 14 10 11 12 11 11 5 11 10 2 1 11 18 15 17 17 10 12 13 15 14 10 7
34 32 28 25 23 21 21 18 18 18 17 19 16 17 19 20 21 20 21 19 17 20 13 11 7 10 13 7 4 9 5 2 6 13 15 11 13 9 8 8 13 12 9 9
33 30 27 25 24 23 20 20 18 18 19 19 17 18 20 21 21 22 22 19 19 14 20 15 11 3 7 7 7 5 8 5 7 16 15 9 10 12 9 9 9 11 12 15
34 30 28 25 24 23 20 20 19 19 20 18 20 19 22 23 23 24 23 17 18 13 19 19 12 7 6 9 7 8 13 9 13 13 12 7 4 6 7 10 11 10 9 12
32 28 27 27 25 23 21 20 20 19 20 18 20 20 23 25 25 25 21 19 17 14 20 19 13 6 8 6 7 11 15 16 12 9 7 8 7 6 5 7 8 9 10 14
31 29 28 26 25 22 20 21 19 18 21 19 21 22 23 26 26 23 19 19 17 16 23 20 18 11 6 9 11 11 9 6 4 4 3 3 2 7 11 12 14 15 16 17
31 30 27 25 22 20 21 19 17 19 20 20 22 22 23 26 23 17 15 16 16 17 23 21 21 18 13 10 11 13 13 10 8 6 5 3 5 7 9 13 16 17 16 17
29 27 24 23 22 22 19 18 19 19 20 20 21 21 24 23 17 13 14 14 15 16 20 25 22 21 18 18 17 15 16 15 14 11 11 10 11 11 11 14 17 18 19 19
25 24 23 22 21 20 19 19 19 20 20 20 18 19 22 17 13 11 10 10 11 14 16 19 22 21 19 19 20 19 17 15 16 14 13 12 14 14 14 16 17 18 19 18
26 24 25 22 20 20 20 19 21 19 18 18 17 19 19 14 10 7 6 8 10 11 13 16 17 19 21 23 23 19 18 18 16 15 14 14 16 16 16 16 17 17 17 18
26 25 22 20 21 22 20 21 20 19 17 15 16 17 11 7 5 5 6 7 7 8 10 13 16 18 21 23 20 21 20 17 18 17 16 17 16 16 17 18 18 19 18 18
25 25 24 22 22 21 20 21 20 18 16 13 14 13 7 6 5 6 6 5 5 4 2 5 12 16 18 18 20 22 21 19 18 18 17 16 16 16 16 17 17 17 18 20
27 26 25 24 23 22 22 21 20 18 14 12 10 10 7 7 4 6 6 6 5 5 6 6 6 9 14 14 16 17 17 18 19 18 17 17 15 16 15 16 17 18 19 20
28 27 26 25 24 24 23 22 19 15 11 9 8 9 8 8 8 10 11 11 9 8 8 8 8 10 13 15 12 12 14 16 18 17 17 18 18 21 21 20 22 23 25 27
30 29 28 28 27 23 22 20 17 14 12 10 11 10 9 9 8 4 3 4 4 4 3 3 6 11 12 10 9 8 6 6 8 11 14 17 19 21 23 25 28 30 31 32
30 30 29 26 24 22 21 19 15 13 11 13 12 11 9 6 2 2 3 2 1 2 0 4 8 6 4 4 4 2 2 3 5 8 10 13 15 17 20 22 24 26 30 32
33 30 28 25 23 21 21 17 15 14 15 15 13 9 7 7 5 2 4 6 5 7 4 6 6 4 3 3 1 3 5 7 10 12 12 11 12 14 15 18 21 24 27 30
36 32 27 25 24 23 20 14 11 10 13 15 12 10 12 12 10 11 9 4 7 9 8 10 6 2 2 3 6 8 10 11 10 8 9 11 14 16 19 21 23 25 28 31
35 30 28 25 24 20 15 10 14 16 16 13 12 11 12 14 11 8 6 7 8 8 9 7 4 4 6 10 11 13 13 11 10 11 13 14 16 19 21 23 25 28 32 35
31 30 29 27 22 19 13 13 14 14 12 13 14 10 12 12 12 11 8 9 10 9 7 6 7 10 11 12 11 8 8 9 12 14 16 17 20 22 25 28 31 34 38 41
30 30 25 23 22 18 17 13 13 13 14 15 13 12 14 14 12 12 13 12 7 4 4 6 9 11 11 8 8 10 12 13 14 16 19 23 26 29 32 34 37 39 42 45
35 37 27 22 23 20 16 13 12 13 14 13 11 14 17 15 13 12 12 10 8 6 6 7 8 7 6 8 9 10 12 15 19 22 26 29 31 34 36 39 42 44 47 50

GFSNW_500_spd_111.txt.gz
Wind_Speed
50 50 50 55 42 43 47 47 39 40 38 32 26 26 22 17 14 12 13 15 20 25 23 16 10 10 16 15 17 19 22 23 17 16 15 10 8 13 17 15 14 9 12 12
49 43 41 54 41 43 41 40 41 44 40 31 28 24 21 15 13 11 12 16 20 23 23 15 13 9 12 12 15 19 21 23 23 17 17 15 7 7 11 7 4 2 7 11
46 39 39 43 44 46 43 40 43 46 35 30 29 24 19 15 12 11 13 16 21 21 24 19 12 8 9 13 15 15 20 20 20 16 11 10 6 3 4 6 13 8 14 14
41 48 47 42 44 42 43 43 45 40 33 30 28 22 19 15 12 13 13 18 21 20 21 21 14 7 10 8 10 11 10 10 9 10 10 3 6 6 3 11 15 15 16 14
37 41 43 43 43 43 45 50 44 36 31 31 26 21 18 14 13 15 14 19 21 23 20 17 17 10 5 9 8 5 2 3 3 2 3 5 2 1 7 21 12 16 18 18
31 36 40 43 43 42 49 45 39 35 33 28 22 20 17 15 15 16 16 20 22 25 22 19 15 15 11 6 7 7 20 14 11 15 8 18 19 23 22 19 17 18 15 13
33 36 38 40 42 49 49 42 38 34 31 26 22 21 18 16 17 18 18 22 24 24 22 19 16 15 12 7 4 15 20 14 14 16 21 14 14 15 11 4 3 7 8 10
35 37 37 41 48 51 46 41 36 33 29 23 20 21 20 17 18 18 21 24 25 22 22 19 16 18 15 11 8 9 15 14 14 8 17 16 9 8 7 5 2 1 3 3
35 35 40 47 53 49 43 38 34 31 27 22 22 23 19 19 18 19 24 26 24 24 21 21 16 19 14 13 12 10 12 16 18 10 16 14 11 5 7 4 4 1 3 3
32 37 45 53 52 45 39 35 31 28 24 23 23 21 21 18 19 23 25 27 25 25 22 22 18 19 18 19 13 10 14 17 15 20 16 15 13 8 5 5 5 6 6 5
32 40 52 54 47 42 37 33 30 26 24 24 22 22 19 17 21 24 25 26 27 24 21 21 19 20 18 18 18 13 22 24 26 23 23 15 9 8 9 6 5 8 9 9
39 45 52 48 43 39 35 32 28 25 23 22 22 21 17 20 22 24 26 25 26 23 21 20 19 23 22 20 16 14 22 25 24 21 17 15 12 8 6 6 7 9 10 10
37 46 44 41 40 37 33 30 26 24 23 22 20 18 18 20 22 24 23 25 23 19 19 18 20 23 26 21 22 16 15 17 18 15 15 14 13 9 8 7 5 7 9 11
40 37 38 37 37 33 31 28 25 22 21 20 19 18 17 18 21 21 22 19 15 13 13 16 19 18 27 21 22 17 15 15 14 14 14 14 13 12 11 11 10 10 11 13
35 37 37 36 34 31 29 25 22 22 21 19 18 16 15 16 16 17 14 9 5 7 9 10 13 15 16 24 20 19 15 15 13 13 14 16 16 15 14 12 10 9 11 12
34 35 34 32 30 29 25 23 24 22 21 20 17 15 13 13 13 10 8 6 8 9 9 11 12 14 14 14 18 18 17 15 14 13 16 18 18 17 17 16 16 17 17 17
30 32 31 31 30 27 24 24 23 22 20 17 14 12 12 11 10 6 6 7 5 5 5 7 10 13 16 13 14 18 18 18 17 16 15 16 18 19 21 21 21 21 21 22
30 32 33 31 28 28 25 22 21 19 16 15 13 10 9 9 9 7 8 7 6 7 6 6 6 11 16 15 13 15 16 17 18 18 18 19 20 19 19 21 22 24 24 24
34 34 32 30 29 26 23 22 20 18 15 15 12 9 9 10 10 8 7 10 13 13 12 9 8 8 11 16 16 16 15 15 16 17 19 19 20 20 20 21 23 24 25 26
35 34 32 31 27 24 21 19 17 16 15 14 11 9 11 11 11 10 8 9 7 7 7 9 11 10 9 10 10 11 11 10 11 11 13 14 16 17 19 21 23 24 24 25
33 30 28 26 24 22 20 17 15 16 15 13 10 10 12 11 9 8 6 5 6 6 5 5 7 10 10 8 6 5 5 4 2 2 4 7 9 12 13 15 16 17 18 19
29 27 27 25 24 22 19 16 16 17 15 10 11 12 12 10 9 9 6 4 6 5 2 5 8 10 11 11 8 5 3 3 5 7 8 10 11 12 13 14 16 18 20 22
28 26 25 24 22 21 17 15 16 16 13 11 13 13 12 11 12 11 8 6 6 4 7 11 11 9 8 7 5 4 6 7 8 9 9 9 10 11 13 16 18 21 24 28
26 25 24 23 23 20 18 20 18 15 13 13 16 15 12 11 13 12 9 6 6 8 10 10 7 4 3 4 6 7 8 6 4 4 5 7 9 13 16 20 23 27 30 34
26 24 24 23 20 19 18 16 14 12 14 16 15 14 13 11 14 12 7 8 10 10 10 9 5 5 6 6 6 4 3 2 3 5 8 11 14 18 22 25 29 32 35 38
25 25 24 22 20 18 16 15 14 16 16 16 16 15 13 12 13 12 9 9 12 11 9 7 7 6 7 4 2 2 2 3 6 9 13 17 20 24 27 31 34 36 38 40
27 26 24 21 20 17 16 16 19 19 17 17 16 16 15 11 12 12 12 13 12 9 7 4 5 6 4 3 3 3 5 8 11 14 18 21 24 29 32 35 37 39 41 43

GFSNW_500_spd_114.txt.gz
Wind_Speed
48 48 52 49 55 52 56 55 56 50 52 46 43 38 36 35 29 28 24 20 20 21 21 22 23 25 25 24 19 17 25 25 23 22 22 21 19 22 19 18 14 13 17 19
46 52 48 50 44 50 49 43 50 47 49 48 39 38 42 33 30 27 22 19 20 19 20 22 23 24 24 22 19 18 20 20 24 19 16 14 16 16 9 11 12 9 12 7
50 45 46 41 41 52 42 42 47 49 50 44 39 46 40 33 30 25 22 20 19 17 20 22 24 21 18 14 20 19 17 18 18 15 17 16 12 13 8 9 13 7 3 7
46 47 55 53 52 44 47 46 41 42 40 40 45 48 36 32 26 24 20 20 18 17 19 23 24 22 17 10 11 12 15 11 9 9 10 10 8 5 5 8 9 10 13 10
46 53 31 41 42 43 36 41 37 43 36 42 49 42 32 29 25 23 21 21 18 17 18 22 26 22 14 13 8 10 10 5 5 6 8 10 2 3 4 4 16 16 16 14
47 32 44 39 40 44 37 39 43 42 40 45 46 35 31 28 25 23 23 20 18 19 20 23 25 24 18 17 12 10 11 8 6 5 6 11 5 9 13 13 12 12 11 11
51 51 44 39 36 39 42 42 46 42 46 47 38 33 29 28 25 23 22 18 18 21 23 25 25 23 17 15 13 12 12 15 9 13 15 15 21 18 11 7 5 6 7 9
49 47 41 39 40 38 40 43 43 45 46 41 32 31 30 26 23 22 19 19 20 22 25 26 25 23 18 19 18 16 15 21 13 10 12 13 14 7 3 0 2 2 2 2
39 40 38 36 35 35 34 41 47 49 44 37 33 32 26 24 23 21 20 19 21 25 26 26 24 21 20 21 21 20 15 14 16 18 18 15 14 10 9 7 6 5 3 3
39 37 34 33 33 35 40 44 50 45 38 34 32 28 24 23 22 20 19 19 23 26 26 25 24 19 20 22 22 21 14 12 15 18 20 17 17 13 10 8 8 7 6 6
37 33 31 29 35 38 43 49 46 40 36 33 29 24 23 22 21 19 19 23 24 26 25 25 22 20 21 23 25 23 19 18 16 16 21 21 18 16 10 10 9 8 7 8
29 29 29 31 37 41 48 49 42 37 33 30 27 23 22 21 19 18 21 25 27 26 26 25 21 20 21 20 17 22 21 19 22 21 20 23 19 12 10 11 13 12 10 10
30 29 29 35 41 46 51 45 38 34 31 26 23 21 20 19 18 19 22 26 25 24 25 21 19 19 20 24 18 18 18 14 17 19 18 18 16 13 12 10 10 9 8 8
28 29 32 38 45 48 46 39 33 30 26 23 20 18 18 18 17 18 22 22 20 19 13 12 14 17 18 21 27 20 17 12 9 13 12 10 11 12 11 10 9 9 9 9
28 31 34 40 44 46 41 34 30 27 25 18 18 17 16 15 16 17 18 16 13 10 11 12 11 12 13 15 21 24 16 15 10 8 8 7 8 10 11 11 11 11 8 8
27 29 32 39 43 40 37 32 29 25 21 18 15 14 13 14 15 14 12 10 7 8 10 11 11 11 12 12 11 18 13 10 8 6 5 5 8 10 10 11 12 13 14 15
26 32 38 39 37 36 32 28 24 22 20 17 16 14 13 14 12 11 8 6 6 7 8 9 9 10 12 13 12 11 11 10 9 8 7 7 9 9 11 13 16 18 19 22
31 34 36 35 33 31 30 27 24 22 19 17 15 13 13 13 11 9 8 8 7 7 11 11 11 10 10 12 14 12 10 9 8 10 11 10 11 11 14 17 19 21 24 26
29 30 31 33 33 31 27 25 21 19 17 15 13 12 12 12 10 10 10 9 8 11 14 15 13 11 9 10 13 13 11 9 9 10 12 12 13 15 18 20 23 25 27 29
30 31 33 34 32 30 26 23 20 19 16 14 12 12 11 11 10 11 11 11 11 11 10 10 11 13 11 8 10 11 9 9 10 10 10 11 13 15 16 18 20 22 24 25
30 32 33 31 29 26 22 20 18 17 14 13 11 11 10 9 11 10 11 11 9 9 8 8 9 10 9 8 8 7 6 6 5 4 5 6 8 10 12 13 14 16 17 18
32 31 31 29 26 22 19 18 17 16 13 11 10 9 9 10 9 9 9 8 8 7 7 5 5 7 6 7 9 9 6 4 3 4 5 5 6 6 7 9 11 14 17 20
35 33 31 27 24 22 19 17 16 15 13 12 11 10 10 9 9 8 8 8 8 7 4 4 7 7 7 8 6 4 4 5 6 7 7 6 6 6 8 11 15 19 23 27
29 27 25 24 21 19 18 18 16 14 13 11 9 10 10 10 9 9 10 10 10 7 10 10 8 6 4 5 5 6 7 7 5 4 4 4 5 9 12 16 21 25 29 32
25 24 22 18 16 16 15 14 14 13 13 10 10 9 10 10 9 10 11 10 7 11 12 11 8 3 3 6 8 8 6 5 5 4 3 6 10 15 18 21 25 29 32 34
21 20 17 16 16 15 15 13 13 13 11 11 11 11 10 10 11 11 12 8 10 11 11 10 7 6 6 6 5 6 6 5 3 4 8 12 15 18 21 25 27 31 35 39
20 19 18 16 16 15 15 14 13 12 13 14 13 12 12 11 11 11 11 11 12 12 11 7 5 5 5 4 5 6 6 5 6 10 13 16 19 21 24 28 32 36 40 46

GFSNW_500_spd_117.txt.gz
Wind_Speed
77 73 63 58 53 47 51 50 55 59 61 46 48 44 43 44 39 36 35 35 31 30 26 24 25 25 25 26 29 27 23 24 24 18 23 21 16 16 18 19 15 13 13 21
71 71 61 54 51 50 49 54 58 55 64 50 44 51 46 37 41 37 38 35 31 31 25 24 24 23 24 26 28 22 20 23 26 16 19 15 14 16 15 12 11 11 11 15
63 60 52 50 49 52 51 58 53 51 58 44 46 46 42 46 44 39 40 33 32 28 24 23 22 21 22 24 25 19 18 22 22 16 18 8 10 10 5 11 9 10 10 3
49 48 47 49 53 53 50 54 55 50 47 54 43 45 44 41 45 44 37 32 31 26 23 22 21 20 21 21 20 17 18 18 18 11 13 9 12 9 11 6 4 3 8 9
44 45 48 53 54 48 48 58 52 43 49 46 46 46 42 42 46 41 32 32 28 25 22 21 21 21 20 22 20 15 17 14 13 7 14 14 9 1 1 2 3 6 8 7
45 51 50 48 43 45 51 49 45 36 37 36 41 44 45 45 44 34 32 31 26 23 20 21 20 20 22 20 18 16 17 15 12 6 10 9 7 11 10 11 10 13 11 9
44 44 42 44 51 49 52 45 41 40 43 40 40 41 44 45 38 33 32 27 25 22 20 20 20 22 23 22 14 17 18 17 13 9 14 11 11 13 10 10 8 8 8 6
42 41 43 51 43 35 37 45 46 40 40 43 42 42 44 44 35 31 28 25 23 21 20 20 21 23 24 24 19 15 21 19 19 19 19 16 16 9 6 6 5 3 3 1
38 44 50 45 42 42 39 32 39 37 37 39 42 43 44 35 31 29 26 23 20 20 19 22 23 26 25 26 18 17 23 22 23 27 22 19 16 15 12 8 7 7 6 4
47 43 46 49 41 36 35 32 32 35 36 39 43 45 36 31 29 27 24 20 19 19 21 22 25 27 26 23 20 20 22 23 23 22 25 21 20 19 14 9 8 9 9 8
36 28 32 39 43 35 32 31 30 33 35 41 45 38 32 30 28 24 20 18 19 20 22 23 26 27 25 22 23 24 24 21 21 20 25 25 19 18 15 13 10 9 11 10
41 43 40 35 33 31 30 31 32 36 42 43 40 34 30 28 24 20 18 18 19 21 22 25 27 25 22 22 22 22 21 21 21 17 22 26 26 21 19 18 14 12 11 11
40 36 34 31 29 28 29 32 37 40 43 41 36 31 27 24 20 18 16 18 19 20 23 23 20 16 17 18 19 17 14 16 15 12 21 22 27 25 21 15 15 14 13 12
34 32 30 30 31 32 34 37 39 40 38 35 31 27 23 20 16 15 16 18 18 19 19 15 13 13 12 13 16 22 17 12 10 11 16 20 22 22 20 14 12 12 11 10
33 33 30 30 31 33 36 38 41 39 35 31 28 25 20 16 14 14 15 15 16 14 11 11 12 12 12 11 11 14 23 15 10 9 9 16 18 18 15 12 12 10 11 12
33 31 30 28 29 31 39 41 42 37 32 29 24 22 17 14 12 12 12 13 10 7 6 7 9 10 10 10 8 9 13 19 7 6 7 10 14 14 12 11 11 11 14 14
33 31 30 33 33 35 35 36 34 33 30 26 23 19 15 12 10 9 9 8 6 7 8 8 8 8 9 8 8 9 12 10 9 8 6 6 7 9 11 11 11 12 12 13
32 28 28 31 33 31 35 36 32 29 26 23 19 14 11 9 7 7 7 8 8 9 8 9 11 10 9 8 8 10 14 14 11 8 6 5 5 5 6 7 8 10 12 15
27 28 34 33 33 32 34 33 29 27 23 18 15 11 9 8 7 8 7 10 11 11 10 11 11 12 10 9 9 9 10 11 10 8 6 6 6 7 8 9 10 13 17 20
32 32 32 32 33 34 33 31 27 24 21 17 13 10 7 6 7 7 7 10 13 12 11 11 11 10 10 9 7 11 9 10 10 9 8 8 8 8 8 9 11 14 17 20
29 30 29 31 32 33 31 29 26 22 18 14 11 8 5 5 6 7 8 9 12 11 12 11 11 10 7 8 8 8 8 7 7 7 6 6 6 6 7 9 10 12 12 13
26 31 33 34 33 31 29 26 22 18 15 11 9 7 5 5 5 7 8 8 8 10 10 10 8 5 4 7 9 8 7 6 6 5 4 4 4 5 5 5 6 8 11 15
34 36 35 33 33 31 28 23 18 14 12 10 7 6 5 4 6 7 7 7 8 7 7 3 1 5 8 10 11 8 5 4 4 5 5 5 5 4 4 6 9 12 17 21
33 34 34 33 30 24 20 17 14 12 10 7 6 5 4 5 7 6 6 8 7 6 5 8 9 8 6 5 4 4 5 5 5 6 6 5 5 4 6 9 12 16 19 23
32 32 30 26 23 19 16 13 12 10 8 7 7 6 6 6 7 6 6 7 6 5 11 12 10 5 3 3 6 7 7 6 6 5 5 5 5 7 9 12 15 19 23 27
28 27 25 22 19 16 14 12 10 8 7 7 7 8 7 7 6 6 6 6 6 10 13 13 9 4 4 6 7 6 6 6 7 6 5 5 8 10 13 16 20 24 28 33
26 24 20 18 16 14 12 11 10 9 9 8 8 8 9 8 8 8 8 10 11 13 14 12 8 6 5 5 5 6 8 8 8 7 7 9 12 15 18 22 25 30 35 39

GFSNW_500_spd_120.txt.gz
Wind_Speed
58 55 56 58 66 69 62 53 53 50 51 55 63 64 50 51 46 48 54 50 46 40 35 36 35 27 25 25 23 24 26 27 17 17 19 16 23 27 22 19 16 16 16 19
52 53 55 58 68 67 62 55 56 55 54 61 57 49 55 57 51 44 49 47 51 37 36 35 30 26 25 24 23 23 24 24 16 16 16 17 23 20 16 14 13 15 13 15
63 63 66 66 71 66 62 59 58 59 54 54 52 49 48 57 51 47 56 49 46 40 36 30 27 27 24 23 22 22 24 23 14 16 16 14 17 20 20 12 12 12 11 13
75 75 73 71 70 64 60 60 61 56 51 47 47 49 49 55 47 40 38 35 40 36 28 27 27 26 23 21 20 22 23 20 15 15 15 14 16 16 11 7 9 5 6 8
57 61 71 77 70 60 59 57 61 53 51 47 52 43 49 54 46 39 38 38 38 31 26 26 25 25 23 19 19 21 21 17 14 15 14 13 13 10 6 5 6 4 6 7
41 50 54 65 70 56 55 59 55 50 45 44 41 40 42 45 32 34 35 39 37 27 24 26 25 23 21 20 20 21 20 17 13 14 13 10 6 7 10 7 6 6 8 11
30 39 46 49 52 53 55 56 48 45 42 42 40 37 35 39 39 39 40 41 32 25 24 26 24 22 20 21 21 21 21 18 17 17 15 14 11 14 13 13 10 11 11 10
43 47 49 52 54 56 58 50 46 43 43 44 44 43 44 44 42 42 40 37 27 25 25 24 22 21 21 21 22 20 18 21 22 20 20 22 18 17 15 14 13 12 9 9
52 56 58 58 58 51 45 43 42 39 42 42 40 39 37 39 39 41 40 31 26 24 23 22 21 22 22 22 24 23 20 23 26 27 25 28 26 21 19 20 17 15 13 12
41 45 46 44 44 44 41 40 43 40 37 39 43 43 40 38 41 42 33 25 23 22 21 20 21 21 22 24 26 26 23 25 28 30 28 31 28 23 21 20 18 16 14 12
34 37 39 43 36 41 39 38 38 36 37 41 36 33 34 36 39 32 25 25 23 21 19 19 19 21 24 27 28 27 27 27 28 28 28 30 31 25 26 24 23 19 16 15
34 32 30 29 35 35 35 33 33 36 37 36 34 35 41 42 34 29 27 22 21 18 17 18 20 23 25 27 26 26 26 26 27 26 27 25 26 28 27 27 24 19 15 15
41 39 31 32 34 32 34 37 37 35 32 32 33 37 38 35 31 27 23 21 17 15 16 17 20 22 24 21 19 20 21 19 16 19 19 19 21 28 30 27 25 21 17 17
41 38 35 35 35 35 37 36 34 33 31 34 37 39 35 32 27 24 21 17 15 15 15 17 19 21 19 15 14 12 16 14 12 12 15 17 23 26 30 31 22 16 16 16
38 38 37 35 36 36 35 35 31 32 32 34 36 36 32 28 25 21 18 15 13 13 13 15 14 11 10 10 12 10 13 19 17 10 10 16 19 18 19 20 19 16 15 14
39 37 36 35 36 36 36 34 34 35 35 36 35 32 27 25 22 17 14 12 10 10 11 11 9 9 8 8 10 10 10 15 23 9 11 13 17 18 19 19 16 15 15 14
36 36 35 33 30 28 28 27 30 35 35 34 30 27 25 21 17 15 12 9 7 8 8 8 7 5 7 8 7 7 8 12 16 12 11 11 15 17 18 18 17 16 14 12
36 34 31 30 28 29 31 34 36 36 33 32 30 26 22 18 15 12 9 6 6 8 9 9 8 8 9 9 8 6 9 17 16 15 13 12 11 12 14 15 14 13 12 12
35 34 32 29 27 26 30 33 34 35 29 30 26 22 18 15 12 9 5 4 6 9 12 11 12 10 10 11 9 7 9 19 20 16 16 16 14 12 12 10 10 10 11 9
32 31 30 28 25 30 34 36 36 35 31 27 23 20 17 13 10 6 4 5 8 13 14 15 12 12 11 10 11 9 11 13 17 17 16 14 12 11 11 11 11 10 8 9
31 27 25 25 28 28 32 33 33 33 28 24 22 19 16 11 7 3 3 5 8 12 15 14 12 13 12 11 12 11 14 14 13 16 15 14 13 13 12 10 9 7 7 8
29 28 29 28 30 31 34 34 32 30 26 23 20 16 13 9 4 1 4 5 7 10 10 11 13 13 10 8 11 12 12 12 12 11 11 10 9 8 8 7 7 7 7 8
33 33 31 33 36 37 35 32 29 25 22 19 16 13 10 6 1 3 4 6 7 7 8 10 9 7 6 9 10 11 11 11 11 11 10 10 10 9 9 8 7 6 7 10
31 31 33 36 33 30 28 27 24 23 19 16 14 11 8 4 0 3 4 5 5 7 7 6 6 7 9 11 10 8 6 6 7 9 10 9 8 7 6 6 6 7 10 15
32 32 33 30 28 28 27 26 22 20 18 16 13 10 6 3 3 4 5 5 7 7 7 9 10 8 7 6 6 7 7 8 8 8 8 8 7 7 7 8 9 12 16 20
31 29 29 30 29 27 24 21 20 17 15 13 10 8 7 6 5 5 6 7 7 7 9 13 12 8 5 6 7 8 7 7 8 8 8 8 8 8 9 11 14 18 21 25
31 30 30 28 26 24 22 21 19 17 15 12 9 7 6 6 6 7 8 8 7 8 11 14 13 9 7 6 6 5 6 6 7 8 9 10 10 11 14 16 20 23 27 31

GFSNW_500_spd_123.txt.gz
Wind_Speed
69 68 68 67 70 69 68 71 68 64 58 59 54 52 50 48 54 50 47 55 51 41 45 45 45 48 41 32 29 29 24 21 22 25 31 28 23 22 21 23 22 24 28 34
66 65 64 66 65 63 60 59 61 63 60 59 56 50 51 52 51 47 48 51 57 47 44 51 44 48 33 25 26 27 22 18 19 26 25 23 21 20 23 21 24 21 24 28
62 61 63 64 62 57 56 58 60 62 61 56 57 52 52 53 52 48 49 52 54 49 40 51 48 44 23 23 26 24 22 18 18 21 24 24 20 20 25 21 28 21 21 19
63 63 65 62 59 56 56 60 60 58 59 60 54 52 52 53 56 52 46 52 57 58 48 49 48 37 25 24 24 23 21 18 18 20 22 22 19 19 24 21 19 18 14 14
66 68 66 64 62 61 64 63 56 51 57 57 54 55 50 48 49 45 45 38 43 50 50 49 37 24 24 25 23 22 20 18 19 21 21 22 22 19 20 17 16 14 11 11
64 68 69 70 70 67 70 63 56 54 50 54 54 48 47 46 45 42 45 38 36 51 53 40 28 24 23 22 21 22 19 19 19 20 22 22 21 19 21 16 14 14 13 12
64 68 69 72 75 74 69 66 59 50 49 52 48 49 45 42 40 38 37 33 32 36 36 29 26 24 23 22 22 21 20 20 20 19 22 24 19 24 21 18 16 16 15 13
56 62 67 74 77 77 73 68 61 44 49 52 48 45 43 41 36 31 35 33 33 32 34 28 26 24 22 22 22 21 20 21 23 23 23 25 26 24 23 20 19 21 21 17
34 41 50 56 62 56 61 65 53 43 49 45 41 41 37 42 34 32 31 33 35 33 32 28 26 22 21 24 22 20 21 23 26 27 27 29 30 29 29 23 24 23 23 19
26 35 45 43 49 64 54 54 51 47 48 43 41 39 39 35 31 36 38 41 37 35 30 25 24 22 23 23 21 21 23 27 29 30 32 36 36 34 32 31 28 25 26 23
27 33 40 48 55 54 51 49 49 47 42 38 37 34 37 35 36 36 39 37 36 31 28 25 21 22 21 20 22 23 27 30 30 32 33 35 31 34 35 31 28 27 24 23
37 42 46 50 51 51 49 46 42 40 41 36 32 33 34 38 37 34 34 36 31 27 26 20 20 19 18 21 23 24 27 30 31 32 32 32 32 32 31 31 30 30 29 28
34 36 39 41 43 44 42 43 41 39 35 36 35 35 34 31 30 33 38 35 26 24 19 21 18 18 18 20 23 25 27 28 29 28 26 27 27 28 27 29 31 32 29 29
36 35 38 38 40 41 40 37 36 34 34 38 33 32 34 32 32 36 34 31 26 22 20 17 16 17 17 19 21 23 24 22 22 19 16 16 18 20 23 28 30 30 29 28
37 35 33 35 30 29 30 29 29 32 35 31 31 30 29 34 39 35 31 25 23 20 17 16 16 14 16 18 19 16 16 15 17 19 14 12 15 18 17 18 21 24 24 23
34 31 29 31 32 29 28 28 29 28 30 28 28 29 36 40 35 30 26 23 21 18 16 15 12 13 15 15 13 12 12 11 12 19 13 12 14 14 14 15 16 20 21 20
35 34 31 31 30 29 28 27 26 28 25 27 31 35 35 35 31 29 25 22 17 16 14 12 11 13 14 14 12 12 11 10 12 17 18 13 15 16 19 18 19 20 19 17
30 27 27 28 27 28 28 28 27 26 30 30 33 34 36 32 27 25 22 17 17 14 12 11 13 15 15 14 14 13 11 11 12 16 16 12 13 14 14 18 20 20 19 16
31 29 28 27 28 29 29 30 32 33 32 35 36 30 28 26 24 21 17 16 14 12 12 14 16 16 15 15 14 15 12 10 15 18 18 15 15 14 15 17 17 17 17 14
33 32 31 32 32 31 33 35 37 36 34 34 33 29 24 22 19 18 17 13 12 12 13 16 17 16 17 16 15 15 14 12 19 20 20 19 20 20 18 17 16 15 13 12
32 31 29 29 31 31 33 35 37 37 35 33 33 30 26 22 20 17 13 10 9 10 13 16 18 18 17 17 17 16 17 16 16 17 20 21 20 18 15 13 12 12 12 11
33 30 30 28 30 31 32 31 33 33 34 33 30 26 23 20 18 13 9 7 8 9 11 13 15 16 16 17 17 16 17 18 18 18 18 20 18 16 14 12 11 11 9 8
37 35 31 31 31 33 31 28 30 31 30 28 26 23 21 18 14 9 6 5 7 9 10 11 12 12 13 14 12 13 15 16 16 15 15 15 14 13 13 13 11 10 9 10
32 30 28 29 25 22 22 25 29 30 27 26 24 21 19 15 10 6 4 6 8 8 9 8 9 9 8 7 9 10 11 11 11 12 13 13 13 13 13 11 11 11 12 12
29 28 24 25 24 24 27 31 30 28 26 22 21 19 16 12 8 5 5 6 7 8 7 7 7 7 7 8 8 8 9 9 11 12 13 14 14 13 12 12 13 14 15 16
26 26 27 27 26 27 28 28 28 26 23 22 20 17 14 11 7 6 5 7 7 7 7 9 12 10 8 7 8 10 11 12 12 12 11 12 12 11 12 13 14 16 18 20
28 27 26 25 26 28 29 28 26 24 22 21 18 15 12 9 7 6 6 7 7 6 9 13 14 12 8 7 8 8 8 8 10 11 11 11 12 13 15 16 17 20 23 25

GFSNW_500_spd_129.txt.gz
Wind_Speed
65 63 63 63 61 59 59 59 58 57 56 56 54 53 50 47 42 44 43 41 38 37 38 40 45 36 29 31 44 40 36 31 23 30 21 27 29 28 27 23 25 27 30 31
67 67 67 65 64 62 62 61 59 59 59 59 55 51 49 46 45 46 46 44 42 42 41 42 42 38 40 40 39 31 25 32 32 18 22 20 26 28 21 23 27 24 30 28
69 68 67 66 65 65 64 65 62 62 61 56 53 52 48 49 48 47 45 42 42 45 43 43 40 34 36 35 37 35 28 30 31 19 19 20 23 25 24 24 26 30 26 27
71 71 69 68 67 66 67 66 64 61 59 55 52 53 50 49 48 46 43 41 43 43 45 42 38 35 33 29 30 28 30 31 28 27 23 28 31 30 28 25 22 26 31 24
76 74 71 72 70 68 69 68 62 61 57 54 53 53 48 48 44 41 44 45 44 46 45 41 39 35 34 36 34 35 31 28 22 27 22 30 30 25 27 24 21 26 30 28
76 75 76 74 73 73 73 65 61 60 56 56 54 48 46 43 39 39 38 39 42 46 44 41 36 34 35 36 35 35 35 31 25 29 26 29 25 22 24 21 21 24 29 29
76 75 73 72 74 75 73 67 63 63 55 54 46 45 39 35 36 34 32 31 31 37 38 35 33 35 35 30 36 36 34 37 28 30 25 28 25 24 22 21 23 26 30 30
74 73 72 71 69 66 65 60 58 56 52 47 45 40 35 30 29 28 27 27 30 35 31 33 33 35 33 33 35 37 39 35 28 24 26 25 25 23 24 25 28 27 29 29
73 70 68 68 67 67 63 60 54 53 50 45 39 38 34 28 28 26 23 29 29 27 30 32 32 32 34 38 31 28 32 27 24 21 24 26 23 25 26 28 32 31 30 28
76 71 67 66 64 63 62 57 53 53 51 42 40 38 33 31 29 29 26 29 28 25 30 34 31 28 29 30 23 24 22 22 17 21 24 23 25 27 30 33 34 35 35 34
71 72 66 64 63 61 62 52 50 47 44 38 37 36 35 29 23 25 26 27 29 28 28 29 26 26 27 28 20 20 20 19 18 19 22 26 26 30 32 35 38 39 39 36
60 65 63 61 60 57 57 51 45 42 41 36 38 37 35 30 26 24 22 22 25 26 27 23 24 26 31 23 15 17 22 17 18 20 24 26 29 31 34 36 40 41 38 31
53 58 59 60 59 58 57 48 47 44 40 38 39 36 34 32 28 23 23 26 23 25 25 20 25 25 28 28 24 24 19 14 19 22 23 28 30 31 34 37 38 33 29 27
42 52 57 59 57 55 52 48 44 43 41 38 36 34 32 28 25 26 27 24 26 23 23 22 24 27 27 25 21 19 16 17 22 25 26 27 28 31 33 33 31 23 20 20
30 34 36 43 48 50 51 47 46 46 42 37 35 31 30 27 26 27 26 25 24 22 25 27 29 27 26 22 19 19 18 21 24 24 26 25 27 28 30 26 21 19 16 15
28 34 42 43 41 46 47 48 50 48 38 39 41 35 30 26 27 28 27 26 23 27 29 27 31 27 22 19 18 16 20 23 22 24 23 25 26 29 23 19 16 11 9 9
34 41 51 52 51 45 44 44 41 50 38 35 33 29 33 34 33 27 26 26 26 27 27 31 25 20 18 18 16 18 22 21 23 22 23 25 26 24 17 16 14 13 11 11
46 46 48 52 49 44 37 37 40 40 39 34 32 32 33 32 28 27 25 25 29 30 30 26 21 19 19 17 16 20 23 21 22 23 24 24 23 17 15 13 13 11 11 11
51 50 49 50 46 43 41 40 33 34 32 32 34 31 27 22 23 23 25 31 33 28 26 24 20 18 17 15 19 21 22 22 23 23 23 22 20 13 11 12 13 12 12 18
46 48 48 49 45 42 42 42 41 39 38 36 33 26 23 19 23 21 26 29 29 25 23 18 18 18 17 18 21 22 22 23 23 23 23 20 16 13 13 12 13 15 17 19
46 46 45 45 44 44 41 39 40 39 37 33 31 27 22 23 25 28 30 26 24 19 17 18 17 16 16 19 23 24 23 24 23 22 21 20 16 14 15 16 17 17 19 20
33 34 35 35 34 32 31 32 32 31 32 31 32 33 31 30 33 29 25 21 19 17 15 17 16 16 18 20 21 21 21 21 21 21 20 19 17 15 14 13 14 15 11 12
32 31 31 32 32 33 30 25 24 23 25 24 26 29 31 30 26 21 19 16 14 13 15 16 15 16 17 17 18 19 18 18 19 18 17 17 18 16 14 14 12 9 9 10
27 25 25 26 22 18 18 19 21 23 25 28 29 28 26 25 24 22 17 15 14 15 14 13 14 14 14 15 15 15 16 15 13 11 11 12 12 11 10 12 13 12 13 14
24 25 23 21 19 22 23 23 24 26 29 28 29 27 23 22 21 18 16 15 14 12 12 12 11 11 12 12 12 11 7 4 3 6 7 9 11 12 13 14 14 15 15 16
21 18 20 20 20 22 22 22 25 26 30 28 26 26 24 21 19 17 15 13 11 10 10 11 10 10 11 10 7 5 5 7 11 14 15 15 16 16 16 16 16 16 16 17
21 20 21 21 21 20 22 22 22 23 25 24 23 24 23 19 18 15 13 11 8 8 9 10 10 10 10 10 8 8 8 11 13 14 14 15 16 16 16 15 15 16 18 20

GFSNW_500_spd_132.txt.gz
Wind_Speed
59 56 53 51 50 50 50 51 50 50 50 48 47 44 42 40 40 41 41 40 38 37 34 34 35 35 35 37 31 32 32 32 26 21 29 26 28 33 25 27 27 32 31 30
62 60 59 58 57 57 55 56 55 54 53 52 48 46 45 45 42 41 43 42 40 36 35 38 38 38 38 36 33 33 30 30 31 22 23 23 26 25 25 27 28 27 31 30
64 63 62 62 62 61 62 61 59 60 58 55 52 51 48 44 42 43 43 41 41 40 39 40 38 38 41 36 34 31 28 28 27 25 26 25 27 23 23 27 29 28 30 32
66 63 62 61 62 63 64 61 59 58 57 52 50 50 48 46 46 44 42 39 39 41 41 42 40 39 40 37 33 32 31 25 27 27 27 29 29 27 29 29 29 33 31 31
68 65 63 63 62 64 65 61 59 58 56 54 53 52 48 46 44 41 40 39 39 40 41 41 42 43 41 37 31 31 32 33 30 25 26 27 35 30 27 31 32 36 33 27
71 70 68 68 67 67 65 62 61 61 58 56 54 50 46 43 43 40 39 37 40 40 38 41 43 42 43 35 31 31 32 34 32 28 27 32 36 26 25 27 31 29 26 28
71 69 68 68 69 71 68 62 62 60 56 54 49 46 44 42 41 38 38 38 37 34 35 36 39 41 38 34 31 30 32 30 32 32 28 35 29 28 25 26 28 27 25 27
70 71 69 70 70 70 69 65 68 63 58 51 48 46 43 42 39 36 35 35 31 31 35 35 32 29 31 30 30 30 31 31 30 31 31 31 34 25 24 26 26 26 25 29
70 70 70 71 71 70 69 65 63 62 59 53 50 46 43 40 36 36 34 33 30 29 28 29 30 30 27 26 26 26 31 27 28 36 35 32 28 22 23 25 27 28 31 33
72 72 72 71 68 66 64 61 57 57 53 46 44 42 39 38 37 36 33 33 27 25 28 28 27 25 24 25 25 26 24 22 18 24 32 24 21 19 23 25 29 31 34 35
71 73 74 73 67 62 61 53 52 50 47 39 38 40 38 38 37 34 33 33 28 27 30 28 17 19 22 24 19 21 18 18 17 18 16 15 17 19 24 26 31 34 37 38
56 56 60 66 68 62 58 51 49 46 46 42 42 39 38 36 34 32 28 23 26 28 28 24 19 21 22 17 15 13 13 12 12 16 15 17 20 24 26 29 31 35 37 40
52 51 49 58 65 62 55 48 47 46 42 41 37 34 35 36 34 31 27 19 19 17 19 20 24 22 22 20 15 17 13 19 18 22 19 22 23 25 27 29 32 34 37 38
40 49 51 51 63 59 53 46 44 43 38 37 33 34 36 35 33 32 25 24 22 20 20 23 24 25 21 13 13 29 26 26 22 21 22 23 24 26 29 30 32 33 32 26
20 31 45 51 51 60 50 46 42 41 39 34 34 34 34 32 31 27 21 22 24 21 23 26 25 25 22 18 22 21 27 25 21 20 23 25 25 27 29 30 32 31 25 21
22 25 37 47 53 57 53 51 50 44 42 36 32 32 30 28 26 21 22 22 28 25 25 28 25 20 22 23 24 21 23 21 20 23 23 24 25 26 27 28 29 23 17 14
36 41 44 49 53 53 46 36 32 38 38 37 34 32 27 29 31 29 25 23 25 27 27 24 21 20 24 23 22 21 18 19 21 22 23 23 25 25 26 26 24 17 16 14
37 38 43 47 44 42 43 35 34 37 39 37 36 34 32 30 28 25 23 24 25 25 24 22 21 24 23 23 21 16 19 21 21 21 23 24 24 24 23 24 18 16 16 13
47 53 49 42 40 41 38 37 39 42 37 34 30 30 31 33 29 28 28 27 26 26 24 21 21 21 22 20 15 18 20 20 21 22 23 23 23 23 22 19 15 13 14 14
51 55 57 51 44 50 49 38 34 35 38 35 25 24 23 23 23 21 23 26 27 21 21 19 20 23 20 15 18 20 21 21 23 24 23 23 22 21 21 17 16 13 12 13
50 52 58 55 50 43 52 49 44 43 43 37 30 25 24 25 22 24 21 20 16 16 19 21 21 17 15 18 19 20 22 24 25 26 24 22 21 21 19 17 17 18 17 17
46 56 58 53 51 51 55 53 49 43 40 35 32 26 22 21 25 23 16 16 19 21 24 20 16 13 17 19 20 22 24 24 23 22 21 21 23 21 20 17 16 16 15 13
42 40 48 49 52 52 46 42 40 39 33 29 26 23 31 34 27 21 22 23 23 19 18 15 12 17 18 18 20 21 20 20 19 19 20 21 21 20 18 16 15 16 16 13
37 37 40 42 39 38 33 30 26 22 25 25 25 26 28 29 27 28 24 20 17 15 14 13 16 16 17 17 17 18 17 17 18 18 18 16 15 15 16 16 15 15 16 17
36 36 35 34 30 29 30 28 29 29 28 26 27 29 27 26 26 24 21 16 15 12 12 15 15 15 15 14 15 15 15 14 12 8 7 8 10 11 12 13 15 16 16 17
28 26 24 24 23 25 25 27 29 29 29 30 29 28 26 23 22 20 18 14 12 13 13 13 12 12 12 13 13 12 11 9 8 11 14 15 16 17 17 17 17 18 19 20
23 23 24 22 24 24 24 25 26 27 29 29 26 25 23 22 21 18 14 13 12 11 11 10 10 11 11 12 12 12 11 11 11 11 12 13 14 14 16 18 19 18 18 18

GFSNW_500_spd_135.txt.gz
Wind_Speed
55 55 50 50 46 46 51 53 54 51 49 49 48 45 39 34 36 39 39 39 38 37 36 35 33 32 34 35 36 36 35 37 34 31 27 26 29 31 32 25 35 37 28 28
54 52 50 48 47 44 43 44 44 45 43 43 41 40 39 37 38 40 40 38 36 36 36 36 34 35 34 37 38 40 39 39 36 29 26 28 28 31 31 22 26 34 29 29
59 55 53 52 50 48 49 47 46 44 43 39 40 39 39 39 40 42 42 40 38 37 36 36 39 36 34 36 39 42 44 42 38 33 29 26 24 30 34 33 32 27 29 29
60 59 58 57 57 57 55 55 54 48 44 39 41 43 43 43 43 42 41 41 40 37 40 40 37 35 37 38 38 40 41 41 39 35 32 32 33 30 32 42 32 38 28 27
62 60 60 60 61 61 60 56 55 54 51 50 48 48 45 45 44 43 40 41 40 40 41 38 39 39 38 40 40 38 41 40 41 37 37 39 37 32 31 35 35 36 30 30
64 62 61 60 59 60 58 58 57 57 54 52 52 47 45 43 42 41 41 40 41 40 38 42 40 39 39 40 38 38 44 38 38 38 36 39 40 29 30 30 34 32 30 29
68 66 65 63 62 59 58 57 55 52 50 50 47 46 45 43 42 42 41 39 40 38 41 39 37 39 40 38 38 41 39 34 37 39 35 39 36 29 31 28 29 34 28 26
67 67 67 65 63 63 60 58 57 54 51 49 48 46 43 43 40 39 38 38 38 39 37 37 37 39 37 39 41 33 31 32 34 37 36 37 35 27 29 30 27 27 27 29
67 66 64 63 62 60 60 59 59 57 55 53 49 47 45 43 41 39 37 39 38 36 36 36 38 33 36 35 31 25 26 27 31 33 33 38 31 22 28 31 24 26 29 25
64 64 64 64 64 62 60 57 57 57 55 52 50 47 45 45 43 40 38 37 36 36 34 37 32 35 33 33 24 22 24 27 29 29 31 34 26 22 24 25 25 26 26 28
63 63 62 62 61 62 60 56 56 55 55 52 49 46 45 45 44 42 39 39 36 35 36 32 32 30 28 27 19 17 24 23 17 16 20 14 14 18 21 21 21 23 26 29
64 61 60 59 60 59 59 57 55 51 51 50 48 47 43 41 41 39 40 35 33 35 32 34 34 31 27 25 22 16 21 16 15 12 9 11 15 15 16 20 23 26 29 32
68 65 63 60 60 57 56 52 49 48 44 41 41 41 41 37 37 39 36 32 33 30 33 33 32 30 28 26 17 21 19 19 19 19 17 21 22 20 20 23 26 28 30 32
59 63 64 63 61 58 57 56 52 48 42 41 38 42 41 41 39 37 34 28 29 30 29 29 27 28 25 20 22 22 22 20 15 22 25 26 26 23 24 25 26 28 31 33
43 46 50 53 55 55 53 52 49 49 44 37 40 39 39 40 40 36 35 33 33 31 30 23 27 26 26 26 25 22 29 26 26 25 27 27 24 24 25 26 26 29 31 31
37 40 44 47 48 46 44 44 50 46 42 43 35 39 39 41 37 36 34 34 34 27 21 24 33 25 28 29 26 23 26 24 28 31 30 26 24 24 25 26 28 29 29 29
23 31 41 45 46 42 37 39 44 43 41 39 37 35 36 36 34 32 30 29 30 27 25 32 30 26 30 30 21 22 24 25 26 25 24 23 24 25 26 27 28 27 27 23
16 19 32 38 42 40 46 43 43 41 40 40 38 32 33 31 30 30 29 23 28 30 32 30 27 27 28 20 16 19 22 24 22 21 21 23 24 25 27 27 26 25 23 19
25 24 34 47 48 51 45 33 41 41 40 37 34 32 31 31 30 30 27 24 29 28 28 25 27 28 25 16 16 22 22 24 21 21 22 24 25 26 27 26 24 22 19 18
41 38 45 48 50 51 50 37 36 44 42 40 36 34 32 29 34 34 27 24 22 26 24 26 27 22 21 18 21 20 22 20 21 22 23 25 26 27 27 25 22 20 19 19
56 52 49 46 47 44 46 41 34 40 41 36 32 28 24 32 32 27 24 23 22 26 24 27 20 16 18 20 20 20 18 20 21 23 25 26 26 26 25 24 22 20 20 22
56 52 50 48 46 43 42 43 37 35 35 34 31 26 25 31 30 25 23 21 24 27 21 21 16 16 18 19 18 17 19 21 22 23 24 24 23 23 23 24 22 20 21 22
62 57 52 51 52 41 41 42 42 39 38 34 31 30 28 26 21 19 19 20 25 23 20 15 11 15 16 15 17 18 19 21 21 21 21 20 21 23 23 21 20 22 22 22
62 56 53 47 47 43 38 30 22 17 15 17 21 23 25 21 20 19 23 25 22 19 11 8 13 12 13 15 16 17 18 18 18 18 18 19 18 16 15 17 19 22 23 22
41 44 43 41 34 28 26 23 19 19 18 18 19 20 19 19 24 27 29 25 18 9 9 13 11 12 13 14 15 15 15 16 16 16 16 14 12 13 14 15 16 17 18 19
28 29 28 27 25 23 22 23 23 22 20 18 18 21 25 27 28 28 26 18 14 12 11 10 10 11 12 13 13 13 13 14 15 16 15 15 16 17 18 19 19 19 20 20
23 25 24 22 19 21 20 21 20 20 21 22 25 24 26 23 21 21 19 15 12 9 8 9 10 11 11 11 11 12 13 14 14 15 15 16 16 16 16 16 18 20 21 22